<?xml version="1.0" encoding="UTF-8" standalone="no" ?>
<gpx xmlns="http://www.topografix.com/GPX/1/1" xmlns:xsi="http://www.w3.org/2001/XMLSchema-instance" xsi:schemaLocation="http://www.topografix.com/GPX/1/1 http://www.topografix.com/GPX/1/1/gpx.xsd" version="1.1" creator="VisuGPX - https://www.visugpx.com">
  <metadata>
    <name>Lambesc (13) - Manosque (04) - Ribiers (05) et retour J 1/4</name>
    <desc><![CDATA[J 1, Lambesc - Manosque
Par la route avec sacoches, passe à proximité de Rognes, Villelaure, Ansouis, pause possible à l'étang de la Bonde, puis la motte d'Aigues, Peypin d'Aigues, la Bastide des Jourdans, Pierrevert et Manosque, parcours inspiré du tour du Luberon à Vélo, ne faites pas comme nous éviter les grosses chaleurs.]]></desc>
  </metadata>
  <trk>
    <name><![CDATA[2021-07-21 Lambesc - Manosque 64km 850m-S2]]></name>
    <trkseg>
      <trkpt lat="43.64873" lon="5.26485">
        <ele>238</ele>
        <time>2021-07-21T06:24:53Z</time>
      </trkpt>
      <trkpt lat="43.64876" lon="5.2649">
        <ele>238</ele>
        <time>2021-07-21T06:24:54Z</time>
      </trkpt>
      <trkpt lat="43.64878" lon="5.26494">
        <ele>238</ele>
        <time>2021-07-21T06:24:55Z</time>
      </trkpt>
      <trkpt lat="43.64881" lon="5.26498">
        <ele>238</ele>
        <time>2021-07-21T06:24:56Z</time>
      </trkpt>
      <trkpt lat="43.64885" lon="5.26502">
        <ele>238</ele>
        <time>2021-07-21T06:24:57Z</time>
      </trkpt>
      <trkpt lat="43.64887" lon="5.26506">
        <ele>238</ele>
        <time>2021-07-21T06:24:58Z</time>
      </trkpt>
      <trkpt lat="43.6489" lon="5.26511">
        <ele>238</ele>
        <time>2021-07-21T06:24:59Z</time>
      </trkpt>
      <trkpt lat="43.64892" lon="5.26515">
        <ele>238</ele>
        <time>2021-07-21T06:25:00Z</time>
      </trkpt>
      <trkpt lat="43.64894" lon="5.2652">
        <ele>238</ele>
        <time>2021-07-21T06:25:01Z</time>
      </trkpt>
      <trkpt lat="43.64896" lon="5.26525">
        <ele>238</ele>
        <time>2021-07-21T06:25:02Z</time>
      </trkpt>
      <trkpt lat="43.64897" lon="5.2653">
        <ele>238</ele>
        <time>2021-07-21T06:25:03Z</time>
      </trkpt>
      <trkpt lat="43.64898" lon="5.26536">
        <ele>238</ele>
        <time>2021-07-21T06:25:04Z</time>
      </trkpt>
      <trkpt lat="43.64915" lon="5.26615">
        <ele>241</ele>
        <time>2021-07-21T06:25:20Z</time>
      </trkpt>
      <trkpt lat="43.64936" lon="5.2667">
        <ele>244</ele>
        <time>2021-07-21T06:25:32Z</time>
      </trkpt>
      <trkpt lat="43.64953" lon="5.26673">
        <ele>245</ele>
        <time>2021-07-21T06:25:36Z</time>
      </trkpt>
      <trkpt lat="43.64971" lon="5.26671">
        <ele>247</ele>
        <time>2021-07-21T06:25:40Z</time>
      </trkpt>
      <trkpt lat="43.64987" lon="5.26667">
        <ele>248</ele>
        <time>2021-07-21T06:25:43Z</time>
      </trkpt>
      <trkpt lat="43.64992" lon="5.26664">
        <ele>248</ele>
        <time>2021-07-21T06:25:44Z</time>
      </trkpt>
      <trkpt lat="43.64996" lon="5.26661">
        <ele>248</ele>
        <time>2021-07-21T06:25:45Z</time>
      </trkpt>
      <trkpt lat="43.65035" lon="5.2664">
        <ele>247</ele>
        <time>2021-07-21T06:25:53Z</time>
      </trkpt>
      <trkpt lat="43.65069" lon="5.26618">
        <ele>245</ele>
        <time>2021-07-21T06:26:01Z</time>
      </trkpt>
      <trkpt lat="43.65073" lon="5.26617">
        <ele>245</ele>
        <time>2021-07-21T06:26:02Z</time>
      </trkpt>
      <trkpt lat="43.65078" lon="5.26619">
        <ele>245</ele>
        <time>2021-07-21T06:26:03Z</time>
      </trkpt>
      <trkpt lat="43.65087" lon="5.26629">
        <ele>244</ele>
        <time>2021-07-21T06:26:05Z</time>
      </trkpt>
      <trkpt lat="43.65089" lon="5.26636">
        <ele>244</ele>
        <time>2021-07-21T06:26:06Z</time>
      </trkpt>
      <trkpt lat="43.6509" lon="5.26642">
        <ele>244</ele>
        <time>2021-07-21T06:26:07Z</time>
      </trkpt>
      <trkpt lat="43.6509" lon="5.26649">
        <ele>244</ele>
        <time>2021-07-21T06:26:08Z</time>
      </trkpt>
      <trkpt lat="43.65089" lon="5.26655">
        <ele>244</ele>
        <time>2021-07-21T06:26:09Z</time>
      </trkpt>
      <trkpt lat="43.65086" lon="5.26678">
        <ele>244</ele>
        <time>2021-07-21T06:26:13Z</time>
      </trkpt>
      <trkpt lat="43.65084" lon="5.26683">
        <ele>244</ele>
        <time>2021-07-21T06:26:14Z</time>
      </trkpt>
      <trkpt lat="43.65082" lon="5.26688">
        <ele>244</ele>
        <time>2021-07-21T06:26:15Z</time>
      </trkpt>
      <trkpt lat="43.65081" lon="5.26694">
        <ele>245</ele>
        <time>2021-07-21T06:26:16Z</time>
      </trkpt>
      <trkpt lat="43.65081" lon="5.26699">
        <ele>245</ele>
        <time>2021-07-21T06:26:17Z</time>
      </trkpt>
      <trkpt lat="43.65082" lon="5.26705">
        <ele>245</ele>
        <time>2021-07-21T06:26:18Z</time>
      </trkpt>
      <trkpt lat="43.65084" lon="5.2671">
        <ele>244</ele>
        <time>2021-07-21T06:26:19Z</time>
      </trkpt>
      <trkpt lat="43.65086" lon="5.26715">
        <ele>244</ele>
        <time>2021-07-21T06:26:20Z</time>
      </trkpt>
      <trkpt lat="43.65088" lon="5.2672">
        <ele>244</ele>
        <time>2021-07-21T06:26:21Z</time>
      </trkpt>
      <trkpt lat="43.65089" lon="5.26726">
        <ele>244</ele>
        <time>2021-07-21T06:26:22Z</time>
      </trkpt>
      <trkpt lat="43.65091" lon="5.26744">
        <ele>245</ele>
        <time>2021-07-21T06:26:25Z</time>
      </trkpt>
      <trkpt lat="43.65091" lon="5.2675">
        <ele>245</ele>
        <time>2021-07-21T06:26:26Z</time>
      </trkpt>
      <trkpt lat="43.65096" lon="5.26846">
        <ele>244</ele>
        <time>2021-07-21T06:26:42Z</time>
      </trkpt>
      <trkpt lat="43.65116" lon="5.26939">
        <ele>243</ele>
        <time>2021-07-21T06:26:57Z</time>
      </trkpt>
      <trkpt lat="43.6512" lon="5.26961">
        <ele>243</ele>
        <time>2021-07-21T06:27:06Z</time>
      </trkpt>
      <trkpt lat="43.65119" lon="5.26963">
        <ele>241</ele>
        <time>2021-07-21T06:27:30Z</time>
      </trkpt>
      <trkpt lat="43.65119" lon="5.26963">
        <ele>240</ele>
        <time>2021-07-21T06:27:49Z</time>
      </trkpt>
      <trkpt lat="43.65127" lon="5.26993">
        <ele>240</ele>
        <time>2021-07-21T06:27:59Z</time>
      </trkpt>
      <trkpt lat="43.65134" lon="5.27069">
        <ele>239</ele>
        <time>2021-07-21T06:28:12Z</time>
      </trkpt>
      <trkpt lat="43.65134" lon="5.27076">
        <ele>239</ele>
        <time>2021-07-21T06:28:13Z</time>
      </trkpt>
      <trkpt lat="43.65134" lon="5.27083">
        <ele>239</ele>
        <time>2021-07-21T06:28:14Z</time>
      </trkpt>
      <trkpt lat="43.65134" lon="5.27091">
        <ele>238</ele>
        <time>2021-07-21T06:28:15Z</time>
      </trkpt>
      <trkpt lat="43.65135" lon="5.27098">
        <ele>238</ele>
        <time>2021-07-21T06:28:16Z</time>
      </trkpt>
      <trkpt lat="43.65137" lon="5.27105">
        <ele>237</ele>
        <time>2021-07-21T06:28:17Z</time>
      </trkpt>
      <trkpt lat="43.65139" lon="5.27112">
        <ele>236</ele>
        <time>2021-07-21T06:28:18Z</time>
      </trkpt>
      <trkpt lat="43.65142" lon="5.27118">
        <ele>236</ele>
        <time>2021-07-21T06:28:19Z</time>
      </trkpt>
      <trkpt lat="43.65147" lon="5.27123">
        <ele>235</ele>
        <time>2021-07-21T06:28:20Z</time>
      </trkpt>
      <trkpt lat="43.65152" lon="5.27127">
        <ele>235</ele>
        <time>2021-07-21T06:28:21Z</time>
      </trkpt>
      <trkpt lat="43.65158" lon="5.2713">
        <ele>234</ele>
        <time>2021-07-21T06:28:22Z</time>
      </trkpt>
      <trkpt lat="43.65164" lon="5.27132">
        <ele>233</ele>
        <time>2021-07-21T06:28:23Z</time>
      </trkpt>
      <trkpt lat="43.6517" lon="5.27133">
        <ele>233</ele>
        <time>2021-07-21T06:28:24Z</time>
      </trkpt>
      <trkpt lat="43.65177" lon="5.27134">
        <ele>232</ele>
        <time>2021-07-21T06:28:25Z</time>
      </trkpt>
      <trkpt lat="43.65193" lon="5.27138">
        <ele>231</ele>
        <time>2021-07-21T06:28:28Z</time>
      </trkpt>
      <trkpt lat="43.65197" lon="5.27141">
        <ele>230</ele>
        <time>2021-07-21T06:28:29Z</time>
      </trkpt>
      <trkpt lat="43.65201" lon="5.27143">
        <ele>230</ele>
        <time>2021-07-21T06:28:30Z</time>
      </trkpt>
      <trkpt lat="43.65205" lon="5.27143">
        <ele>230</ele>
        <time>2021-07-21T06:28:31Z</time>
      </trkpt>
      <trkpt lat="43.6521" lon="5.27142">
        <ele>229</ele>
        <time>2021-07-21T06:28:32Z</time>
      </trkpt>
      <trkpt lat="43.65213" lon="5.27139">
        <ele>229</ele>
        <time>2021-07-21T06:28:33Z</time>
      </trkpt>
      <trkpt lat="43.65217" lon="5.27136">
        <ele>229</ele>
        <time>2021-07-21T06:28:34Z</time>
      </trkpt>
      <trkpt lat="43.65219" lon="5.27131">
        <ele>229</ele>
        <time>2021-07-21T06:28:35Z</time>
      </trkpt>
      <trkpt lat="43.65221" lon="5.27127">
        <ele>229</ele>
        <time>2021-07-21T06:28:36Z</time>
      </trkpt>
      <trkpt lat="43.65248" lon="5.27072">
        <ele>230</ele>
        <time>2021-07-21T06:28:51Z</time>
      </trkpt>
      <trkpt lat="43.65271" lon="5.27023">
        <ele>229</ele>
        <time>2021-07-21T06:29:03Z</time>
      </trkpt>
      <trkpt lat="43.65276" lon="5.27009">
        <ele>228</ele>
        <time>2021-07-21T06:29:06Z</time>
      </trkpt>
      <trkpt lat="43.65282" lon="5.26991">
        <ele>227</ele>
        <time>2021-07-21T06:29:09Z</time>
      </trkpt>
      <trkpt lat="43.65283" lon="5.26985">
        <ele>226</ele>
        <time>2021-07-21T06:29:10Z</time>
      </trkpt>
      <trkpt lat="43.65285" lon="5.26979">
        <ele>226</ele>
        <time>2021-07-21T06:29:11Z</time>
      </trkpt>
      <trkpt lat="43.65287" lon="5.26973">
        <ele>225</ele>
        <time>2021-07-21T06:29:12Z</time>
      </trkpt>
      <trkpt lat="43.65289" lon="5.26966">
        <ele>224</ele>
        <time>2021-07-21T06:29:13Z</time>
      </trkpt>
      <trkpt lat="43.65295" lon="5.2694">
        <ele>222</ele>
        <time>2021-07-21T06:29:17Z</time>
      </trkpt>
      <trkpt lat="43.653" lon="5.26927">
        <ele>221</ele>
        <time>2021-07-21T06:29:19Z</time>
      </trkpt>
      <trkpt lat="43.65303" lon="5.26922">
        <ele>220</ele>
        <time>2021-07-21T06:29:20Z</time>
      </trkpt>
      <trkpt lat="43.65307" lon="5.26916">
        <ele>220</ele>
        <time>2021-07-21T06:29:21Z</time>
      </trkpt>
      <trkpt lat="43.65345" lon="5.26852">
        <ele>215</ele>
        <time>2021-07-21T06:29:33Z</time>
      </trkpt>
      <trkpt lat="43.65346" lon="5.26851">
        <ele>215</ele>
        <time>2021-07-21T06:29:34Z</time>
      </trkpt>
      <trkpt lat="43.65348" lon="5.26852">
        <ele>215</ele>
        <time>2021-07-21T06:29:35Z</time>
      </trkpt>
      <trkpt lat="43.65349" lon="5.26854">
        <ele>215</ele>
        <time>2021-07-21T06:29:36Z</time>
      </trkpt>
      <trkpt lat="43.65351" lon="5.26856">
        <ele>215</ele>
        <time>2021-07-21T06:29:37Z</time>
      </trkpt>
      <trkpt lat="43.65351" lon="5.2686">
        <ele>215</ele>
        <time>2021-07-21T06:29:38Z</time>
      </trkpt>
      <trkpt lat="43.65352" lon="5.26865">
        <ele>215</ele>
        <time>2021-07-21T06:29:39Z</time>
      </trkpt>
      <trkpt lat="43.65363" lon="5.26902">
        <ele>215</ele>
        <time>2021-07-21T06:29:46Z</time>
      </trkpt>
      <trkpt lat="43.65365" lon="5.26907">
        <ele>215</ele>
        <time>2021-07-21T06:29:47Z</time>
      </trkpt>
      <trkpt lat="43.65385" lon="5.26952">
        <ele>217</ele>
        <time>2021-07-21T06:29:56Z</time>
      </trkpt>
      <trkpt lat="43.65387" lon="5.26957">
        <ele>217</ele>
        <time>2021-07-21T06:29:57Z</time>
      </trkpt>
      <trkpt lat="43.65392" lon="5.2698">
        <ele>217</ele>
        <time>2021-07-21T06:30:01Z</time>
      </trkpt>
      <trkpt lat="43.65395" lon="5.26985">
        <ele>217</ele>
        <time>2021-07-21T06:30:02Z</time>
      </trkpt>
      <trkpt lat="43.65398" lon="5.26989">
        <ele>217</ele>
        <time>2021-07-21T06:30:03Z</time>
      </trkpt>
      <trkpt lat="43.65402" lon="5.26992">
        <ele>217</ele>
        <time>2021-07-21T06:30:04Z</time>
      </trkpt>
      <trkpt lat="43.65407" lon="5.26997">
        <ele>217</ele>
        <time>2021-07-21T06:30:05Z</time>
      </trkpt>
      <trkpt lat="43.65413" lon="5.27004">
        <ele>218</ele>
        <time>2021-07-21T06:30:07Z</time>
      </trkpt>
      <trkpt lat="43.65415" lon="5.27009">
        <ele>217</ele>
        <time>2021-07-21T06:30:08Z</time>
      </trkpt>
      <trkpt lat="43.65416" lon="5.27015">
        <ele>218</ele>
        <time>2021-07-21T06:30:09Z</time>
      </trkpt>
      <trkpt lat="43.65415" lon="5.27021">
        <ele>218</ele>
        <time>2021-07-21T06:30:10Z</time>
      </trkpt>
      <trkpt lat="43.65414" lon="5.27027">
        <ele>218</ele>
        <time>2021-07-21T06:30:11Z</time>
      </trkpt>
      <trkpt lat="43.65412" lon="5.27033">
        <ele>218</ele>
        <time>2021-07-21T06:30:12Z</time>
      </trkpt>
      <trkpt lat="43.65409" lon="5.27038">
        <ele>218</ele>
        <time>2021-07-21T06:30:13Z</time>
      </trkpt>
      <trkpt lat="43.65404" lon="5.27055">
        <ele>218</ele>
        <time>2021-07-21T06:30:16Z</time>
      </trkpt>
      <trkpt lat="43.65403" lon="5.27061">
        <ele>218</ele>
        <time>2021-07-21T06:30:17Z</time>
      </trkpt>
      <trkpt lat="43.65399" lon="5.27176">
        <ele>220</ele>
        <time>2021-07-21T06:30:36Z</time>
      </trkpt>
      <trkpt lat="43.65399" lon="5.27254">
        <ele>221</ele>
        <time>2021-07-21T06:30:49Z</time>
      </trkpt>
      <trkpt lat="43.65399" lon="5.2726">
        <ele>221</ele>
        <time>2021-07-21T06:30:50Z</time>
      </trkpt>
      <trkpt lat="43.65412" lon="5.27315">
        <ele>222</ele>
        <time>2021-07-21T06:31:00Z</time>
      </trkpt>
      <trkpt lat="43.6542" lon="5.27348">
        <ele>222</ele>
        <time>2021-07-21T06:31:06Z</time>
      </trkpt>
      <trkpt lat="43.65443" lon="5.2745">
        <ele>224</ele>
        <time>2021-07-21T06:31:24Z</time>
      </trkpt>
      <trkpt lat="43.65468" lon="5.27552">
        <ele>224</ele>
        <time>2021-07-21T06:31:42Z</time>
      </trkpt>
      <trkpt lat="43.65493" lon="5.27652">
        <ele>224</ele>
        <time>2021-07-21T06:32:00Z</time>
      </trkpt>
      <trkpt lat="43.65519" lon="5.27758">
        <ele>226</ele>
        <time>2021-07-21T06:32:19Z</time>
      </trkpt>
      <trkpt lat="43.65544" lon="5.27868">
        <ele>228</ele>
        <time>2021-07-21T06:32:39Z</time>
      </trkpt>
      <trkpt lat="43.65561" lon="5.27981">
        <ele>228</ele>
        <time>2021-07-21T06:32:59Z</time>
      </trkpt>
      <trkpt lat="43.65562" lon="5.27986">
        <ele>229</ele>
        <time>2021-07-21T06:33:00Z</time>
      </trkpt>
      <trkpt lat="43.65576" lon="5.28086">
        <ele>230</ele>
        <time>2021-07-21T06:33:18Z</time>
      </trkpt>
      <trkpt lat="43.65599" lon="5.28202">
        <ele>232</ele>
        <time>2021-07-21T06:33:38Z</time>
      </trkpt>
      <trkpt lat="43.65636" lon="5.28306">
        <ele>233</ele>
        <time>2021-07-21T06:33:57Z</time>
      </trkpt>
      <trkpt lat="43.65662" lon="5.28381">
        <ele>237</ele>
        <time>2021-07-21T06:34:11Z</time>
      </trkpt>
      <trkpt lat="43.65673" lon="5.28475">
        <ele>238</ele>
        <time>2021-07-21T06:34:27Z</time>
      </trkpt>
      <trkpt lat="43.65686" lon="5.28584">
        <ele>239</ele>
        <time>2021-07-21T06:34:46Z</time>
      </trkpt>
      <trkpt lat="43.65687" lon="5.28619">
        <ele>239</ele>
        <time>2021-07-21T06:34:52Z</time>
      </trkpt>
      <trkpt lat="43.65668" lon="5.2871">
        <ele>240</ele>
        <time>2021-07-21T06:35:08Z</time>
      </trkpt>
      <trkpt lat="43.65633" lon="5.28807">
        <ele>242</ele>
        <time>2021-07-21T06:35:26Z</time>
      </trkpt>
      <trkpt lat="43.65605" lon="5.2891">
        <ele>243</ele>
        <time>2021-07-21T06:35:44Z</time>
      </trkpt>
      <trkpt lat="43.65593" lon="5.28963">
        <ele>246</ele>
        <time>2021-07-21T06:35:53Z</time>
      </trkpt>
      <trkpt lat="43.65593" lon="5.28969">
        <ele>246</ele>
        <time>2021-07-21T06:35:54Z</time>
      </trkpt>
      <trkpt lat="43.65592" lon="5.28975">
        <ele>247</ele>
        <time>2021-07-21T06:35:55Z</time>
      </trkpt>
      <trkpt lat="43.65592" lon="5.28982">
        <ele>247</ele>
        <time>2021-07-21T06:35:56Z</time>
      </trkpt>
      <trkpt lat="43.65592" lon="5.28988">
        <ele>248</ele>
        <time>2021-07-21T06:35:57Z</time>
      </trkpt>
      <trkpt lat="43.65593" lon="5.28994">
        <ele>248</ele>
        <time>2021-07-21T06:35:58Z</time>
      </trkpt>
      <trkpt lat="43.65594" lon="5.29">
        <ele>248</ele>
        <time>2021-07-21T06:35:59Z</time>
      </trkpt>
      <trkpt lat="43.65605" lon="5.29062">
        <ele>250</ele>
        <time>2021-07-21T06:36:09Z</time>
      </trkpt>
      <trkpt lat="43.65606" lon="5.29068">
        <ele>250</ele>
        <time>2021-07-21T06:36:10Z</time>
      </trkpt>
      <trkpt lat="43.65615" lon="5.29114">
        <ele>252</ele>
        <time>2021-07-21T06:36:18Z</time>
      </trkpt>
      <trkpt lat="43.65663" lon="5.29196">
        <ele>249</ele>
        <time>2021-07-21T06:36:35Z</time>
      </trkpt>
      <trkpt lat="43.65747" lon="5.29269">
        <ele>243</ele>
        <time>2021-07-21T06:36:57Z</time>
      </trkpt>
      <trkpt lat="43.65794" lon="5.29337">
        <ele>244</ele>
        <time>2021-07-21T06:37:13Z</time>
      </trkpt>
      <trkpt lat="43.65829" lon="5.29398">
        <ele>246</ele>
        <time>2021-07-21T06:37:27Z</time>
      </trkpt>
      <trkpt lat="43.65857" lon="5.29486">
        <ele>249</ele>
        <time>2021-07-21T06:37:44Z</time>
      </trkpt>
      <trkpt lat="43.65884" lon="5.29604">
        <ele>251</ele>
        <time>2021-07-21T06:38:05Z</time>
      </trkpt>
      <trkpt lat="43.65909" lon="5.29717">
        <ele>252</ele>
        <time>2021-07-21T06:38:25Z</time>
      </trkpt>
      <trkpt lat="43.65926" lon="5.29798">
        <ele>254</ele>
        <time>2021-07-21T06:38:41Z</time>
      </trkpt>
      <trkpt lat="43.65942" lon="5.29875">
        <ele>255</ele>
        <time>2021-07-21T06:38:57Z</time>
      </trkpt>
      <trkpt lat="43.65958" lon="5.29947">
        <ele>257</ele>
        <time>2021-07-21T06:39:12Z</time>
      </trkpt>
      <trkpt lat="43.65978" lon="5.30014">
        <ele>260</ele>
        <time>2021-07-21T06:39:27Z</time>
      </trkpt>
      <trkpt lat="43.66015" lon="5.30068">
        <ele>263</ele>
        <time>2021-07-21T06:39:42Z</time>
      </trkpt>
      <trkpt lat="43.66053" lon="5.30135">
        <ele>266</ele>
        <time>2021-07-21T06:39:59Z</time>
      </trkpt>
      <trkpt lat="43.66055" lon="5.30211">
        <ele>269</ele>
        <time>2021-07-21T06:40:14Z</time>
      </trkpt>
      <trkpt lat="43.66052" lon="5.30305">
        <ele>274</ele>
        <time>2021-07-21T06:40:32Z</time>
      </trkpt>
      <trkpt lat="43.66048" lon="5.30389">
        <ele>273</ele>
        <time>2021-07-21T06:40:48Z</time>
      </trkpt>
      <trkpt lat="43.66052" lon="5.30485">
        <ele>271</ele>
        <time>2021-07-21T06:41:06Z</time>
      </trkpt>
      <trkpt lat="43.66083" lon="5.30583">
        <ele>271</ele>
        <time>2021-07-21T06:41:26Z</time>
      </trkpt>
      <trkpt lat="43.66125" lon="5.30679">
        <ele>272</ele>
        <time>2021-07-21T06:41:47Z</time>
      </trkpt>
      <trkpt lat="43.6617" lon="5.30781">
        <ele>273</ele>
        <time>2021-07-21T06:42:10Z</time>
      </trkpt>
      <trkpt lat="43.6621" lon="5.3087">
        <ele>275</ele>
        <time>2021-07-21T06:42:31Z</time>
      </trkpt>
      <trkpt lat="43.66251" lon="5.30962">
        <ele>277</ele>
        <time>2021-07-21T06:42:52Z</time>
      </trkpt>
      <trkpt lat="43.66294" lon="5.31061">
        <ele>278</ele>
        <time>2021-07-21T06:43:14Z</time>
      </trkpt>
      <trkpt lat="43.66323" lon="5.31145">
        <ele>279</ele>
        <time>2021-07-21T06:43:32Z</time>
      </trkpt>
      <trkpt lat="43.66349" lon="5.31237">
        <ele>280</ele>
        <time>2021-07-21T06:43:51Z</time>
      </trkpt>
      <trkpt lat="43.66372" lon="5.31311">
        <ele>282</ele>
        <time>2021-07-21T06:44:07Z</time>
      </trkpt>
      <trkpt lat="43.66395" lon="5.31386">
        <ele>283</ele>
        <time>2021-07-21T06:44:23Z</time>
      </trkpt>
      <trkpt lat="43.66419" lon="5.31469">
        <ele>284</ele>
        <time>2021-07-21T06:44:40Z</time>
      </trkpt>
      <trkpt lat="43.66448" lon="5.31496">
        <ele>285</ele>
        <time>2021-07-21T06:44:50Z</time>
      </trkpt>
      <trkpt lat="43.66522" lon="5.31519">
        <ele>286</ele>
        <time>2021-07-21T06:45:10Z</time>
      </trkpt>
      <trkpt lat="43.66602" lon="5.31548">
        <ele>286</ele>
        <time>2021-07-21T06:45:32Z</time>
      </trkpt>
      <trkpt lat="43.66659" lon="5.31578">
        <ele>289</ele>
        <time>2021-07-21T06:45:50Z</time>
      </trkpt>
      <trkpt lat="43.66722" lon="5.31618">
        <ele>293</ele>
        <time>2021-07-21T06:46:12Z</time>
      </trkpt>
      <trkpt lat="43.66761" lon="5.31656">
        <ele>297</ele>
        <time>2021-07-21T06:46:28Z</time>
      </trkpt>
      <trkpt lat="43.66802" lon="5.31688">
        <ele>304</ele>
        <time>2021-07-21T06:46:46Z</time>
      </trkpt>
      <trkpt lat="43.66843" lon="5.31711">
        <ele>312</ele>
        <time>2021-07-21T06:47:03Z</time>
      </trkpt>
      <trkpt lat="43.66877" lon="5.31747">
        <ele>322</ele>
        <time>2021-07-21T06:47:19Z</time>
      </trkpt>
      <trkpt lat="43.66912" lon="5.31761">
        <ele>329</ele>
        <time>2021-07-21T06:47:33Z</time>
      </trkpt>
      <trkpt lat="43.66946" lon="5.3175">
        <ele>329</ele>
        <time>2021-07-21T06:47:43Z</time>
      </trkpt>
      <trkpt lat="43.66952" lon="5.31748">
        <ele>328</ele>
        <time>2021-07-21T06:47:44Z</time>
      </trkpt>
      <trkpt lat="43.66958" lon="5.31747">
        <ele>328</ele>
        <time>2021-07-21T06:47:45Z</time>
      </trkpt>
      <trkpt lat="43.67035" lon="5.31757">
        <ele>321</ele>
        <time>2021-07-21T06:47:55Z</time>
      </trkpt>
      <trkpt lat="43.67044" lon="5.31761">
        <ele>321</ele>
        <time>2021-07-21T06:47:56Z</time>
      </trkpt>
      <trkpt lat="43.67052" lon="5.31767">
        <ele>321</ele>
        <time>2021-07-21T06:47:57Z</time>
      </trkpt>
      <trkpt lat="43.67177" lon="5.31837">
        <ele>309</ele>
        <time>2021-07-21T06:48:09Z</time>
      </trkpt>
      <trkpt lat="43.67252" lon="5.31881">
        <ele>302</ele>
        <time>2021-07-21T06:48:16Z</time>
      </trkpt>
      <trkpt lat="43.67262" lon="5.31891">
        <ele>300</ele>
        <time>2021-07-21T06:48:17Z</time>
      </trkpt>
      <trkpt lat="43.6727" lon="5.31901">
        <ele>299</ele>
        <time>2021-07-21T06:48:18Z</time>
      </trkpt>
      <trkpt lat="43.67299" lon="5.31953">
        <ele>291</ele>
        <time>2021-07-21T06:48:22Z</time>
      </trkpt>
      <trkpt lat="43.67304" lon="5.31965">
        <ele>289</ele>
        <time>2021-07-21T06:48:23Z</time>
      </trkpt>
      <trkpt lat="43.67331" lon="5.32083">
        <ele>284</ele>
        <time>2021-07-21T06:48:32Z</time>
      </trkpt>
      <trkpt lat="43.67335" lon="5.32094">
        <ele>284</ele>
        <time>2021-07-21T06:48:33Z</time>
      </trkpt>
      <trkpt lat="43.67339" lon="5.32105">
        <ele>283</ele>
        <time>2021-07-21T06:48:34Z</time>
      </trkpt>
      <trkpt lat="43.67344" lon="5.32115">
        <ele>283</ele>
        <time>2021-07-21T06:48:35Z</time>
      </trkpt>
      <trkpt lat="43.6735" lon="5.32124">
        <ele>283</ele>
        <time>2021-07-21T06:48:36Z</time>
      </trkpt>
      <trkpt lat="43.67429" lon="5.3226">
        <ele>275</ele>
        <time>2021-07-21T06:48:49Z</time>
      </trkpt>
      <trkpt lat="43.67436" lon="5.32274">
        <ele>274</ele>
        <time>2021-07-21T06:48:50Z</time>
      </trkpt>
      <trkpt lat="43.67442" lon="5.32282">
        <ele>273</ele>
        <time>2021-07-21T06:48:51Z</time>
      </trkpt>
      <trkpt lat="43.67451" lon="5.32291">
        <ele>272</ele>
        <time>2021-07-21T06:48:52Z</time>
      </trkpt>
      <trkpt lat="43.6746" lon="5.32297">
        <ele>272</ele>
        <time>2021-07-21T06:48:53Z</time>
      </trkpt>
      <trkpt lat="43.6747" lon="5.32301">
        <ele>271</ele>
        <time>2021-07-21T06:48:54Z</time>
      </trkpt>
      <trkpt lat="43.6748" lon="5.32305">
        <ele>270</ele>
        <time>2021-07-21T06:48:55Z</time>
      </trkpt>
      <trkpt lat="43.67501" lon="5.32315">
        <ele>269</ele>
        <time>2021-07-21T06:48:57Z</time>
      </trkpt>
      <trkpt lat="43.6751" lon="5.32323">
        <ele>268</ele>
        <time>2021-07-21T06:48:58Z</time>
      </trkpt>
      <trkpt lat="43.67519" lon="5.32332">
        <ele>267</ele>
        <time>2021-07-21T06:48:59Z</time>
      </trkpt>
      <trkpt lat="43.67527" lon="5.32343">
        <ele>266</ele>
        <time>2021-07-21T06:49:00Z</time>
      </trkpt>
      <trkpt lat="43.67535" lon="5.32356">
        <ele>266</ele>
        <time>2021-07-21T06:49:01Z</time>
      </trkpt>
      <trkpt lat="43.6754" lon="5.32368">
        <ele>265</ele>
        <time>2021-07-21T06:49:02Z</time>
      </trkpt>
      <trkpt lat="43.67581" lon="5.32454">
        <ele>261</ele>
        <time>2021-07-21T06:49:09Z</time>
      </trkpt>
      <trkpt lat="43.67589" lon="5.32462">
        <ele>261</ele>
        <time>2021-07-21T06:49:10Z</time>
      </trkpt>
      <trkpt lat="43.67597" lon="5.32469">
        <ele>261</ele>
        <time>2021-07-21T06:49:11Z</time>
      </trkpt>
      <trkpt lat="43.67658" lon="5.32506">
        <ele>260</ele>
        <time>2021-07-21T06:49:21Z</time>
      </trkpt>
      <trkpt lat="43.67704" lon="5.32533">
        <ele>261</ele>
        <time>2021-07-21T06:49:34Z</time>
      </trkpt>
      <trkpt lat="43.67763" lon="5.32563">
        <ele>259</ele>
        <time>2021-07-21T06:49:50Z</time>
      </trkpt>
      <trkpt lat="43.67767" lon="5.32566">
        <ele>259</ele>
        <time>2021-07-21T06:49:51Z</time>
      </trkpt>
      <trkpt lat="43.6777" lon="5.32568">
        <ele>258</ele>
        <time>2021-07-21T06:49:52Z</time>
      </trkpt>
      <trkpt lat="43.67848" lon="5.32597">
        <ele>256</ele>
        <time>2021-07-21T06:50:06Z</time>
      </trkpt>
      <trkpt lat="43.67939" lon="5.32613">
        <ele>255</ele>
        <time>2021-07-21T06:50:21Z</time>
      </trkpt>
      <trkpt lat="43.68005" lon="5.3266">
        <ele>254</ele>
        <time>2021-07-21T06:50:35Z</time>
      </trkpt>
      <trkpt lat="43.68048" lon="5.32695">
        <ele>255</ele>
        <time>2021-07-21T06:50:45Z</time>
      </trkpt>
      <trkpt lat="43.68119" lon="5.32756">
        <ele>254</ele>
        <time>2021-07-21T06:51:02Z</time>
      </trkpt>
      <trkpt lat="43.68194" lon="5.32822">
        <ele>253</ele>
        <time>2021-07-21T06:51:20Z</time>
      </trkpt>
      <trkpt lat="43.68254" lon="5.32911">
        <ele>252</ele>
        <time>2021-07-21T06:51:38Z</time>
      </trkpt>
      <trkpt lat="43.68284" lon="5.32962">
        <ele>251</ele>
        <time>2021-07-21T06:51:52Z</time>
      </trkpt>
      <trkpt lat="43.68285" lon="5.32961">
        <ele>252</ele>
        <time>2021-07-21T06:52:15Z</time>
      </trkpt>
      <trkpt lat="43.68293" lon="5.32975">
        <ele>252</ele>
        <time>2021-07-21T06:52:25Z</time>
      </trkpt>
      <trkpt lat="43.68322" lon="5.33021">
        <ele>251</ele>
        <time>2021-07-21T06:52:37Z</time>
      </trkpt>
      <trkpt lat="43.68367" lon="5.33098">
        <ele>249</ele>
        <time>2021-07-21T06:52:51Z</time>
      </trkpt>
      <trkpt lat="43.6838" lon="5.33113">
        <ele>249</ele>
        <time>2021-07-21T06:52:54Z</time>
      </trkpt>
      <trkpt lat="43.684" lon="5.3313">
        <ele>248</ele>
        <time>2021-07-21T06:52:58Z</time>
      </trkpt>
      <trkpt lat="43.6841" lon="5.33136">
        <ele>248</ele>
        <time>2021-07-21T06:53:00Z</time>
      </trkpt>
      <trkpt lat="43.68434" lon="5.33144">
        <ele>248</ele>
        <time>2021-07-21T06:53:04Z</time>
      </trkpt>
      <trkpt lat="43.68441" lon="5.33145">
        <ele>248</ele>
        <time>2021-07-21T06:53:05Z</time>
      </trkpt>
      <trkpt lat="43.68547" lon="5.33143">
        <ele>249</ele>
        <time>2021-07-21T06:53:21Z</time>
      </trkpt>
      <trkpt lat="43.68554" lon="5.33145">
        <ele>249</ele>
        <time>2021-07-21T06:53:22Z</time>
      </trkpt>
      <trkpt lat="43.6856" lon="5.33149">
        <ele>249</ele>
        <time>2021-07-21T06:53:23Z</time>
      </trkpt>
      <trkpt lat="43.68566" lon="5.33154">
        <ele>249</ele>
        <time>2021-07-21T06:53:24Z</time>
      </trkpt>
      <trkpt lat="43.68572" lon="5.33161">
        <ele>249</ele>
        <time>2021-07-21T06:53:25Z</time>
      </trkpt>
      <trkpt lat="43.68575" lon="5.33169">
        <ele>249</ele>
        <time>2021-07-21T06:53:26Z</time>
      </trkpt>
      <trkpt lat="43.68577" lon="5.33178">
        <ele>248</ele>
        <time>2021-07-21T06:53:27Z</time>
      </trkpt>
      <trkpt lat="43.68577" lon="5.33187">
        <ele>248</ele>
        <time>2021-07-21T06:53:28Z</time>
      </trkpt>
      <trkpt lat="43.68576" lon="5.33196">
        <ele>248</ele>
        <time>2021-07-21T06:53:29Z</time>
      </trkpt>
      <trkpt lat="43.68575" lon="5.33205">
        <ele>247</ele>
        <time>2021-07-21T06:53:30Z</time>
      </trkpt>
      <trkpt lat="43.68556" lon="5.33342">
        <ele>245</ele>
        <time>2021-07-21T06:53:45Z</time>
      </trkpt>
      <trkpt lat="43.68552" lon="5.33371">
        <ele>245</ele>
        <time>2021-07-21T06:53:48Z</time>
      </trkpt>
      <trkpt lat="43.68552" lon="5.33381">
        <ele>245</ele>
        <time>2021-07-21T06:53:49Z</time>
      </trkpt>
      <trkpt lat="43.68553" lon="5.33391">
        <ele>245</ele>
        <time>2021-07-21T06:53:50Z</time>
      </trkpt>
      <trkpt lat="43.68554" lon="5.334">
        <ele>245</ele>
        <time>2021-07-21T06:53:51Z</time>
      </trkpt>
      <trkpt lat="43.68557" lon="5.33409">
        <ele>245</ele>
        <time>2021-07-21T06:53:52Z</time>
      </trkpt>
      <trkpt lat="43.68561" lon="5.33418">
        <ele>245</ele>
        <time>2021-07-21T06:53:53Z</time>
      </trkpt>
      <trkpt lat="43.68567" lon="5.33425">
        <ele>245</ele>
        <time>2021-07-21T06:53:54Z</time>
      </trkpt>
      <trkpt lat="43.68573" lon="5.33431">
        <ele>245</ele>
        <time>2021-07-21T06:53:55Z</time>
      </trkpt>
      <trkpt lat="43.68581" lon="5.33435">
        <ele>244</ele>
        <time>2021-07-21T06:53:56Z</time>
      </trkpt>
      <trkpt lat="43.68589" lon="5.33436">
        <ele>244</ele>
        <time>2021-07-21T06:53:57Z</time>
      </trkpt>
      <trkpt lat="43.68597" lon="5.33435">
        <ele>244</ele>
        <time>2021-07-21T06:53:58Z</time>
      </trkpt>
      <trkpt lat="43.68606" lon="5.33433">
        <ele>243</ele>
        <time>2021-07-21T06:53:59Z</time>
      </trkpt>
      <trkpt lat="43.68614" lon="5.33429">
        <ele>243</ele>
        <time>2021-07-21T06:54:00Z</time>
      </trkpt>
      <trkpt lat="43.68621" lon="5.33424">
        <ele>242</ele>
        <time>2021-07-21T06:54:01Z</time>
      </trkpt>
      <trkpt lat="43.68627" lon="5.33419">
        <ele>242</ele>
        <time>2021-07-21T06:54:02Z</time>
      </trkpt>
      <trkpt lat="43.68634" lon="5.33413">
        <ele>241</ele>
        <time>2021-07-21T06:54:03Z</time>
      </trkpt>
      <trkpt lat="43.68733" lon="5.33313">
        <ele>234</ele>
        <time>2021-07-21T06:54:19Z</time>
      </trkpt>
      <trkpt lat="43.68748" lon="5.33298">
        <ele>232</ele>
        <time>2021-07-21T06:54:22Z</time>
      </trkpt>
      <trkpt lat="43.68752" lon="5.33296">
        <ele>231</ele>
        <time>2021-07-21T06:54:23Z</time>
      </trkpt>
      <trkpt lat="43.68754" lon="5.33294">
        <ele>230</ele>
        <time>2021-07-21T06:54:24Z</time>
      </trkpt>
      <trkpt lat="43.68758" lon="5.33291">
        <ele>228</ele>
        <time>2021-07-21T06:54:34Z</time>
      </trkpt>
      <trkpt lat="43.68758" lon="5.33289">
        <ele>226</ele>
        <time>2021-07-21T06:54:54Z</time>
      </trkpt>
      <trkpt lat="43.68758" lon="5.33288">
        <ele>226</ele>
        <time>2021-07-21T06:55:11Z</time>
      </trkpt>
      <trkpt lat="43.68759" lon="5.33288">
        <ele>225</ele>
        <time>2021-07-21T06:55:34Z</time>
      </trkpt>
      <trkpt lat="43.68759" lon="5.33288">
        <ele>225</ele>
        <time>2021-07-21T06:56:09Z</time>
      </trkpt>
      <trkpt lat="43.68757" lon="5.3329">
        <ele>225</ele>
        <time>2021-07-21T06:56:25Z</time>
      </trkpt>
      <trkpt lat="43.68758" lon="5.33289">
        <ele>225</ele>
        <time>2021-07-21T06:56:50Z</time>
      </trkpt>
      <trkpt lat="43.68759" lon="5.33289">
        <ele>224</ele>
        <time>2021-07-21T06:57:17Z</time>
      </trkpt>
      <trkpt lat="43.68759" lon="5.33288">
        <ele>226</ele>
        <time>2021-07-21T06:57:40Z</time>
      </trkpt>
      <trkpt lat="43.68759" lon="5.33288">
        <ele>227</ele>
        <time>2021-07-21T06:58:10Z</time>
      </trkpt>
      <trkpt lat="43.68759" lon="5.33287">
        <ele>227</ele>
        <time>2021-07-21T06:58:30Z</time>
      </trkpt>
      <trkpt lat="43.68759" lon="5.33287">
        <ele>228</ele>
        <time>2021-07-21T06:58:50Z</time>
      </trkpt>
      <trkpt lat="43.68759" lon="5.33285">
        <ele>228</ele>
        <time>2021-07-21T06:59:10Z</time>
      </trkpt>
      <trkpt lat="43.68759" lon="5.33286">
        <ele>226</ele>
        <time>2021-07-21T06:59:36Z</time>
      </trkpt>
      <trkpt lat="43.68758" lon="5.33286">
        <ele>226</ele>
        <time>2021-07-21T07:00:02Z</time>
      </trkpt>
      <trkpt lat="43.68759" lon="5.33288">
        <ele>225</ele>
        <time>2021-07-21T07:00:28Z</time>
      </trkpt>
      <trkpt lat="43.6876" lon="5.33288">
        <ele>223</ele>
        <time>2021-07-21T07:00:50Z</time>
      </trkpt>
      <trkpt lat="43.6876" lon="5.33286">
        <ele>223</ele>
        <time>2021-07-21T07:01:11Z</time>
      </trkpt>
      <trkpt lat="43.6876" lon="5.33285">
        <ele>223</ele>
        <time>2021-07-21T07:01:12Z</time>
      </trkpt>
      <trkpt lat="43.68762" lon="5.33284">
        <ele>223</ele>
        <time>2021-07-21T07:01:13Z</time>
      </trkpt>
      <trkpt lat="43.68795" lon="5.33277">
        <ele>222</ele>
        <time>2021-07-21T07:01:24Z</time>
      </trkpt>
      <trkpt lat="43.688" lon="5.33278">
        <ele>221</ele>
        <time>2021-07-21T07:01:25Z</time>
      </trkpt>
      <trkpt lat="43.68804" lon="5.3328">
        <ele>221</ele>
        <time>2021-07-21T07:01:26Z</time>
      </trkpt>
      <trkpt lat="43.68814" lon="5.33287">
        <ele>221</ele>
        <time>2021-07-21T07:01:28Z</time>
      </trkpt>
      <trkpt lat="43.68882" lon="5.33353">
        <ele>216</ele>
        <time>2021-07-21T07:01:42Z</time>
      </trkpt>
      <trkpt lat="43.68983" lon="5.33451">
        <ele>215</ele>
        <time>2021-07-21T07:02:02Z</time>
      </trkpt>
      <trkpt lat="43.69084" lon="5.33538">
        <ele>211</ele>
        <time>2021-07-21T07:02:22Z</time>
      </trkpt>
      <trkpt lat="43.69197" lon="5.33609">
        <ele>209</ele>
        <time>2021-07-21T07:02:43Z</time>
      </trkpt>
      <trkpt lat="43.69305" lon="5.33675">
        <ele>208</ele>
        <time>2021-07-21T07:03:03Z</time>
      </trkpt>
      <trkpt lat="43.69394" lon="5.33734">
        <ele>208</ele>
        <time>2021-07-21T07:03:20Z</time>
      </trkpt>
      <trkpt lat="43.69505" lon="5.33827">
        <ele>205</ele>
        <time>2021-07-21T07:03:43Z</time>
      </trkpt>
      <trkpt lat="43.69596" lon="5.33926">
        <ele>203</ele>
        <time>2021-07-21T07:04:04Z</time>
      </trkpt>
      <trkpt lat="43.69662" lon="5.33997">
        <ele>202</ele>
        <time>2021-07-21T07:04:19Z</time>
      </trkpt>
      <trkpt lat="43.69696" lon="5.34038">
        <ele>201</ele>
        <time>2021-07-21T07:04:27Z</time>
      </trkpt>
      <trkpt lat="43.697" lon="5.34044">
        <ele>201</ele>
        <time>2021-07-21T07:04:28Z</time>
      </trkpt>
      <trkpt lat="43.69702" lon="5.34052">
        <ele>201</ele>
        <time>2021-07-21T07:04:29Z</time>
      </trkpt>
      <trkpt lat="43.69704" lon="5.3406">
        <ele>201</ele>
        <time>2021-07-21T07:04:30Z</time>
      </trkpt>
      <trkpt lat="43.69705" lon="5.34068">
        <ele>201</ele>
        <time>2021-07-21T07:04:31Z</time>
      </trkpt>
      <trkpt lat="43.69706" lon="5.34076">
        <ele>201</ele>
        <time>2021-07-21T07:04:32Z</time>
      </trkpt>
      <trkpt lat="43.69705" lon="5.34083">
        <ele>201</ele>
        <time>2021-07-21T07:04:33Z</time>
      </trkpt>
      <trkpt lat="43.69704" lon="5.34091">
        <ele>201</ele>
        <time>2021-07-21T07:04:34Z</time>
      </trkpt>
      <trkpt lat="43.69702" lon="5.34097">
        <ele>201</ele>
        <time>2021-07-21T07:04:35Z</time>
      </trkpt>
      <trkpt lat="43.69699" lon="5.34104">
        <ele>201</ele>
        <time>2021-07-21T07:04:36Z</time>
      </trkpt>
      <trkpt lat="43.69696" lon="5.3411">
        <ele>201</ele>
        <time>2021-07-21T07:04:37Z</time>
      </trkpt>
      <trkpt lat="43.6965" lon="5.34212">
        <ele>202</ele>
        <time>2021-07-21T07:04:54Z</time>
      </trkpt>
      <trkpt lat="43.69604" lon="5.34313">
        <ele>202</ele>
        <time>2021-07-21T07:05:13Z</time>
      </trkpt>
      <trkpt lat="43.69566" lon="5.34396">
        <ele>203</ele>
        <time>2021-07-21T07:05:31Z</time>
      </trkpt>
      <trkpt lat="43.69548" lon="5.34451">
        <ele>204</ele>
        <time>2021-07-21T07:05:43Z</time>
      </trkpt>
      <trkpt lat="43.69551" lon="5.34457">
        <ele>204</ele>
        <time>2021-07-21T07:05:45Z</time>
      </trkpt>
      <trkpt lat="43.69556" lon="5.34463">
        <ele>204</ele>
        <time>2021-07-21T07:05:46Z</time>
      </trkpt>
      <trkpt lat="43.69637" lon="5.3454">
        <ele>202</ele>
        <time>2021-07-21T07:06:04Z</time>
      </trkpt>
      <trkpt lat="43.69752" lon="5.34613">
        <ele>198</ele>
        <time>2021-07-21T07:06:23Z</time>
      </trkpt>
      <trkpt lat="43.69875" lon="5.34701">
        <ele>195</ele>
        <time>2021-07-21T07:06:43Z</time>
      </trkpt>
      <trkpt lat="43.70005" lon="5.34764">
        <ele>191</ele>
        <time>2021-07-21T07:07:04Z</time>
      </trkpt>
      <trkpt lat="43.70121" lon="5.34811">
        <ele>189</ele>
        <time>2021-07-21T07:07:24Z</time>
      </trkpt>
      <trkpt lat="43.70229" lon="5.34858">
        <ele>189</ele>
        <time>2021-07-21T07:07:43Z</time>
      </trkpt>
      <trkpt lat="43.70242" lon="5.34871">
        <ele>189</ele>
        <time>2021-07-21T07:07:46Z</time>
      </trkpt>
      <trkpt lat="43.70246" lon="5.34875">
        <ele>189</ele>
        <time>2021-07-21T07:07:47Z</time>
      </trkpt>
      <trkpt lat="43.7025" lon="5.34881">
        <ele>189</ele>
        <time>2021-07-21T07:07:48Z</time>
      </trkpt>
      <trkpt lat="43.70282" lon="5.34928">
        <ele>188</ele>
        <time>2021-07-21T07:07:58Z</time>
      </trkpt>
      <trkpt lat="43.70331" lon="5.35004">
        <ele>190</ele>
        <time>2021-07-21T07:08:14Z</time>
      </trkpt>
      <trkpt lat="43.70391" lon="5.35078">
        <ele>190</ele>
        <time>2021-07-21T07:08:32Z</time>
      </trkpt>
      <trkpt lat="43.70447" lon="5.35131">
        <ele>192</ele>
        <time>2021-07-21T07:08:48Z</time>
      </trkpt>
      <trkpt lat="43.70489" lon="5.35172">
        <ele>192</ele>
        <time>2021-07-21T07:09:02Z</time>
      </trkpt>
      <trkpt lat="43.70544" lon="5.35224">
        <ele>196</ele>
        <time>2021-07-21T07:09:19Z</time>
      </trkpt>
      <trkpt lat="43.70547" lon="5.35229">
        <ele>196</ele>
        <time>2021-07-21T07:09:20Z</time>
      </trkpt>
      <trkpt lat="43.70549" lon="5.35233">
        <ele>196</ele>
        <time>2021-07-21T07:09:21Z</time>
      </trkpt>
      <trkpt lat="43.70553" lon="5.35292">
        <ele>196</ele>
        <time>2021-07-21T07:09:33Z</time>
      </trkpt>
      <trkpt lat="43.70543" lon="5.35331">
        <ele>195</ele>
        <time>2021-07-21T07:09:43Z</time>
      </trkpt>
      <trkpt lat="43.70536" lon="5.35346">
        <ele>197</ele>
        <time>2021-07-21T07:09:54Z</time>
      </trkpt>
      <trkpt lat="43.70534" lon="5.35352">
        <ele>197</ele>
        <time>2021-07-21T07:10:15Z</time>
      </trkpt>
      <trkpt lat="43.70533" lon="5.35356">
        <ele>197</ele>
        <time>2021-07-21T07:10:16Z</time>
      </trkpt>
      <trkpt lat="43.70508" lon="5.3542">
        <ele>198</ele>
        <time>2021-07-21T07:10:28Z</time>
      </trkpt>
      <trkpt lat="43.70475" lon="5.35502">
        <ele>198</ele>
        <time>2021-07-21T07:10:40Z</time>
      </trkpt>
      <trkpt lat="43.70455" lon="5.35563">
        <ele>197</ele>
        <time>2021-07-21T07:10:48Z</time>
      </trkpt>
      <trkpt lat="43.70454" lon="5.3557">
        <ele>197</ele>
        <time>2021-07-21T07:10:49Z</time>
      </trkpt>
      <trkpt lat="43.70455" lon="5.35586">
        <ele>197</ele>
        <time>2021-07-21T07:10:51Z</time>
      </trkpt>
      <trkpt lat="43.70455" lon="5.35592">
        <ele>197</ele>
        <time>2021-07-21T07:10:52Z</time>
      </trkpt>
      <trkpt lat="43.7046" lon="5.3561">
        <ele>197</ele>
        <time>2021-07-21T07:10:55Z</time>
      </trkpt>
      <trkpt lat="43.70472" lon="5.35645">
        <ele>196</ele>
        <time>2021-07-21T07:11:04Z</time>
      </trkpt>
      <trkpt lat="43.70473" lon="5.35644">
        <ele>193</ele>
        <time>2021-07-21T07:11:19Z</time>
      </trkpt>
      <trkpt lat="43.70474" lon="5.35648">
        <ele>193</ele>
        <time>2021-07-21T07:11:44Z</time>
      </trkpt>
      <trkpt lat="43.70473" lon="5.3565">
        <ele>193</ele>
        <time>2021-07-21T07:11:46Z</time>
      </trkpt>
      <trkpt lat="43.70473" lon="5.35652">
        <ele>193</ele>
        <time>2021-07-21T07:11:47Z</time>
      </trkpt>
      <trkpt lat="43.70472" lon="5.35653">
        <ele>193</ele>
        <time>2021-07-21T07:11:48Z</time>
      </trkpt>
      <trkpt lat="43.7047" lon="5.35656">
        <ele>193</ele>
        <time>2021-07-21T07:11:49Z</time>
      </trkpt>
      <trkpt lat="43.70469" lon="5.35659">
        <ele>192</ele>
        <time>2021-07-21T07:11:50Z</time>
      </trkpt>
      <trkpt lat="43.70468" lon="5.35663">
        <ele>192</ele>
        <time>2021-07-21T07:11:51Z</time>
      </trkpt>
      <trkpt lat="43.70469" lon="5.35667">
        <ele>192</ele>
        <time>2021-07-21T07:11:52Z</time>
      </trkpt>
      <trkpt lat="43.7047" lon="5.35673">
        <ele>192</ele>
        <time>2021-07-21T07:11:53Z</time>
      </trkpt>
      <trkpt lat="43.70471" lon="5.35678">
        <ele>192</ele>
        <time>2021-07-21T07:11:54Z</time>
      </trkpt>
      <trkpt lat="43.70473" lon="5.35683">
        <ele>192</ele>
        <time>2021-07-21T07:11:55Z</time>
      </trkpt>
      <trkpt lat="43.70475" lon="5.35688">
        <ele>192</ele>
        <time>2021-07-21T07:11:56Z</time>
      </trkpt>
      <trkpt lat="43.70495" lon="5.35749">
        <ele>192</ele>
        <time>2021-07-21T07:12:06Z</time>
      </trkpt>
      <trkpt lat="43.70498" lon="5.35754">
        <ele>192</ele>
        <time>2021-07-21T07:12:07Z</time>
      </trkpt>
      <trkpt lat="43.70502" lon="5.35759">
        <ele>192</ele>
        <time>2021-07-21T07:12:08Z</time>
      </trkpt>
      <trkpt lat="43.70505" lon="5.35764">
        <ele>192</ele>
        <time>2021-07-21T07:12:09Z</time>
      </trkpt>
      <trkpt lat="43.7051" lon="5.35768">
        <ele>192</ele>
        <time>2021-07-21T07:12:10Z</time>
      </trkpt>
      <trkpt lat="43.70513" lon="5.35772">
        <ele>192</ele>
        <time>2021-07-21T07:12:11Z</time>
      </trkpt>
      <trkpt lat="43.70518" lon="5.35775">
        <ele>192</ele>
        <time>2021-07-21T07:12:12Z</time>
      </trkpt>
      <trkpt lat="43.70522" lon="5.35778">
        <ele>192</ele>
        <time>2021-07-21T07:12:13Z</time>
      </trkpt>
      <trkpt lat="43.70526" lon="5.35779">
        <ele>192</ele>
        <time>2021-07-21T07:12:14Z</time>
      </trkpt>
      <trkpt lat="43.70543" lon="5.35783">
        <ele>192</ele>
        <time>2021-07-21T07:12:18Z</time>
      </trkpt>
      <trkpt lat="43.70548" lon="5.35783">
        <ele>192</ele>
        <time>2021-07-21T07:12:19Z</time>
      </trkpt>
      <trkpt lat="43.70552" lon="5.35782">
        <ele>192</ele>
        <time>2021-07-21T07:12:20Z</time>
      </trkpt>
      <trkpt lat="43.70557" lon="5.3578">
        <ele>192</ele>
        <time>2021-07-21T07:12:21Z</time>
      </trkpt>
      <trkpt lat="43.70561" lon="5.35777">
        <ele>192</ele>
        <time>2021-07-21T07:12:22Z</time>
      </trkpt>
      <trkpt lat="43.70566" lon="5.35775">
        <ele>192</ele>
        <time>2021-07-21T07:12:23Z</time>
      </trkpt>
      <trkpt lat="43.7057" lon="5.35771">
        <ele>192</ele>
        <time>2021-07-21T07:12:24Z</time>
      </trkpt>
      <trkpt lat="43.70624" lon="5.3574">
        <ele>192</ele>
        <time>2021-07-21T07:12:39Z</time>
      </trkpt>
      <trkpt lat="43.70628" lon="5.3574">
        <ele>191</ele>
        <time>2021-07-21T07:12:43Z</time>
      </trkpt>
      <trkpt lat="43.7063" lon="5.35739">
        <ele>191</ele>
        <time>2021-07-21T07:12:44Z</time>
      </trkpt>
      <trkpt lat="43.70632" lon="5.35739">
        <ele>191</ele>
        <time>2021-07-21T07:12:45Z</time>
      </trkpt>
      <trkpt lat="43.70681" lon="5.35752">
        <ele>191</ele>
        <time>2021-07-21T07:12:58Z</time>
      </trkpt>
      <trkpt lat="43.70685" lon="5.35756">
        <ele>191</ele>
        <time>2021-07-21T07:12:59Z</time>
      </trkpt>
      <trkpt lat="43.70689" lon="5.35762">
        <ele>190</ele>
        <time>2021-07-21T07:13:00Z</time>
      </trkpt>
      <trkpt lat="43.7069" lon="5.35768">
        <ele>190</ele>
        <time>2021-07-21T07:13:01Z</time>
      </trkpt>
      <trkpt lat="43.70692" lon="5.35776">
        <ele>190</ele>
        <time>2021-07-21T07:13:02Z</time>
      </trkpt>
      <trkpt lat="43.70693" lon="5.35784">
        <ele>190</ele>
        <time>2021-07-21T07:13:03Z</time>
      </trkpt>
      <trkpt lat="43.70693" lon="5.35792">
        <ele>189</ele>
        <time>2021-07-21T07:13:04Z</time>
      </trkpt>
      <trkpt lat="43.70694" lon="5.358">
        <ele>189</ele>
        <time>2021-07-21T07:13:05Z</time>
      </trkpt>
      <trkpt lat="43.70694" lon="5.3591">
        <ele>185</ele>
        <time>2021-07-21T07:13:17Z</time>
      </trkpt>
      <trkpt lat="43.70684" lon="5.35961">
        <ele>182</ele>
        <time>2021-07-21T07:13:22Z</time>
      </trkpt>
      <trkpt lat="43.70684" lon="5.35971">
        <ele>181</ele>
        <time>2021-07-21T07:13:23Z</time>
      </trkpt>
      <trkpt lat="43.70684" lon="5.35981">
        <ele>181</ele>
        <time>2021-07-21T07:13:24Z</time>
      </trkpt>
      <trkpt lat="43.70686" lon="5.35991">
        <ele>181</ele>
        <time>2021-07-21T07:13:25Z</time>
      </trkpt>
      <trkpt lat="43.70689" lon="5.36001">
        <ele>181</ele>
        <time>2021-07-21T07:13:26Z</time>
      </trkpt>
      <trkpt lat="43.70694" lon="5.36011">
        <ele>180</ele>
        <time>2021-07-21T07:13:27Z</time>
      </trkpt>
      <trkpt lat="43.707" lon="5.36019">
        <ele>180</ele>
        <time>2021-07-21T07:13:28Z</time>
      </trkpt>
      <trkpt lat="43.70705" lon="5.36024">
        <ele>179</ele>
        <time>2021-07-21T07:13:29Z</time>
      </trkpt>
      <trkpt lat="43.70712" lon="5.36028">
        <ele>179</ele>
        <time>2021-07-21T07:13:30Z</time>
      </trkpt>
      <trkpt lat="43.70719" lon="5.36032">
        <ele>179</ele>
        <time>2021-07-21T07:13:31Z</time>
      </trkpt>
      <trkpt lat="43.70727" lon="5.36033">
        <ele>178</ele>
        <time>2021-07-21T07:13:32Z</time>
      </trkpt>
      <trkpt lat="43.70735" lon="5.36034">
        <ele>178</ele>
        <time>2021-07-21T07:13:33Z</time>
      </trkpt>
      <trkpt lat="43.70742" lon="5.36033">
        <ele>178</ele>
        <time>2021-07-21T07:13:34Z</time>
      </trkpt>
      <trkpt lat="43.7075" lon="5.36032">
        <ele>177</ele>
        <time>2021-07-21T07:13:35Z</time>
      </trkpt>
      <trkpt lat="43.70766" lon="5.3603">
        <ele>177</ele>
        <time>2021-07-21T07:13:37Z</time>
      </trkpt>
      <trkpt lat="43.70773" lon="5.36031">
        <ele>176</ele>
        <time>2021-07-21T07:13:38Z</time>
      </trkpt>
      <trkpt lat="43.70781" lon="5.36032">
        <ele>176</ele>
        <time>2021-07-21T07:13:39Z</time>
      </trkpt>
      <trkpt lat="43.70788" lon="5.36036">
        <ele>176</ele>
        <time>2021-07-21T07:13:40Z</time>
      </trkpt>
      <trkpt lat="43.70794" lon="5.3604">
        <ele>175</ele>
        <time>2021-07-21T07:13:41Z</time>
      </trkpt>
      <trkpt lat="43.70801" lon="5.36047">
        <ele>175</ele>
        <time>2021-07-21T07:13:42Z</time>
      </trkpt>
      <trkpt lat="43.70809" lon="5.36055">
        <ele>175</ele>
        <time>2021-07-21T07:13:43Z</time>
      </trkpt>
      <trkpt lat="43.70848" lon="5.36114">
        <ele>172</ele>
        <time>2021-07-21T07:13:51Z</time>
      </trkpt>
      <trkpt lat="43.70852" lon="5.36123">
        <ele>172</ele>
        <time>2021-07-21T07:13:52Z</time>
      </trkpt>
      <trkpt lat="43.70855" lon="5.36131">
        <ele>172</ele>
        <time>2021-07-21T07:13:53Z</time>
      </trkpt>
      <trkpt lat="43.70857" lon="5.3614">
        <ele>171</ele>
        <time>2021-07-21T07:13:54Z</time>
      </trkpt>
      <trkpt lat="43.70859" lon="5.36148">
        <ele>171</ele>
        <time>2021-07-21T07:13:55Z</time>
      </trkpt>
      <trkpt lat="43.70861" lon="5.36157">
        <ele>171</ele>
        <time>2021-07-21T07:13:56Z</time>
      </trkpt>
      <trkpt lat="43.70874" lon="5.36223">
        <ele>167</ele>
        <time>2021-07-21T07:14:07Z</time>
      </trkpt>
      <trkpt lat="43.70859" lon="5.36238">
        <ele>167</ele>
        <time>2021-07-21T07:14:13Z</time>
      </trkpt>
      <trkpt lat="43.70855" lon="5.36241">
        <ele>167</ele>
        <time>2021-07-21T07:14:14Z</time>
      </trkpt>
      <trkpt lat="43.70852" lon="5.36245">
        <ele>168</ele>
        <time>2021-07-21T07:14:15Z</time>
      </trkpt>
      <trkpt lat="43.70798" lon="5.36287">
        <ele>169</ele>
        <time>2021-07-21T07:14:30Z</time>
      </trkpt>
      <trkpt lat="43.70795" lon="5.36292">
        <ele>169</ele>
        <time>2021-07-21T07:14:31Z</time>
      </trkpt>
      <trkpt lat="43.70794" lon="5.36298">
        <ele>169</ele>
        <time>2021-07-21T07:14:32Z</time>
      </trkpt>
      <trkpt lat="43.70795" lon="5.36304">
        <ele>169</ele>
        <time>2021-07-21T07:14:33Z</time>
      </trkpt>
      <trkpt lat="43.70797" lon="5.36309">
        <ele>169</ele>
        <time>2021-07-21T07:14:34Z</time>
      </trkpt>
      <trkpt lat="43.708" lon="5.36313">
        <ele>170</ele>
        <time>2021-07-21T07:14:35Z</time>
      </trkpt>
      <trkpt lat="43.70803" lon="5.36318">
        <ele>169</ele>
        <time>2021-07-21T07:14:36Z</time>
      </trkpt>
      <trkpt lat="43.70856" lon="5.36385">
        <ele>168</ele>
        <time>2021-07-21T07:14:49Z</time>
      </trkpt>
      <trkpt lat="43.70951" lon="5.36456">
        <ele>166</ele>
        <time>2021-07-21T07:15:06Z</time>
      </trkpt>
      <trkpt lat="43.71052" lon="5.36508">
        <ele>167</ele>
        <time>2021-07-21T07:15:24Z</time>
      </trkpt>
      <trkpt lat="43.71183" lon="5.36576">
        <ele>167</ele>
        <time>2021-07-21T07:15:47Z</time>
      </trkpt>
      <trkpt lat="43.7125" lon="5.36619">
        <ele>166</ele>
        <time>2021-07-21T07:15:59Z</time>
      </trkpt>
      <trkpt lat="43.71312" lon="5.36711">
        <ele>164</ele>
        <time>2021-07-21T07:16:13Z</time>
      </trkpt>
      <trkpt lat="43.71361" lon="5.3684">
        <ele>163</ele>
        <time>2021-07-21T07:16:30Z</time>
      </trkpt>
      <trkpt lat="43.71403" lon="5.36956">
        <ele>162</ele>
        <time>2021-07-21T07:16:46Z</time>
      </trkpt>
      <trkpt lat="43.71449" lon="5.37084">
        <ele>162</ele>
        <time>2021-07-21T07:17:04Z</time>
      </trkpt>
      <trkpt lat="43.71495" lon="5.37212">
        <ele>159</ele>
        <time>2021-07-21T07:17:22Z</time>
      </trkpt>
      <trkpt lat="43.71547" lon="5.37355">
        <ele>158</ele>
        <time>2021-07-21T07:17:42Z</time>
      </trkpt>
      <trkpt lat="43.71609" lon="5.37503">
        <ele>160</ele>
        <time>2021-07-21T07:18:04Z</time>
      </trkpt>
      <trkpt lat="43.71627" lon="5.37538">
        <ele>161</ele>
        <time>2021-07-21T07:18:11Z</time>
      </trkpt>
      <trkpt lat="43.71626" lon="5.37542">
        <ele>161</ele>
        <time>2021-07-21T07:18:12Z</time>
      </trkpt>
      <trkpt lat="43.71624" lon="5.37545">
        <ele>161</ele>
        <time>2021-07-21T07:18:13Z</time>
      </trkpt>
      <trkpt lat="43.71622" lon="5.37546">
        <ele>161</ele>
        <time>2021-07-21T07:18:14Z</time>
      </trkpt>
      <trkpt lat="43.71619" lon="5.37548">
        <ele>161</ele>
        <time>2021-07-21T07:18:15Z</time>
      </trkpt>
      <trkpt lat="43.71617" lon="5.37549">
        <ele>161</ele>
        <time>2021-07-21T07:18:16Z</time>
      </trkpt>
      <trkpt lat="43.71614" lon="5.37549">
        <ele>162</ele>
        <time>2021-07-21T07:18:17Z</time>
      </trkpt>
      <trkpt lat="43.71612" lon="5.3755">
        <ele>162</ele>
        <time>2021-07-21T07:18:18Z</time>
      </trkpt>
      <trkpt lat="43.71609" lon="5.3755">
        <ele>162</ele>
        <time>2021-07-21T07:18:19Z</time>
      </trkpt>
      <trkpt lat="43.71607" lon="5.37551">
        <ele>162</ele>
        <time>2021-07-21T07:18:20Z</time>
      </trkpt>
      <trkpt lat="43.71605" lon="5.3755">
        <ele>163</ele>
        <time>2021-07-21T07:18:21Z</time>
      </trkpt>
      <trkpt lat="43.71602" lon="5.3755">
        <ele>163</ele>
        <time>2021-07-21T07:18:22Z</time>
      </trkpt>
      <trkpt lat="43.7155" lon="5.3755">
        <ele>164</ele>
        <time>2021-07-21T07:18:36Z</time>
      </trkpt>
      <trkpt lat="43.71492" lon="5.37554">
        <ele>162</ele>
        <time>2021-07-21T07:18:50Z</time>
      </trkpt>
      <trkpt lat="43.71486" lon="5.37577">
        <ele>161</ele>
        <time>2021-07-21T07:18:56Z</time>
      </trkpt>
      <trkpt lat="43.71484" lon="5.37601">
        <ele>160</ele>
        <time>2021-07-21T07:19:00Z</time>
      </trkpt>
      <trkpt lat="43.71484" lon="5.37619">
        <ele>160</ele>
        <time>2021-07-21T07:19:03Z</time>
      </trkpt>
      <trkpt lat="43.71483" lon="5.37676">
        <ele>160</ele>
        <time>2021-07-21T07:19:16Z</time>
      </trkpt>
      <trkpt lat="43.71477" lon="5.37744">
        <ele>162</ele>
        <time>2021-07-21T07:19:29Z</time>
      </trkpt>
      <trkpt lat="43.71457" lon="5.37866">
        <ele>162</ele>
        <time>2021-07-21T07:19:48Z</time>
      </trkpt>
      <trkpt lat="43.71454" lon="5.37878">
        <ele>162</ele>
        <time>2021-07-21T07:19:50Z</time>
      </trkpt>
      <trkpt lat="43.71426" lon="5.37975">
        <ele>163</ele>
        <time>2021-07-21T07:20:06Z</time>
      </trkpt>
      <trkpt lat="43.714" lon="5.38046">
        <ele>163</ele>
        <time>2021-07-21T07:20:20Z</time>
      </trkpt>
      <trkpt lat="43.71402" lon="5.38049">
        <ele>163</ele>
        <time>2021-07-21T07:20:21Z</time>
      </trkpt>
      <trkpt lat="43.71405" lon="5.38052">
        <ele>163</ele>
        <time>2021-07-21T07:20:22Z</time>
      </trkpt>
      <trkpt lat="43.71408" lon="5.38055">
        <ele>163</ele>
        <time>2021-07-21T07:20:23Z</time>
      </trkpt>
      <trkpt lat="43.71411" lon="5.38058">
        <ele>163</ele>
        <time>2021-07-21T07:20:24Z</time>
      </trkpt>
      <trkpt lat="43.71415" lon="5.38061">
        <ele>163</ele>
        <time>2021-07-21T07:20:25Z</time>
      </trkpt>
      <trkpt lat="43.71481" lon="5.38135">
        <ele>163</ele>
        <time>2021-07-21T07:20:44Z</time>
      </trkpt>
      <trkpt lat="43.71493" lon="5.38155">
        <ele>163</ele>
        <time>2021-07-21T07:20:52Z</time>
      </trkpt>
      <trkpt lat="43.71492" lon="5.38158">
        <ele>163</ele>
        <time>2021-07-21T07:20:53Z</time>
      </trkpt>
      <trkpt lat="43.71491" lon="5.3816">
        <ele>163</ele>
        <time>2021-07-21T07:20:54Z</time>
      </trkpt>
      <trkpt lat="43.71488" lon="5.38163">
        <ele>163</ele>
        <time>2021-07-21T07:20:55Z</time>
      </trkpt>
      <trkpt lat="43.71485" lon="5.38166">
        <ele>163</ele>
        <time>2021-07-21T07:20:56Z</time>
      </trkpt>
      <trkpt lat="43.71477" lon="5.38177">
        <ele>163</ele>
        <time>2021-07-21T07:20:59Z</time>
      </trkpt>
      <trkpt lat="43.71471" lon="5.38186">
        <ele>163</ele>
        <time>2021-07-21T07:21:01Z</time>
      </trkpt>
      <trkpt lat="43.71469" lon="5.38191">
        <ele>163</ele>
        <time>2021-07-21T07:21:02Z</time>
      </trkpt>
      <trkpt lat="43.71425" lon="5.38281">
        <ele>163</ele>
        <time>2021-07-21T07:21:19Z</time>
      </trkpt>
      <trkpt lat="43.71391" lon="5.38395">
        <ele>163</ele>
        <time>2021-07-21T07:21:37Z</time>
      </trkpt>
      <trkpt lat="43.71376" lon="5.38441">
        <ele>162</ele>
        <time>2021-07-21T07:21:46Z</time>
      </trkpt>
      <trkpt lat="43.7133" lon="5.3851">
        <ele>163</ele>
        <time>2021-07-21T07:22:02Z</time>
      </trkpt>
      <trkpt lat="43.71289" lon="5.38549">
        <ele>165</ele>
        <time>2021-07-21T07:22:13Z</time>
      </trkpt>
      <trkpt lat="43.71285" lon="5.38553">
        <ele>165</ele>
        <time>2021-07-21T07:22:14Z</time>
      </trkpt>
      <trkpt lat="43.71282" lon="5.38557">
        <ele>165</ele>
        <time>2021-07-21T07:22:15Z</time>
      </trkpt>
      <trkpt lat="43.7128" lon="5.38562">
        <ele>165</ele>
        <time>2021-07-21T07:22:16Z</time>
      </trkpt>
      <trkpt lat="43.71277" lon="5.38568">
        <ele>165</ele>
        <time>2021-07-21T07:22:17Z</time>
      </trkpt>
      <trkpt lat="43.71252" lon="5.38654">
        <ele>166</ele>
        <time>2021-07-21T07:22:32Z</time>
      </trkpt>
      <trkpt lat="43.71225" lon="5.38746">
        <ele>165</ele>
        <time>2021-07-21T07:22:48Z</time>
      </trkpt>
      <trkpt lat="43.71208" lon="5.3879">
        <ele>165</ele>
        <time>2021-07-21T07:22:56Z</time>
      </trkpt>
      <trkpt lat="43.71207" lon="5.38796">
        <ele>165</ele>
        <time>2021-07-21T07:22:57Z</time>
      </trkpt>
      <trkpt lat="43.71188" lon="5.38892">
        <ele>165</ele>
        <time>2021-07-21T07:23:13Z</time>
      </trkpt>
      <trkpt lat="43.71161" lon="5.39006">
        <ele>165</ele>
        <time>2021-07-21T07:23:32Z</time>
      </trkpt>
      <trkpt lat="43.71129" lon="5.39142">
        <ele>165</ele>
        <time>2021-07-21T07:23:56Z</time>
      </trkpt>
      <trkpt lat="43.71092" lon="5.39201">
        <ele>166</ele>
        <time>2021-07-21T07:24:10Z</time>
      </trkpt>
      <trkpt lat="43.71029" lon="5.39263">
        <ele>167</ele>
        <time>2021-07-21T07:24:29Z</time>
      </trkpt>
      <trkpt lat="43.71027" lon="5.39268">
        <ele>167</ele>
        <time>2021-07-21T07:24:30Z</time>
      </trkpt>
      <trkpt lat="43.71012" lon="5.39345">
        <ele>168</ele>
        <time>2021-07-21T07:24:45Z</time>
      </trkpt>
      <trkpt lat="43.71029" lon="5.39444">
        <ele>167</ele>
        <time>2021-07-21T07:25:02Z</time>
      </trkpt>
      <trkpt lat="43.7105" lon="5.39565">
        <ele>167</ele>
        <time>2021-07-21T07:25:23Z</time>
      </trkpt>
      <trkpt lat="43.71065" lon="5.39657">
        <ele>167</ele>
        <time>2021-07-21T07:25:39Z</time>
      </trkpt>
      <trkpt lat="43.71075" lon="5.39716">
        <ele>166</ele>
        <time>2021-07-21T07:25:49Z</time>
      </trkpt>
      <trkpt lat="43.71076" lon="5.39721">
        <ele>166</ele>
        <time>2021-07-21T07:25:50Z</time>
      </trkpt>
      <trkpt lat="43.71078" lon="5.39727">
        <ele>166</ele>
        <time>2021-07-21T07:25:51Z</time>
      </trkpt>
      <trkpt lat="43.71078" lon="5.39733">
        <ele>167</ele>
        <time>2021-07-21T07:25:52Z</time>
      </trkpt>
      <trkpt lat="43.71079" lon="5.39738">
        <ele>167</ele>
        <time>2021-07-21T07:25:53Z</time>
      </trkpt>
      <trkpt lat="43.71097" lon="5.39839">
        <ele>167</ele>
        <time>2021-07-21T07:26:10Z</time>
      </trkpt>
      <trkpt lat="43.711" lon="5.39857">
        <ele>167</ele>
        <time>2021-07-21T07:26:13Z</time>
      </trkpt>
      <trkpt lat="43.71105" lon="5.39886">
        <ele>166</ele>
        <time>2021-07-21T07:26:18Z</time>
      </trkpt>
      <trkpt lat="43.71107" lon="5.39904">
        <ele>166</ele>
        <time>2021-07-21T07:26:21Z</time>
      </trkpt>
      <trkpt lat="43.71122" lon="5.39996">
        <ele>167</ele>
        <time>2021-07-21T07:26:37Z</time>
      </trkpt>
      <trkpt lat="43.71123" lon="5.40002">
        <ele>167</ele>
        <time>2021-07-21T07:26:38Z</time>
      </trkpt>
      <trkpt lat="43.71124" lon="5.40008">
        <ele>167</ele>
        <time>2021-07-21T07:26:39Z</time>
      </trkpt>
      <trkpt lat="43.71129" lon="5.40038">
        <ele>167</ele>
        <time>2021-07-21T07:26:44Z</time>
      </trkpt>
      <trkpt lat="43.71145" lon="5.40137">
        <ele>168</ele>
        <time>2021-07-21T07:27:01Z</time>
      </trkpt>
      <trkpt lat="43.71155" lon="5.40195">
        <ele>168</ele>
        <time>2021-07-21T07:27:11Z</time>
      </trkpt>
      <trkpt lat="43.7117" lon="5.40277">
        <ele>168</ele>
        <time>2021-07-21T07:27:26Z</time>
      </trkpt>
      <trkpt lat="43.71182" lon="5.4035">
        <ele>169</ele>
        <time>2021-07-21T07:27:40Z</time>
      </trkpt>
      <trkpt lat="43.71195" lon="5.40427">
        <ele>170</ele>
        <time>2021-07-21T07:27:55Z</time>
      </trkpt>
      <trkpt lat="43.71209" lon="5.40511">
        <ele>169</ele>
        <time>2021-07-21T07:28:11Z</time>
      </trkpt>
      <trkpt lat="43.7122" lon="5.4058">
        <ele>169</ele>
        <time>2021-07-21T07:28:27Z</time>
      </trkpt>
      <trkpt lat="43.71221" lon="5.40584">
        <ele>169</ele>
        <time>2021-07-21T07:28:39Z</time>
      </trkpt>
      <trkpt lat="43.71222" lon="5.40585">
        <ele>171</ele>
        <time>2021-07-21T07:29:01Z</time>
      </trkpt>
      <trkpt lat="43.71222" lon="5.40588">
        <ele>174</ele>
        <time>2021-07-21T07:29:31Z</time>
      </trkpt>
      <trkpt lat="43.71223" lon="5.40591">
        <ele>173</ele>
        <time>2021-07-21T07:29:33Z</time>
      </trkpt>
      <trkpt lat="43.71224" lon="5.40596">
        <ele>173</ele>
        <time>2021-07-21T07:29:35Z</time>
      </trkpt>
      <trkpt lat="43.71224" lon="5.40598">
        <ele>174</ele>
        <time>2021-07-21T07:29:36Z</time>
      </trkpt>
      <trkpt lat="43.71224" lon="5.406">
        <ele>174</ele>
        <time>2021-07-21T07:29:37Z</time>
      </trkpt>
      <trkpt lat="43.71225" lon="5.40602">
        <ele>174</ele>
        <time>2021-07-21T07:29:38Z</time>
      </trkpt>
      <trkpt lat="43.71225" lon="5.40604">
        <ele>174</ele>
        <time>2021-07-21T07:29:39Z</time>
      </trkpt>
      <trkpt lat="43.71228" lon="5.40613">
        <ele>175</ele>
        <time>2021-07-21T07:29:52Z</time>
      </trkpt>
      <trkpt lat="43.71229" lon="5.40615">
        <ele>174</ele>
        <time>2021-07-21T07:29:53Z</time>
      </trkpt>
      <trkpt lat="43.71229" lon="5.40617">
        <ele>174</ele>
        <time>2021-07-21T07:29:54Z</time>
      </trkpt>
      <trkpt lat="43.7123" lon="5.4062">
        <ele>174</ele>
        <time>2021-07-21T07:29:55Z</time>
      </trkpt>
      <trkpt lat="43.71231" lon="5.40623">
        <ele>174</ele>
        <time>2021-07-21T07:29:56Z</time>
      </trkpt>
      <trkpt lat="43.71232" lon="5.40625">
        <ele>174</ele>
        <time>2021-07-21T07:29:57Z</time>
      </trkpt>
      <trkpt lat="43.71232" lon="5.40629">
        <ele>174</ele>
        <time>2021-07-21T07:30:10Z</time>
      </trkpt>
      <trkpt lat="43.71234" lon="5.4065">
        <ele>174</ele>
        <time>2021-07-21T07:30:25Z</time>
      </trkpt>
      <trkpt lat="43.71245" lon="5.40716">
        <ele>173</ele>
        <time>2021-07-21T07:30:38Z</time>
      </trkpt>
      <trkpt lat="43.7125" lon="5.40746">
        <ele>173</ele>
        <time>2021-07-21T07:30:49Z</time>
      </trkpt>
      <trkpt lat="43.71263" lon="5.40809">
        <ele>171</ele>
        <time>2021-07-21T07:31:04Z</time>
      </trkpt>
      <trkpt lat="43.7127" lon="5.40866">
        <ele>172</ele>
        <time>2021-07-21T07:31:20Z</time>
      </trkpt>
      <trkpt lat="43.71292" lon="5.40959">
        <ele>173</ele>
        <time>2021-07-21T07:31:36Z</time>
      </trkpt>
      <trkpt lat="43.71318" lon="5.41052">
        <ele>174</ele>
        <time>2021-07-21T07:31:53Z</time>
      </trkpt>
      <trkpt lat="43.7132" lon="5.41057">
        <ele>173</ele>
        <time>2021-07-21T07:31:54Z</time>
      </trkpt>
      <trkpt lat="43.71323" lon="5.41061">
        <ele>173</ele>
        <time>2021-07-21T07:31:55Z</time>
      </trkpt>
      <trkpt lat="43.71327" lon="5.41065">
        <ele>173</ele>
        <time>2021-07-21T07:31:56Z</time>
      </trkpt>
      <trkpt lat="43.71331" lon="5.41068">
        <ele>173</ele>
        <time>2021-07-21T07:31:57Z</time>
      </trkpt>
      <trkpt lat="43.71335" lon="5.41071">
        <ele>173</ele>
        <time>2021-07-21T07:31:58Z</time>
      </trkpt>
      <trkpt lat="43.7138" lon="5.41104">
        <ele>173</ele>
        <time>2021-07-21T07:32:11Z</time>
      </trkpt>
      <trkpt lat="43.71378" lon="5.41143">
        <ele>174</ele>
        <time>2021-07-21T07:32:19Z</time>
      </trkpt>
      <trkpt lat="43.71365" lon="5.41214">
        <ele>175</ele>
        <time>2021-07-21T07:32:34Z</time>
      </trkpt>
      <trkpt lat="43.71381" lon="5.41279">
        <ele>174</ele>
        <time>2021-07-21T07:32:50Z</time>
      </trkpt>
      <trkpt lat="43.71371" lon="5.41323">
        <ele>175</ele>
        <time>2021-07-21T07:33:02Z</time>
      </trkpt>
      <trkpt lat="43.71351" lon="5.41395">
        <ele>176</ele>
        <time>2021-07-21T07:33:16Z</time>
      </trkpt>
      <trkpt lat="43.71328" lon="5.41492">
        <ele>176</ele>
        <time>2021-07-21T07:33:33Z</time>
      </trkpt>
      <trkpt lat="43.71304" lon="5.4158">
        <ele>175</ele>
        <time>2021-07-21T07:33:49Z</time>
      </trkpt>
      <trkpt lat="43.7127" lon="5.41689">
        <ele>175</ele>
        <time>2021-07-21T07:34:09Z</time>
      </trkpt>
      <trkpt lat="43.71241" lon="5.41785">
        <ele>176</ele>
        <time>2021-07-21T07:34:26Z</time>
      </trkpt>
      <trkpt lat="43.71208" lon="5.41897">
        <ele>175</ele>
        <time>2021-07-21T07:34:46Z</time>
      </trkpt>
      <trkpt lat="43.71169" lon="5.41991">
        <ele>176</ele>
        <time>2021-07-21T07:35:05Z</time>
      </trkpt>
      <trkpt lat="43.71158" lon="5.42014">
        <ele>176</ele>
        <time>2021-07-21T07:35:11Z</time>
      </trkpt>
      <trkpt lat="43.71159" lon="5.42019">
        <ele>176</ele>
        <time>2021-07-21T07:35:12Z</time>
      </trkpt>
      <trkpt lat="43.71161" lon="5.42023">
        <ele>176</ele>
        <time>2021-07-21T07:35:13Z</time>
      </trkpt>
      <trkpt lat="43.71165" lon="5.42026">
        <ele>176</ele>
        <time>2021-07-21T07:35:14Z</time>
      </trkpt>
      <trkpt lat="43.71168" lon="5.42027">
        <ele>176</ele>
        <time>2021-07-21T07:35:15Z</time>
      </trkpt>
      <trkpt lat="43.71172" lon="5.42027">
        <ele>176</ele>
        <time>2021-07-21T07:35:16Z</time>
      </trkpt>
      <trkpt lat="43.71177" lon="5.42025">
        <ele>176</ele>
        <time>2021-07-21T07:35:17Z</time>
      </trkpt>
      <trkpt lat="43.7118" lon="5.42023">
        <ele>176</ele>
        <time>2021-07-21T07:35:18Z</time>
      </trkpt>
      <trkpt lat="43.71185" lon="5.42019">
        <ele>176</ele>
        <time>2021-07-21T07:35:19Z</time>
      </trkpt>
      <trkpt lat="43.71188" lon="5.42017">
        <ele>176</ele>
        <time>2021-07-21T07:35:20Z</time>
      </trkpt>
      <trkpt lat="43.71192" lon="5.42013">
        <ele>176</ele>
        <time>2021-07-21T07:35:21Z</time>
      </trkpt>
      <trkpt lat="43.71204" lon="5.42007">
        <ele>176</ele>
        <time>2021-07-21T07:35:24Z</time>
      </trkpt>
      <trkpt lat="43.71212" lon="5.42005">
        <ele>176</ele>
        <time>2021-07-21T07:35:26Z</time>
      </trkpt>
      <trkpt lat="43.71216" lon="5.42006">
        <ele>176</ele>
        <time>2021-07-21T07:35:27Z</time>
      </trkpt>
      <trkpt lat="43.7122" lon="5.42007">
        <ele>176</ele>
        <time>2021-07-21T07:35:28Z</time>
      </trkpt>
      <trkpt lat="43.71224" lon="5.42009">
        <ele>176</ele>
        <time>2021-07-21T07:35:29Z</time>
      </trkpt>
      <trkpt lat="43.71228" lon="5.42011">
        <ele>176</ele>
        <time>2021-07-21T07:35:30Z</time>
      </trkpt>
      <trkpt lat="43.71231" lon="5.42014">
        <ele>176</ele>
        <time>2021-07-21T07:35:31Z</time>
      </trkpt>
      <trkpt lat="43.71235" lon="5.42017">
        <ele>177</ele>
        <time>2021-07-21T07:35:32Z</time>
      </trkpt>
      <trkpt lat="43.71306" lon="5.42078">
        <ele>177</ele>
        <time>2021-07-21T07:35:53Z</time>
      </trkpt>
      <trkpt lat="43.71375" lon="5.42133">
        <ele>178</ele>
        <time>2021-07-21T07:36:13Z</time>
      </trkpt>
      <trkpt lat="43.71403" lon="5.42155">
        <ele>178</ele>
        <time>2021-07-21T07:36:21Z</time>
      </trkpt>
      <trkpt lat="43.71469" lon="5.42206">
        <ele>179</ele>
        <time>2021-07-21T07:36:40Z</time>
      </trkpt>
      <trkpt lat="43.715" lon="5.42239">
        <ele>179</ele>
        <time>2021-07-21T07:36:53Z</time>
      </trkpt>
      <trkpt lat="43.71501" lon="5.42243">
        <ele>179</ele>
        <time>2021-07-21T07:36:54Z</time>
      </trkpt>
      <trkpt lat="43.71501" lon="5.42247">
        <ele>179</ele>
        <time>2021-07-21T07:36:55Z</time>
      </trkpt>
      <trkpt lat="43.715" lon="5.42252">
        <ele>179</ele>
        <time>2021-07-21T07:36:56Z</time>
      </trkpt>
      <trkpt lat="43.71499" lon="5.42257">
        <ele>179</ele>
        <time>2021-07-21T07:36:57Z</time>
      </trkpt>
      <trkpt lat="43.71498" lon="5.42261">
        <ele>179</ele>
        <time>2021-07-21T07:36:58Z</time>
      </trkpt>
      <trkpt lat="43.71496" lon="5.42265">
        <ele>179</ele>
        <time>2021-07-21T07:36:59Z</time>
      </trkpt>
      <trkpt lat="43.71494" lon="5.4227">
        <ele>179</ele>
        <time>2021-07-21T07:37:00Z</time>
      </trkpt>
      <trkpt lat="43.71469" lon="5.42329">
        <ele>179</ele>
        <time>2021-07-21T07:37:13Z</time>
      </trkpt>
      <trkpt lat="43.71432" lon="5.42408">
        <ele>180</ele>
        <time>2021-07-21T07:37:30Z</time>
      </trkpt>
      <trkpt lat="43.71403" lon="5.42478">
        <ele>181</ele>
        <time>2021-07-21T07:37:45Z</time>
      </trkpt>
      <trkpt lat="43.71378" lon="5.42534">
        <ele>182</ele>
        <time>2021-07-21T07:37:57Z</time>
      </trkpt>
      <trkpt lat="43.71343" lon="5.42592">
        <ele>181</ele>
        <time>2021-07-21T07:38:11Z</time>
      </trkpt>
      <trkpt lat="43.71344" lon="5.42601">
        <ele>181</ele>
        <time>2021-07-21T07:38:13Z</time>
      </trkpt>
      <trkpt lat="43.71346" lon="5.42605">
        <ele>181</ele>
        <time>2021-07-21T07:38:14Z</time>
      </trkpt>
      <trkpt lat="43.7135" lon="5.42608">
        <ele>181</ele>
        <time>2021-07-21T07:38:15Z</time>
      </trkpt>
      <trkpt lat="43.7136" lon="5.42616">
        <ele>181</ele>
        <time>2021-07-21T07:38:18Z</time>
      </trkpt>
      <trkpt lat="43.71363" lon="5.4262">
        <ele>181</ele>
        <time>2021-07-21T07:38:19Z</time>
      </trkpt>
      <trkpt lat="43.71416" lon="5.42681">
        <ele>181</ele>
        <time>2021-07-21T07:38:37Z</time>
      </trkpt>
      <trkpt lat="43.7147" lon="5.4274">
        <ele>183</ele>
        <time>2021-07-21T07:38:55Z</time>
      </trkpt>
      <trkpt lat="43.71514" lon="5.42788">
        <ele>185</ele>
        <time>2021-07-21T07:39:11Z</time>
      </trkpt>
      <trkpt lat="43.71565" lon="5.42844">
        <ele>185</ele>
        <time>2021-07-21T07:39:28Z</time>
      </trkpt>
      <trkpt lat="43.71619" lon="5.42882">
        <ele>185</ele>
        <time>2021-07-21T07:39:44Z</time>
      </trkpt>
      <trkpt lat="43.71679" lon="5.42923">
        <ele>185</ele>
        <time>2021-07-21T07:40:01Z</time>
      </trkpt>
      <trkpt lat="43.71749" lon="5.42974">
        <ele>186</ele>
        <time>2021-07-21T07:40:22Z</time>
      </trkpt>
      <trkpt lat="43.71819" lon="5.43022">
        <ele>188</ele>
        <time>2021-07-21T07:40:43Z</time>
      </trkpt>
      <trkpt lat="43.71862" lon="5.43085">
        <ele>188</ele>
        <time>2021-07-21T07:41:00Z</time>
      </trkpt>
      <trkpt lat="43.71891" lon="5.43144">
        <ele>188</ele>
        <time>2021-07-21T07:41:14Z</time>
      </trkpt>
      <trkpt lat="43.71929" lon="5.43223">
        <ele>189</ele>
        <time>2021-07-21T07:41:32Z</time>
      </trkpt>
      <trkpt lat="43.71971" lon="5.43312">
        <ele>190</ele>
        <time>2021-07-21T07:41:52Z</time>
      </trkpt>
      <trkpt lat="43.72011" lon="5.43393">
        <ele>191</ele>
        <time>2021-07-21T07:42:11Z</time>
      </trkpt>
      <trkpt lat="43.72047" lon="5.43441">
        <ele>192</ele>
        <time>2021-07-21T07:42:26Z</time>
      </trkpt>
      <trkpt lat="43.72087" lon="5.43479">
        <ele>191</ele>
        <time>2021-07-21T07:42:40Z</time>
      </trkpt>
      <trkpt lat="43.72146" lon="5.43545">
        <ele>190</ele>
        <time>2021-07-21T07:43:00Z</time>
      </trkpt>
      <trkpt lat="43.72195" lon="5.43602">
        <ele>194</ele>
        <time>2021-07-21T07:43:17Z</time>
      </trkpt>
      <trkpt lat="43.72232" lon="5.43648">
        <ele>196</ele>
        <time>2021-07-21T07:43:31Z</time>
      </trkpt>
      <trkpt lat="43.72275" lon="5.43699">
        <ele>197</ele>
        <time>2021-07-21T07:43:47Z</time>
      </trkpt>
      <trkpt lat="43.72324" lon="5.43761">
        <ele>199</ele>
        <time>2021-07-21T07:44:05Z</time>
      </trkpt>
      <trkpt lat="43.72372" lon="5.43821">
        <ele>199</ele>
        <time>2021-07-21T07:44:21Z</time>
      </trkpt>
      <trkpt lat="43.72434" lon="5.43895">
        <ele>199</ele>
        <time>2021-07-21T07:44:41Z</time>
      </trkpt>
      <trkpt lat="43.72485" lon="5.43961">
        <ele>199</ele>
        <time>2021-07-21T07:44:59Z</time>
      </trkpt>
      <trkpt lat="43.72528" lon="5.44039">
        <ele>201</ele>
        <time>2021-07-21T07:45:18Z</time>
      </trkpt>
      <trkpt lat="43.72575" lon="5.4412">
        <ele>203</ele>
        <time>2021-07-21T07:45:39Z</time>
      </trkpt>
      <trkpt lat="43.72585" lon="5.44133">
        <ele>203</ele>
        <time>2021-07-21T07:45:50Z</time>
      </trkpt>
      <trkpt lat="43.72588" lon="5.44135">
        <ele>202</ele>
        <time>2021-07-21T07:46:09Z</time>
      </trkpt>
      <trkpt lat="43.72589" lon="5.44135">
        <ele>202</ele>
        <time>2021-07-21T07:46:10Z</time>
      </trkpt>
      <trkpt lat="43.7259" lon="5.44136">
        <ele>202</ele>
        <time>2021-07-21T07:46:11Z</time>
      </trkpt>
      <trkpt lat="43.72592" lon="5.44137">
        <ele>202</ele>
        <time>2021-07-21T07:46:12Z</time>
      </trkpt>
      <trkpt lat="43.72594" lon="5.4414">
        <ele>202</ele>
        <time>2021-07-21T07:46:13Z</time>
      </trkpt>
      <trkpt lat="43.72634" lon="5.44182">
        <ele>203</ele>
        <time>2021-07-21T07:46:26Z</time>
      </trkpt>
      <trkpt lat="43.72675" lon="5.44224">
        <ele>205</ele>
        <time>2021-07-21T07:46:38Z</time>
      </trkpt>
      <trkpt lat="43.72695" lon="5.44244">
        <ele>206</ele>
        <time>2021-07-21T07:46:44Z</time>
      </trkpt>
      <trkpt lat="43.72699" lon="5.44248">
        <ele>206</ele>
        <time>2021-07-21T07:46:45Z</time>
      </trkpt>
      <trkpt lat="43.72701" lon="5.44253">
        <ele>206</ele>
        <time>2021-07-21T07:46:46Z</time>
      </trkpt>
      <trkpt lat="43.72707" lon="5.44265">
        <ele>206</ele>
        <time>2021-07-21T07:46:48Z</time>
      </trkpt>
      <trkpt lat="43.72709" lon="5.44268">
        <ele>206</ele>
        <time>2021-07-21T07:46:49Z</time>
      </trkpt>
      <trkpt lat="43.72714" lon="5.44285">
        <ele>206</ele>
        <time>2021-07-21T07:46:52Z</time>
      </trkpt>
      <trkpt lat="43.72738" lon="5.44405">
        <ele>207</ele>
        <time>2021-07-21T07:47:13Z</time>
      </trkpt>
      <trkpt lat="43.72745" lon="5.44441">
        <ele>207</ele>
        <time>2021-07-21T07:47:19Z</time>
      </trkpt>
      <trkpt lat="43.72798" lon="5.44572">
        <ele>208</ele>
        <time>2021-07-21T07:47:44Z</time>
      </trkpt>
      <trkpt lat="43.72852" lon="5.44697">
        <ele>209</ele>
        <time>2021-07-21T07:48:08Z</time>
      </trkpt>
      <trkpt lat="43.72893" lon="5.44801">
        <ele>211</ele>
        <time>2021-07-21T07:48:29Z</time>
      </trkpt>
      <trkpt lat="43.72902" lon="5.44826">
        <ele>211</ele>
        <time>2021-07-21T07:48:34Z</time>
      </trkpt>
      <trkpt lat="43.72932" lon="5.449">
        <ele>212</ele>
        <time>2021-07-21T07:48:49Z</time>
      </trkpt>
      <trkpt lat="43.72978" lon="5.44967">
        <ele>215</ele>
        <time>2021-07-21T07:49:05Z</time>
      </trkpt>
      <trkpt lat="43.73022" lon="5.45061">
        <ele>217</ele>
        <time>2021-07-21T07:49:24Z</time>
      </trkpt>
      <trkpt lat="43.73062" lon="5.45152">
        <ele>219</ele>
        <time>2021-07-21T07:49:42Z</time>
      </trkpt>
      <trkpt lat="43.73071" lon="5.45173">
        <ele>219</ele>
        <time>2021-07-21T07:49:46Z</time>
      </trkpt>
      <trkpt lat="43.73073" lon="5.45178">
        <ele>219</ele>
        <time>2021-07-21T07:49:47Z</time>
      </trkpt>
      <trkpt lat="43.73113" lon="5.45262">
        <ele>219</ele>
        <time>2021-07-21T07:50:05Z</time>
      </trkpt>
      <trkpt lat="43.7314" lon="5.45297">
        <ele>220</ele>
        <time>2021-07-21T07:50:18Z</time>
      </trkpt>
      <trkpt lat="43.73144" lon="5.45297">
        <ele>221</ele>
        <time>2021-07-21T07:50:27Z</time>
      </trkpt>
      <trkpt lat="43.73145" lon="5.45298">
        <ele>221</ele>
        <time>2021-07-21T07:50:37Z</time>
      </trkpt>
      <trkpt lat="43.73145" lon="5.45295">
        <ele>223</ele>
        <time>2021-07-21T07:51:10Z</time>
      </trkpt>
      <trkpt lat="43.73143" lon="5.45295">
        <ele>223</ele>
        <time>2021-07-21T07:51:39Z</time>
      </trkpt>
      <trkpt lat="43.73142" lon="5.45296">
        <ele>224</ele>
        <time>2021-07-21T07:52:25Z</time>
      </trkpt>
      <trkpt lat="43.73144" lon="5.45298">
        <ele>221</ele>
        <time>2021-07-21T07:52:57Z</time>
      </trkpt>
      <trkpt lat="43.73146" lon="5.45301">
        <ele>222</ele>
        <time>2021-07-21T07:53:24Z</time>
      </trkpt>
      <trkpt lat="43.73142" lon="5.45297">
        <ele>224</ele>
        <time>2021-07-21T07:53:53Z</time>
      </trkpt>
      <trkpt lat="43.73147" lon="5.45296">
        <ele>222</ele>
        <time>2021-07-21T07:54:20Z</time>
      </trkpt>
      <trkpt lat="43.73144" lon="5.45298">
        <ele>220</ele>
        <time>2021-07-21T07:54:53Z</time>
      </trkpt>
      <trkpt lat="43.73145" lon="5.45301">
        <ele>217</ele>
        <time>2021-07-21T07:55:21Z</time>
      </trkpt>
      <trkpt lat="43.73147" lon="5.45299">
        <ele>219</ele>
        <time>2021-07-21T07:55:43Z</time>
      </trkpt>
      <trkpt lat="43.7315" lon="5.45299">
        <ele>220</ele>
        <time>2021-07-21T07:55:48Z</time>
      </trkpt>
      <trkpt lat="43.73152" lon="5.453">
        <ele>220</ele>
        <time>2021-07-21T07:55:49Z</time>
      </trkpt>
      <trkpt lat="43.73196" lon="5.45314">
        <ele>221</ele>
        <time>2021-07-21T07:56:01Z</time>
      </trkpt>
      <trkpt lat="43.732" lon="5.45315">
        <ele>221</ele>
        <time>2021-07-21T07:56:02Z</time>
      </trkpt>
      <trkpt lat="43.73267" lon="5.45346">
        <ele>220</ele>
        <time>2021-07-21T07:56:18Z</time>
      </trkpt>
      <trkpt lat="43.73283" lon="5.45354">
        <ele>219</ele>
        <time>2021-07-21T07:56:22Z</time>
      </trkpt>
      <trkpt lat="43.73291" lon="5.45358">
        <ele>219</ele>
        <time>2021-07-21T07:56:24Z</time>
      </trkpt>
      <trkpt lat="43.73295" lon="5.4536">
        <ele>219</ele>
        <time>2021-07-21T07:56:25Z</time>
      </trkpt>
      <trkpt lat="43.73346" lon="5.45416">
        <ele>219</ele>
        <time>2021-07-21T07:56:41Z</time>
      </trkpt>
      <trkpt lat="43.73392" lon="5.45505">
        <ele>220</ele>
        <time>2021-07-21T07:57:00Z</time>
      </trkpt>
      <trkpt lat="43.73439" lon="5.45595">
        <ele>222</ele>
        <time>2021-07-21T07:57:20Z</time>
      </trkpt>
      <trkpt lat="43.73483" lon="5.4568">
        <ele>224</ele>
        <time>2021-07-21T07:57:40Z</time>
      </trkpt>
      <trkpt lat="43.73505" lon="5.45772">
        <ele>227</ele>
        <time>2021-07-21T07:57:59Z</time>
      </trkpt>
      <trkpt lat="43.73524" lon="5.45865">
        <ele>229</ele>
        <time>2021-07-21T07:58:18Z</time>
      </trkpt>
      <trkpt lat="43.7354" lon="5.45951">
        <ele>231</ele>
        <time>2021-07-21T07:58:36Z</time>
      </trkpt>
      <trkpt lat="43.73571" lon="5.46023">
        <ele>234</ele>
        <time>2021-07-21T07:58:53Z</time>
      </trkpt>
      <trkpt lat="43.73601" lon="5.46057">
        <ele>235</ele>
        <time>2021-07-21T07:59:08Z</time>
      </trkpt>
      <trkpt lat="43.73604" lon="5.46059">
        <ele>236</ele>
        <time>2021-07-21T07:59:27Z</time>
      </trkpt>
      <trkpt lat="43.73635" lon="5.46067">
        <ele>235</ele>
        <time>2021-07-21T07:59:37Z</time>
      </trkpt>
      <trkpt lat="43.73673" lon="5.46068">
        <ele>234</ele>
        <time>2021-07-21T07:59:50Z</time>
      </trkpt>
      <trkpt lat="43.73673" lon="5.4607">
        <ele>237</ele>
        <time>2021-07-21T08:00:05Z</time>
      </trkpt>
      <trkpt lat="43.73674" lon="5.46069">
        <ele>236</ele>
        <time>2021-07-21T08:00:39Z</time>
      </trkpt>
      <trkpt lat="43.73673" lon="5.46067">
        <ele>238</ele>
        <time>2021-07-21T08:01:02Z</time>
      </trkpt>
      <trkpt lat="43.73675" lon="5.46066">
        <ele>237</ele>
        <time>2021-07-21T08:01:05Z</time>
      </trkpt>
      <trkpt lat="43.73677" lon="5.46065">
        <ele>237</ele>
        <time>2021-07-21T08:01:06Z</time>
      </trkpt>
      <trkpt lat="43.73678" lon="5.46065">
        <ele>237</ele>
        <time>2021-07-21T08:01:07Z</time>
      </trkpt>
      <trkpt lat="43.73698" lon="5.46084">
        <ele>235</ele>
        <time>2021-07-21T08:01:16Z</time>
      </trkpt>
      <trkpt lat="43.737" lon="5.4609">
        <ele>234</ele>
        <time>2021-07-21T08:01:17Z</time>
      </trkpt>
      <trkpt lat="43.73708" lon="5.46138">
        <ele>231</ele>
        <time>2021-07-21T08:01:23Z</time>
      </trkpt>
      <trkpt lat="43.73708" lon="5.46145">
        <ele>231</ele>
        <time>2021-07-21T08:01:24Z</time>
      </trkpt>
      <trkpt lat="43.73707" lon="5.46152">
        <ele>232</ele>
        <time>2021-07-21T08:01:25Z</time>
      </trkpt>
      <trkpt lat="43.73706" lon="5.46157">
        <ele>232</ele>
        <time>2021-07-21T08:01:26Z</time>
      </trkpt>
      <trkpt lat="43.73706" lon="5.46162">
        <ele>232</ele>
        <time>2021-07-21T08:01:27Z</time>
      </trkpt>
      <trkpt lat="43.73704" lon="5.46198">
        <ele>234</ele>
        <time>2021-07-21T08:01:39Z</time>
      </trkpt>
      <trkpt lat="43.7371" lon="5.46228">
        <ele>238</ele>
        <time>2021-07-21T08:01:52Z</time>
      </trkpt>
      <trkpt lat="43.73711" lon="5.46241">
        <ele>240</ele>
        <time>2021-07-21T08:01:57Z</time>
      </trkpt>
      <trkpt lat="43.73712" lon="5.46243">
        <ele>240</ele>
        <time>2021-07-21T08:01:58Z</time>
      </trkpt>
      <trkpt lat="43.73716" lon="5.46281">
        <ele>245</ele>
        <time>2021-07-21T08:02:12Z</time>
      </trkpt>
      <trkpt lat="43.73716" lon="5.46326">
        <ele>250</ele>
        <time>2021-07-21T08:02:29Z</time>
      </trkpt>
      <trkpt lat="43.73713" lon="5.4636">
        <ele>252</ele>
        <time>2021-07-21T08:02:42Z</time>
      </trkpt>
      <trkpt lat="43.73718" lon="5.46379">
        <ele>254</ele>
        <time>2021-07-21T08:02:50Z</time>
      </trkpt>
      <trkpt lat="43.73718" lon="5.46382">
        <ele>254</ele>
        <time>2021-07-21T08:02:51Z</time>
      </trkpt>
      <trkpt lat="43.73718" lon="5.46384">
        <ele>254</ele>
        <time>2021-07-21T08:02:52Z</time>
      </trkpt>
      <trkpt lat="43.73724" lon="5.4642">
        <ele>256</ele>
        <time>2021-07-21T08:03:06Z</time>
      </trkpt>
      <trkpt lat="43.73734" lon="5.46461">
        <ele>262</ele>
        <time>2021-07-21T08:03:21Z</time>
      </trkpt>
      <trkpt lat="43.73745" lon="5.46483">
        <ele>264</ele>
        <time>2021-07-21T08:03:32Z</time>
      </trkpt>
      <trkpt lat="43.73747" lon="5.46483">
        <ele>265</ele>
        <time>2021-07-21T08:03:33Z</time>
      </trkpt>
      <trkpt lat="43.73748" lon="5.46483">
        <ele>265</ele>
        <time>2021-07-21T08:03:34Z</time>
      </trkpt>
      <trkpt lat="43.73749" lon="5.46484">
        <ele>265</ele>
        <time>2021-07-21T08:03:35Z</time>
      </trkpt>
      <trkpt lat="43.73751" lon="5.46484">
        <ele>266</ele>
        <time>2021-07-21T08:03:36Z</time>
      </trkpt>
      <trkpt lat="43.7376" lon="5.46484">
        <ele>270</ele>
        <time>2021-07-21T08:03:48Z</time>
      </trkpt>
      <trkpt lat="43.73774" lon="5.46487">
        <ele>270</ele>
        <time>2021-07-21T08:04:00Z</time>
      </trkpt>
      <trkpt lat="43.73781" lon="5.46492">
        <ele>269</ele>
        <time>2021-07-21T08:04:09Z</time>
      </trkpt>
      <trkpt lat="43.73794" lon="5.46497">
        <ele>267</ele>
        <time>2021-07-21T08:04:21Z</time>
      </trkpt>
      <trkpt lat="43.73796" lon="5.46496">
        <ele>267</ele>
        <time>2021-07-21T08:04:22Z</time>
      </trkpt>
      <trkpt lat="43.738" lon="5.46495">
        <ele>266</ele>
        <time>2021-07-21T08:04:24Z</time>
      </trkpt>
      <trkpt lat="43.73802" lon="5.46496">
        <ele>266</ele>
        <time>2021-07-21T08:04:25Z</time>
      </trkpt>
      <trkpt lat="43.73805" lon="5.46496">
        <ele>266</ele>
        <time>2021-07-21T08:04:26Z</time>
      </trkpt>
      <trkpt lat="43.73843" lon="5.46503">
        <ele>263</ele>
        <time>2021-07-21T08:04:38Z</time>
      </trkpt>
      <trkpt lat="43.73861" lon="5.46506">
        <ele>262</ele>
        <time>2021-07-21T08:04:42Z</time>
      </trkpt>
      <trkpt lat="43.73911" lon="5.46525">
        <ele>258</ele>
        <time>2021-07-21T08:04:55Z</time>
      </trkpt>
      <trkpt lat="43.73911" lon="5.46527">
        <ele>258</ele>
        <time>2021-07-21T08:04:56Z</time>
      </trkpt>
      <trkpt lat="43.73909" lon="5.4653">
        <ele>259</ele>
        <time>2021-07-21T08:05:09Z</time>
      </trkpt>
      <trkpt lat="43.7391" lon="5.46533">
        <ele>258</ele>
        <time>2021-07-21T08:05:13Z</time>
      </trkpt>
      <trkpt lat="43.73911" lon="5.46557">
        <ele>257</ele>
        <time>2021-07-21T08:05:19Z</time>
      </trkpt>
      <trkpt lat="43.73911" lon="5.46563">
        <ele>257</ele>
        <time>2021-07-21T08:05:20Z</time>
      </trkpt>
      <trkpt lat="43.73909" lon="5.46662">
        <ele>252</ele>
        <time>2021-07-21T08:05:33Z</time>
      </trkpt>
      <trkpt lat="43.73906" lon="5.46763">
        <ele>250</ele>
        <time>2021-07-21T08:05:47Z</time>
      </trkpt>
      <trkpt lat="43.73903" lon="5.4684">
        <ele>253</ele>
        <time>2021-07-21T08:06:01Z</time>
      </trkpt>
      <trkpt lat="43.73903" lon="5.46916">
        <ele>257</ele>
        <time>2021-07-21T08:06:16Z</time>
      </trkpt>
      <trkpt lat="43.73911" lon="5.46992">
        <ele>257</ele>
        <time>2021-07-21T08:06:31Z</time>
      </trkpt>
      <trkpt lat="43.73954" lon="5.47084">
        <ele>254</ele>
        <time>2021-07-21T08:06:47Z</time>
      </trkpt>
      <trkpt lat="43.7401" lon="5.47188">
        <ele>252</ele>
        <time>2021-07-21T08:07:03Z</time>
      </trkpt>
      <trkpt lat="43.74086" lon="5.47303">
        <ele>249</ele>
        <time>2021-07-21T08:07:21Z</time>
      </trkpt>
      <trkpt lat="43.74157" lon="5.47368">
        <ele>249</ele>
        <time>2021-07-21T08:07:36Z</time>
      </trkpt>
      <trkpt lat="43.74183" lon="5.47394">
        <ele>248</ele>
        <time>2021-07-21T08:07:43Z</time>
      </trkpt>
      <trkpt lat="43.74205" lon="5.47417">
        <ele>247</ele>
        <time>2021-07-21T08:07:49Z</time>
      </trkpt>
      <trkpt lat="43.74259" lon="5.47475">
        <ele>252</ele>
        <time>2021-07-21T08:08:05Z</time>
      </trkpt>
      <trkpt lat="43.7428" lon="5.47545">
        <ele>255</ele>
        <time>2021-07-21T08:08:21Z</time>
      </trkpt>
      <trkpt lat="43.74299" lon="5.47618">
        <ele>258</ele>
        <time>2021-07-21T08:08:38Z</time>
      </trkpt>
      <trkpt lat="43.74308" lon="5.47708">
        <ele>263</ele>
        <time>2021-07-21T08:08:57Z</time>
      </trkpt>
      <trkpt lat="43.74302" lon="5.47801">
        <ele>263</ele>
        <time>2021-07-21T08:09:16Z</time>
      </trkpt>
      <trkpt lat="43.74297" lon="5.47892">
        <ele>265</ele>
        <time>2021-07-21T08:09:35Z</time>
      </trkpt>
      <trkpt lat="43.74317" lon="5.47956">
        <ele>267</ele>
        <time>2021-07-21T08:09:50Z</time>
      </trkpt>
      <trkpt lat="43.74341" lon="5.48021">
        <ele>267</ele>
        <time>2021-07-21T08:10:05Z</time>
      </trkpt>
      <trkpt lat="43.74373" lon="5.48104">
        <ele>270</ele>
        <time>2021-07-21T08:10:24Z</time>
      </trkpt>
      <trkpt lat="43.74403" lon="5.48181">
        <ele>273</ele>
        <time>2021-07-21T08:10:43Z</time>
      </trkpt>
      <trkpt lat="43.74433" lon="5.48263">
        <ele>277</ele>
        <time>2021-07-21T08:11:05Z</time>
      </trkpt>
      <trkpt lat="43.74463" lon="5.48329">
        <ele>282</ele>
        <time>2021-07-21T08:11:25Z</time>
      </trkpt>
      <trkpt lat="43.74496" lon="5.48376">
        <ele>283</ele>
        <time>2021-07-21T08:11:42Z</time>
      </trkpt>
      <trkpt lat="43.7454" lon="5.48444">
        <ele>283</ele>
        <time>2021-07-21T08:12:02Z</time>
      </trkpt>
      <trkpt lat="43.74589" lon="5.48519">
        <ele>281</ele>
        <time>2021-07-21T08:12:18Z</time>
      </trkpt>
      <trkpt lat="43.74592" lon="5.48524">
        <ele>280</ele>
        <time>2021-07-21T08:12:19Z</time>
      </trkpt>
      <trkpt lat="43.74596" lon="5.48529">
        <ele>280</ele>
        <time>2021-07-21T08:12:20Z</time>
      </trkpt>
      <trkpt lat="43.74663" lon="5.48601">
        <ele>278</ele>
        <time>2021-07-21T08:12:36Z</time>
      </trkpt>
      <trkpt lat="43.74718" lon="5.48688">
        <ele>278</ele>
        <time>2021-07-21T08:12:53Z</time>
      </trkpt>
      <trkpt lat="43.74736" lon="5.4877">
        <ele>282</ele>
        <time>2021-07-21T08:13:10Z</time>
      </trkpt>
      <trkpt lat="43.74759" lon="5.48856">
        <ele>280</ele>
        <time>2021-07-21T08:13:25Z</time>
      </trkpt>
      <trkpt lat="43.74781" lon="5.4897">
        <ele>278</ele>
        <time>2021-07-21T08:13:38Z</time>
      </trkpt>
      <trkpt lat="43.74782" lon="5.49033">
        <ele>277</ele>
        <time>2021-07-21T08:13:46Z</time>
      </trkpt>
      <trkpt lat="43.74779" lon="5.49047">
        <ele>277</ele>
        <time>2021-07-21T08:13:48Z</time>
      </trkpt>
      <trkpt lat="43.74777" lon="5.49054">
        <ele>277</ele>
        <time>2021-07-21T08:13:49Z</time>
      </trkpt>
      <trkpt lat="43.74774" lon="5.49059">
        <ele>277</ele>
        <time>2021-07-21T08:13:50Z</time>
      </trkpt>
      <trkpt lat="43.74771" lon="5.49064">
        <ele>277</ele>
        <time>2021-07-21T08:13:51Z</time>
      </trkpt>
      <trkpt lat="43.74767" lon="5.49068">
        <ele>278</ele>
        <time>2021-07-21T08:13:52Z</time>
      </trkpt>
      <trkpt lat="43.74764" lon="5.49071">
        <ele>278</ele>
        <time>2021-07-21T08:13:53Z</time>
      </trkpt>
      <trkpt lat="43.7476" lon="5.49074">
        <ele>278</ele>
        <time>2021-07-21T08:13:54Z</time>
      </trkpt>
      <trkpt lat="43.74755" lon="5.49076">
        <ele>278</ele>
        <time>2021-07-21T08:13:55Z</time>
      </trkpt>
      <trkpt lat="43.74751" lon="5.49078">
        <ele>279</ele>
        <time>2021-07-21T08:13:56Z</time>
      </trkpt>
      <trkpt lat="43.74747" lon="5.49079">
        <ele>279</ele>
        <time>2021-07-21T08:13:57Z</time>
      </trkpt>
      <trkpt lat="43.74689" lon="5.49101">
        <ele>283</ele>
        <time>2021-07-21T08:14:13Z</time>
      </trkpt>
      <trkpt lat="43.74682" lon="5.49122">
        <ele>284</ele>
        <time>2021-07-21T08:14:18Z</time>
      </trkpt>
      <trkpt lat="43.74684" lon="5.49125">
        <ele>285</ele>
        <time>2021-07-21T08:14:19Z</time>
      </trkpt>
      <trkpt lat="43.74687" lon="5.49128">
        <ele>285</ele>
        <time>2021-07-21T08:14:20Z</time>
      </trkpt>
      <trkpt lat="43.7469" lon="5.4913">
        <ele>285</ele>
        <time>2021-07-21T08:14:21Z</time>
      </trkpt>
      <trkpt lat="43.74693" lon="5.49131">
        <ele>286</ele>
        <time>2021-07-21T08:14:22Z</time>
      </trkpt>
      <trkpt lat="43.74697" lon="5.49131">
        <ele>286</ele>
        <time>2021-07-21T08:14:23Z</time>
      </trkpt>
      <trkpt lat="43.747" lon="5.49132">
        <ele>286</ele>
        <time>2021-07-21T08:14:24Z</time>
      </trkpt>
      <trkpt lat="43.74744" lon="5.49139">
        <ele>289</ele>
        <time>2021-07-21T08:14:37Z</time>
      </trkpt>
      <trkpt lat="43.748" lon="5.49149">
        <ele>291</ele>
        <time>2021-07-21T08:14:55Z</time>
      </trkpt>
      <trkpt lat="43.74847" lon="5.49173">
        <ele>295</ele>
        <time>2021-07-21T08:15:12Z</time>
      </trkpt>
      <trkpt lat="43.74873" lon="5.49233">
        <ele>297</ele>
        <time>2021-07-21T08:15:28Z</time>
      </trkpt>
      <trkpt lat="43.74897" lon="5.4929">
        <ele>300</ele>
        <time>2021-07-21T08:15:44Z</time>
      </trkpt>
      <trkpt lat="43.74915" lon="5.49334">
        <ele>301</ele>
        <time>2021-07-21T08:15:57Z</time>
      </trkpt>
      <trkpt lat="43.7493" lon="5.49368">
        <ele>301</ele>
        <time>2021-07-21T08:16:10Z</time>
      </trkpt>
      <trkpt lat="43.7495" lon="5.49412">
        <ele>302</ele>
        <time>2021-07-21T08:16:23Z</time>
      </trkpt>
      <trkpt lat="43.74981" lon="5.49481">
        <ele>303</ele>
        <time>2021-07-21T08:16:42Z</time>
      </trkpt>
      <trkpt lat="43.75014" lon="5.49554">
        <ele>303</ele>
        <time>2021-07-21T08:17:01Z</time>
      </trkpt>
      <trkpt lat="43.7504" lon="5.49608">
        <ele>304</ele>
        <time>2021-07-21T08:17:15Z</time>
      </trkpt>
      <trkpt lat="43.75075" lon="5.49668">
        <ele>306</ele>
        <time>2021-07-21T08:17:33Z</time>
      </trkpt>
      <trkpt lat="43.75116" lon="5.49719">
        <ele>305</ele>
        <time>2021-07-21T08:17:48Z</time>
      </trkpt>
      <trkpt lat="43.75184" lon="5.49792">
        <ele>304</ele>
        <time>2021-07-21T08:18:07Z</time>
      </trkpt>
      <trkpt lat="43.75242" lon="5.49888">
        <ele>306</ele>
        <time>2021-07-21T08:18:28Z</time>
      </trkpt>
      <trkpt lat="43.75285" lon="5.49961">
        <ele>308</ele>
        <time>2021-07-21T08:18:47Z</time>
      </trkpt>
      <trkpt lat="43.7534" lon="5.50036">
        <ele>311</ele>
        <time>2021-07-21T08:19:09Z</time>
      </trkpt>
      <trkpt lat="43.7535" lon="5.50056">
        <ele>312</ele>
        <time>2021-07-21T08:19:19Z</time>
      </trkpt>
      <trkpt lat="43.75351" lon="5.50058">
        <ele>312</ele>
        <time>2021-07-21T08:19:43Z</time>
      </trkpt>
      <trkpt lat="43.75368" lon="5.50095">
        <ele>313</ele>
        <time>2021-07-21T08:19:53Z</time>
      </trkpt>
      <trkpt lat="43.75394" lon="5.50159">
        <ele>317</ele>
        <time>2021-07-21T08:20:09Z</time>
      </trkpt>
      <trkpt lat="43.75416" lon="5.50212">
        <ele>321</ele>
        <time>2021-07-21T08:20:24Z</time>
      </trkpt>
      <trkpt lat="43.75436" lon="5.50279">
        <ele>327</ele>
        <time>2021-07-21T08:20:42Z</time>
      </trkpt>
      <trkpt lat="43.75442" lon="5.5033">
        <ele>330</ele>
        <time>2021-07-21T08:20:56Z</time>
      </trkpt>
      <trkpt lat="43.75444" lon="5.50332">
        <ele>330</ele>
        <time>2021-07-21T08:20:57Z</time>
      </trkpt>
      <trkpt lat="43.75447" lon="5.50334">
        <ele>330</ele>
        <time>2021-07-21T08:20:58Z</time>
      </trkpt>
      <trkpt lat="43.75449" lon="5.50334">
        <ele>330</ele>
        <time>2021-07-21T08:20:59Z</time>
      </trkpt>
      <trkpt lat="43.75452" lon="5.50334">
        <ele>330</ele>
        <time>2021-07-21T08:21:00Z</time>
      </trkpt>
      <trkpt lat="43.75455" lon="5.50334">
        <ele>330</ele>
        <time>2021-07-21T08:21:01Z</time>
      </trkpt>
      <trkpt lat="43.75458" lon="5.50333">
        <ele>330</ele>
        <time>2021-07-21T08:21:02Z</time>
      </trkpt>
      <trkpt lat="43.75461" lon="5.50332">
        <ele>330</ele>
        <time>2021-07-21T08:21:03Z</time>
      </trkpt>
      <trkpt lat="43.75509" lon="5.50323">
        <ele>330</ele>
        <time>2021-07-21T08:21:19Z</time>
      </trkpt>
      <trkpt lat="43.75565" lon="5.50308">
        <ele>332</ele>
        <time>2021-07-21T08:21:38Z</time>
      </trkpt>
      <trkpt lat="43.75623" lon="5.50288">
        <ele>334</ele>
        <time>2021-07-21T08:21:57Z</time>
      </trkpt>
      <trkpt lat="43.75686" lon="5.50267">
        <ele>335</ele>
        <time>2021-07-21T08:22:17Z</time>
      </trkpt>
      <trkpt lat="43.75755" lon="5.50238">
        <ele>337</ele>
        <time>2021-07-21T08:22:39Z</time>
      </trkpt>
      <trkpt lat="43.75772" lon="5.50242">
        <ele>338</ele>
        <time>2021-07-21T08:22:45Z</time>
      </trkpt>
      <trkpt lat="43.75774" lon="5.50246">
        <ele>337</ele>
        <time>2021-07-21T08:22:46Z</time>
      </trkpt>
      <trkpt lat="43.75775" lon="5.50251">
        <ele>337</ele>
        <time>2021-07-21T08:22:47Z</time>
      </trkpt>
      <trkpt lat="43.75776" lon="5.50256">
        <ele>338</ele>
        <time>2021-07-21T08:22:48Z</time>
      </trkpt>
      <trkpt lat="43.75776" lon="5.5026">
        <ele>338</ele>
        <time>2021-07-21T08:22:49Z</time>
      </trkpt>
      <trkpt lat="43.75776" lon="5.50266">
        <ele>338</ele>
        <time>2021-07-21T08:22:50Z</time>
      </trkpt>
      <trkpt lat="43.75771" lon="5.50358">
        <ele>337</ele>
        <time>2021-07-21T08:23:06Z</time>
      </trkpt>
      <trkpt lat="43.75771" lon="5.50389">
        <ele>337</ele>
        <time>2021-07-21T08:23:11Z</time>
      </trkpt>
      <trkpt lat="43.75772" lon="5.50395">
        <ele>337</ele>
        <time>2021-07-21T08:23:12Z</time>
      </trkpt>
      <trkpt lat="43.75776" lon="5.50425">
        <ele>337</ele>
        <time>2021-07-21T08:23:17Z</time>
      </trkpt>
      <trkpt lat="43.75776" lon="5.50431">
        <ele>337</ele>
        <time>2021-07-21T08:23:18Z</time>
      </trkpt>
      <trkpt lat="43.75789" lon="5.50474">
        <ele>336</ele>
        <time>2021-07-21T08:23:29Z</time>
      </trkpt>
      <trkpt lat="43.75791" lon="5.50475">
        <ele>336</ele>
        <time>2021-07-21T08:23:30Z</time>
      </trkpt>
      <trkpt lat="43.75792" lon="5.50474">
        <ele>336</ele>
        <time>2021-07-21T08:23:31Z</time>
      </trkpt>
      <trkpt lat="43.75796" lon="5.50472">
        <ele>335</ele>
        <time>2021-07-21T08:23:35Z</time>
      </trkpt>
      <trkpt lat="43.75798" lon="5.50471">
        <ele>335</ele>
        <time>2021-07-21T08:23:36Z</time>
      </trkpt>
      <trkpt lat="43.75801" lon="5.5047">
        <ele>335</ele>
        <time>2021-07-21T08:23:37Z</time>
      </trkpt>
      <trkpt lat="43.75841" lon="5.50443">
        <ele>337</ele>
        <time>2021-07-21T08:23:51Z</time>
      </trkpt>
      <trkpt lat="43.7586" lon="5.5041">
        <ele>338</ele>
        <time>2021-07-21T08:24:03Z</time>
      </trkpt>
      <trkpt lat="43.7586" lon="5.5039">
        <ele>339</ele>
        <time>2021-07-21T08:24:10Z</time>
      </trkpt>
      <trkpt lat="43.75861" lon="5.5039">
        <ele>339</ele>
        <time>2021-07-21T08:24:11Z</time>
      </trkpt>
      <trkpt lat="43.75862" lon="5.50391">
        <ele>339</ele>
        <time>2021-07-21T08:24:12Z</time>
      </trkpt>
      <trkpt lat="43.75864" lon="5.50391">
        <ele>339</ele>
        <time>2021-07-21T08:24:13Z</time>
      </trkpt>
      <trkpt lat="43.75867" lon="5.50391">
        <ele>339</ele>
        <time>2021-07-21T08:24:14Z</time>
      </trkpt>
      <trkpt lat="43.75869" lon="5.5039">
        <ele>339</ele>
        <time>2021-07-21T08:24:15Z</time>
      </trkpt>
      <trkpt lat="43.75871" lon="5.50389">
        <ele>339</ele>
        <time>2021-07-21T08:24:16Z</time>
      </trkpt>
      <trkpt lat="43.75873" lon="5.50388">
        <ele>339</ele>
        <time>2021-07-21T08:24:17Z</time>
      </trkpt>
      <trkpt lat="43.75896" lon="5.50392">
        <ele>338</ele>
        <time>2021-07-21T08:24:29Z</time>
      </trkpt>
      <trkpt lat="43.75908" lon="5.50392">
        <ele>338</ele>
        <time>2021-07-21T08:24:35Z</time>
      </trkpt>
      <trkpt lat="43.7591" lon="5.5039">
        <ele>338</ele>
        <time>2021-07-21T08:24:36Z</time>
      </trkpt>
      <trkpt lat="43.75911" lon="5.50389">
        <ele>338</ele>
        <time>2021-07-21T08:24:37Z</time>
      </trkpt>
      <trkpt lat="43.75913" lon="5.50387">
        <ele>339</ele>
        <time>2021-07-21T08:24:38Z</time>
      </trkpt>
      <trkpt lat="43.75915" lon="5.50386">
        <ele>339</ele>
        <time>2021-07-21T08:24:39Z</time>
      </trkpt>
      <trkpt lat="43.75916" lon="5.50385">
        <ele>339</ele>
        <time>2021-07-21T08:24:40Z</time>
      </trkpt>
      <trkpt lat="43.75918" lon="5.50384">
        <ele>339</ele>
        <time>2021-07-21T08:24:41Z</time>
      </trkpt>
      <trkpt lat="43.75919" lon="5.50382">
        <ele>339</ele>
        <time>2021-07-21T08:24:42Z</time>
      </trkpt>
      <trkpt lat="43.75921" lon="5.50381">
        <ele>339</ele>
        <time>2021-07-21T08:24:43Z</time>
      </trkpt>
      <trkpt lat="43.75922" lon="5.5038">
        <ele>339</ele>
        <time>2021-07-21T08:24:44Z</time>
      </trkpt>
      <trkpt lat="43.75929" lon="5.50379">
        <ele>339</ele>
        <time>2021-07-21T08:24:59Z</time>
      </trkpt>
      <trkpt lat="43.75948" lon="5.50367">
        <ele>339</ele>
        <time>2021-07-21T08:25:10Z</time>
      </trkpt>
      <trkpt lat="43.76" lon="5.50337">
        <ele>337</ele>
        <time>2021-07-21T08:25:25Z</time>
      </trkpt>
      <trkpt lat="43.76057" lon="5.50307">
        <ele>337</ele>
        <time>2021-07-21T08:25:41Z</time>
      </trkpt>
      <trkpt lat="43.76098" lon="5.5029">
        <ele>337</ele>
        <time>2021-07-21T08:25:53Z</time>
      </trkpt>
      <trkpt lat="43.76148" lon="5.50273">
        <ele>338</ele>
        <time>2021-07-21T08:26:07Z</time>
      </trkpt>
      <trkpt lat="43.76189" lon="5.5026">
        <ele>339</ele>
        <time>2021-07-21T08:26:21Z</time>
      </trkpt>
      <trkpt lat="43.76216" lon="5.50253">
        <ele>338</ele>
        <time>2021-07-21T08:26:33Z</time>
      </trkpt>
      <trkpt lat="43.76218" lon="5.50253">
        <ele>338</ele>
        <time>2021-07-21T08:26:43Z</time>
      </trkpt>
      <trkpt lat="43.76227" lon="5.50239">
        <ele>338</ele>
        <time>2021-07-21T08:26:51Z</time>
      </trkpt>
      <trkpt lat="43.76256" lon="5.50238">
        <ele>336</ele>
        <time>2021-07-21T08:27:02Z</time>
      </trkpt>
      <trkpt lat="43.7627" lon="5.50239">
        <ele>334</ele>
        <time>2021-07-21T08:27:13Z</time>
      </trkpt>
      <trkpt lat="43.76272" lon="5.50238">
        <ele>335</ele>
        <time>2021-07-21T08:27:26Z</time>
      </trkpt>
      <trkpt lat="43.7627" lon="5.5024">
        <ele>333</ele>
        <time>2021-07-21T08:27:49Z</time>
      </trkpt>
      <trkpt lat="43.76271" lon="5.5024">
        <ele>334</ele>
        <time>2021-07-21T08:28:11Z</time>
      </trkpt>
      <trkpt lat="43.76273" lon="5.50241">
        <ele>333</ele>
        <time>2021-07-21T08:28:42Z</time>
      </trkpt>
      <trkpt lat="43.76271" lon="5.50237">
        <ele>335</ele>
        <time>2021-07-21T08:29:09Z</time>
      </trkpt>
      <trkpt lat="43.7627" lon="5.50239">
        <ele>335</ele>
        <time>2021-07-21T08:29:35Z</time>
      </trkpt>
      <trkpt lat="43.7627" lon="5.5024">
        <ele>339</ele>
        <time>2021-07-21T08:30:08Z</time>
      </trkpt>
      <trkpt lat="43.76269" lon="5.50238">
        <ele>338</ele>
        <time>2021-07-21T08:30:50Z</time>
      </trkpt>
      <trkpt lat="43.76269" lon="5.50242">
        <ele>338</ele>
        <time>2021-07-21T08:31:26Z</time>
      </trkpt>
      <trkpt lat="43.76269" lon="5.50243">
        <ele>339</ele>
        <time>2021-07-21T08:31:57Z</time>
      </trkpt>
      <trkpt lat="43.76267" lon="5.50236">
        <ele>339</ele>
        <time>2021-07-21T08:32:26Z</time>
      </trkpt>
      <trkpt lat="43.76273" lon="5.50232">
        <ele>339</ele>
        <time>2021-07-21T08:32:54Z</time>
      </trkpt>
      <trkpt lat="43.7627" lon="5.50235">
        <ele>343</ele>
        <time>2021-07-21T08:33:29Z</time>
      </trkpt>
      <trkpt lat="43.76271" lon="5.5024">
        <ele>341</ele>
        <time>2021-07-21T08:34:06Z</time>
      </trkpt>
      <trkpt lat="43.7627" lon="5.5024">
        <ele>342</ele>
        <time>2021-07-21T08:34:42Z</time>
      </trkpt>
      <trkpt lat="43.76269" lon="5.50238">
        <ele>345</ele>
        <time>2021-07-21T08:35:11Z</time>
      </trkpt>
      <trkpt lat="43.7627" lon="5.50241">
        <ele>343</ele>
        <time>2021-07-21T08:35:41Z</time>
      </trkpt>
      <trkpt lat="43.76275" lon="5.50239">
        <ele>343</ele>
        <time>2021-07-21T08:36:17Z</time>
      </trkpt>
      <trkpt lat="43.76276" lon="5.50242">
        <ele>338</ele>
        <time>2021-07-21T08:36:44Z</time>
      </trkpt>
      <trkpt lat="43.76269" lon="5.50238">
        <ele>336</ele>
        <time>2021-07-21T08:37:04Z</time>
      </trkpt>
      <trkpt lat="43.76266" lon="5.50238">
        <ele>338</ele>
        <time>2021-07-21T08:37:16Z</time>
      </trkpt>
      <trkpt lat="43.76264" lon="5.50238">
        <ele>338</ele>
        <time>2021-07-21T08:37:18Z</time>
      </trkpt>
      <trkpt lat="43.76247" lon="5.50243">
        <ele>339</ele>
        <time>2021-07-21T08:37:30Z</time>
      </trkpt>
      <trkpt lat="43.76244" lon="5.50245">
        <ele>339</ele>
        <time>2021-07-21T08:37:32Z</time>
      </trkpt>
      <trkpt lat="43.76238" lon="5.50252">
        <ele>339</ele>
        <time>2021-07-21T08:37:38Z</time>
      </trkpt>
      <trkpt lat="43.76226" lon="5.50267">
        <ele>337</ele>
        <time>2021-07-21T08:37:53Z</time>
      </trkpt>
      <trkpt lat="43.76226" lon="5.50268">
        <ele>335</ele>
        <time>2021-07-21T08:38:19Z</time>
      </trkpt>
      <trkpt lat="43.76236" lon="5.50258">
        <ele>334</ele>
        <time>2021-07-21T08:38:26Z</time>
      </trkpt>
      <trkpt lat="43.76239" lon="5.50244">
        <ele>335</ele>
        <time>2021-07-21T08:38:32Z</time>
      </trkpt>
      <trkpt lat="43.76234" lon="5.50237">
        <ele>336</ele>
        <time>2021-07-21T08:38:36Z</time>
      </trkpt>
      <trkpt lat="43.76232" lon="5.50238">
        <ele>336</ele>
        <time>2021-07-21T08:38:37Z</time>
      </trkpt>
      <trkpt lat="43.76228" lon="5.50238">
        <ele>337</ele>
        <time>2021-07-21T08:38:39Z</time>
      </trkpt>
      <trkpt lat="43.76226" lon="5.50238">
        <ele>337</ele>
        <time>2021-07-21T08:38:40Z</time>
      </trkpt>
      <trkpt lat="43.76224" lon="5.5024">
        <ele>337</ele>
        <time>2021-07-21T08:38:41Z</time>
      </trkpt>
      <trkpt lat="43.76222" lon="5.50242">
        <ele>338</ele>
        <time>2021-07-21T08:38:42Z</time>
      </trkpt>
      <trkpt lat="43.76221" lon="5.50244">
        <ele>338</ele>
        <time>2021-07-21T08:38:43Z</time>
      </trkpt>
      <trkpt lat="43.7622" lon="5.50246">
        <ele>338</ele>
        <time>2021-07-21T08:38:44Z</time>
      </trkpt>
      <trkpt lat="43.76219" lon="5.50247">
        <ele>338</ele>
        <time>2021-07-21T08:38:45Z</time>
      </trkpt>
      <trkpt lat="43.76213" lon="5.50253">
        <ele>338</ele>
        <time>2021-07-21T08:38:50Z</time>
      </trkpt>
      <trkpt lat="43.76211" lon="5.50253">
        <ele>338</ele>
        <time>2021-07-21T08:38:51Z</time>
      </trkpt>
      <trkpt lat="43.76205" lon="5.5025">
        <ele>338</ele>
        <time>2021-07-21T08:38:55Z</time>
      </trkpt>
      <trkpt lat="43.76198" lon="5.50247">
        <ele>338</ele>
        <time>2021-07-21T08:39:03Z</time>
      </trkpt>
      <trkpt lat="43.76193" lon="5.5024">
        <ele>338</ele>
        <time>2021-07-21T08:39:09Z</time>
      </trkpt>
      <trkpt lat="43.76187" lon="5.50244">
        <ele>338</ele>
        <time>2021-07-21T08:39:15Z</time>
      </trkpt>
      <trkpt lat="43.76168" lon="5.50264">
        <ele>337</ele>
        <time>2021-07-21T08:39:28Z</time>
      </trkpt>
      <trkpt lat="43.76155" lon="5.50268">
        <ele>337</ele>
        <time>2021-07-21T08:39:43Z</time>
      </trkpt>
      <trkpt lat="43.76119" lon="5.50282">
        <ele>337</ele>
        <time>2021-07-21T08:39:59Z</time>
      </trkpt>
      <trkpt lat="43.76084" lon="5.50295">
        <ele>336</ele>
        <time>2021-07-21T08:40:13Z</time>
      </trkpt>
      <trkpt lat="43.76045" lon="5.50315">
        <ele>337</ele>
        <time>2021-07-21T08:40:28Z</time>
      </trkpt>
      <trkpt lat="43.75994" lon="5.50343">
        <ele>337</ele>
        <time>2021-07-21T08:40:45Z</time>
      </trkpt>
      <trkpt lat="43.75948" lon="5.50368">
        <ele>338</ele>
        <time>2021-07-21T08:41:02Z</time>
      </trkpt>
      <trkpt lat="43.75909" lon="5.50389">
        <ele>338</ele>
        <time>2021-07-21T08:41:17Z</time>
      </trkpt>
      <trkpt lat="43.75884" lon="5.50383">
        <ele>338</ele>
        <time>2021-07-21T08:41:27Z</time>
      </trkpt>
      <trkpt lat="43.75859" lon="5.50393">
        <ele>339</ele>
        <time>2021-07-21T08:41:38Z</time>
      </trkpt>
      <trkpt lat="43.75853" lon="5.50404">
        <ele>339</ele>
        <time>2021-07-21T08:41:42Z</time>
      </trkpt>
      <trkpt lat="43.75852" lon="5.50408">
        <ele>339</ele>
        <time>2021-07-21T08:41:43Z</time>
      </trkpt>
      <trkpt lat="43.75837" lon="5.50446">
        <ele>337</ele>
        <time>2021-07-21T08:41:53Z</time>
      </trkpt>
      <trkpt lat="43.75793" lon="5.50466">
        <ele>337</ele>
        <time>2021-07-21T08:42:07Z</time>
      </trkpt>
      <trkpt lat="43.75787" lon="5.50471">
        <ele>337</ele>
        <time>2021-07-21T08:42:11Z</time>
      </trkpt>
      <trkpt lat="43.75788" lon="5.50511">
        <ele>336</ele>
        <time>2021-07-21T08:42:21Z</time>
      </trkpt>
      <trkpt lat="43.75792" lon="5.50527">
        <ele>335</ele>
        <time>2021-07-21T08:42:24Z</time>
      </trkpt>
      <trkpt lat="43.75796" lon="5.50544">
        <ele>335</ele>
        <time>2021-07-21T08:42:27Z</time>
      </trkpt>
      <trkpt lat="43.75797" lon="5.50549">
        <ele>335</ele>
        <time>2021-07-21T08:42:28Z</time>
      </trkpt>
      <trkpt lat="43.75798" lon="5.50554">
        <ele>335</ele>
        <time>2021-07-21T08:42:29Z</time>
      </trkpt>
      <trkpt lat="43.75798" lon="5.50559">
        <ele>335</ele>
        <time>2021-07-21T08:42:30Z</time>
      </trkpt>
      <trkpt lat="43.758" lon="5.50564">
        <ele>335</ele>
        <time>2021-07-21T08:42:31Z</time>
      </trkpt>
      <trkpt lat="43.75817" lon="5.50634">
        <ele>335</ele>
        <time>2021-07-21T08:42:43Z</time>
      </trkpt>
      <trkpt lat="43.75838" lon="5.50717">
        <ele>336</ele>
        <time>2021-07-21T08:42:58Z</time>
      </trkpt>
      <trkpt lat="43.75863" lon="5.508">
        <ele>335</ele>
        <time>2021-07-21T08:43:12Z</time>
      </trkpt>
      <trkpt lat="43.75899" lon="5.50916">
        <ele>332</ele>
        <time>2021-07-21T08:43:31Z</time>
      </trkpt>
      <trkpt lat="43.75952" lon="5.5099">
        <ele>332</ele>
        <time>2021-07-21T08:43:46Z</time>
      </trkpt>
      <trkpt lat="43.76009" lon="5.51063">
        <ele>333</ele>
        <time>2021-07-21T08:44:03Z</time>
      </trkpt>
      <trkpt lat="43.76051" lon="5.51105">
        <ele>332</ele>
        <time>2021-07-21T08:44:17Z</time>
      </trkpt>
      <trkpt lat="43.76094" lon="5.51131">
        <ele>333</ele>
        <time>2021-07-21T08:44:30Z</time>
      </trkpt>
      <trkpt lat="43.76136" lon="5.51155">
        <ele>334</ele>
        <time>2021-07-21T08:44:43Z</time>
      </trkpt>
      <trkpt lat="43.76175" lon="5.51178">
        <ele>337</ele>
        <time>2021-07-21T08:44:55Z</time>
      </trkpt>
      <trkpt lat="43.7623" lon="5.51208">
        <ele>342</ele>
        <time>2021-07-21T08:45:11Z</time>
      </trkpt>
      <trkpt lat="43.76275" lon="5.51235">
        <ele>344</ele>
        <time>2021-07-21T08:45:25Z</time>
      </trkpt>
      <trkpt lat="43.76345" lon="5.51269">
        <ele>344</ele>
        <time>2021-07-21T08:45:45Z</time>
      </trkpt>
      <trkpt lat="43.76408" lon="5.51303">
        <ele>346</ele>
        <time>2021-07-21T08:46:02Z</time>
      </trkpt>
      <trkpt lat="43.76469" lon="5.5134">
        <ele>346</ele>
        <time>2021-07-21T08:46:19Z</time>
      </trkpt>
      <trkpt lat="43.7652" lon="5.51382">
        <ele>348</ele>
        <time>2021-07-21T08:46:34Z</time>
      </trkpt>
      <trkpt lat="43.7659" lon="5.51453">
        <ele>350</ele>
        <time>2021-07-21T08:46:56Z</time>
      </trkpt>
      <trkpt lat="43.7663" lon="5.51494">
        <ele>351</ele>
        <time>2021-07-21T08:47:09Z</time>
      </trkpt>
      <trkpt lat="43.76692" lon="5.51542">
        <ele>352</ele>
        <time>2021-07-21T08:47:27Z</time>
      </trkpt>
      <trkpt lat="43.76755" lon="5.51582">
        <ele>354</ele>
        <time>2021-07-21T08:47:45Z</time>
      </trkpt>
      <trkpt lat="43.76822" lon="5.51616">
        <ele>357</ele>
        <time>2021-07-21T08:48:04Z</time>
      </trkpt>
      <trkpt lat="43.76897" lon="5.51653">
        <ele>361</ele>
        <time>2021-07-21T08:48:25Z</time>
      </trkpt>
      <trkpt lat="43.76965" lon="5.51684">
        <ele>362</ele>
        <time>2021-07-21T08:48:44Z</time>
      </trkpt>
      <trkpt lat="43.77032" lon="5.51706">
        <ele>365</ele>
        <time>2021-07-21T08:49:02Z</time>
      </trkpt>
      <trkpt lat="43.77092" lon="5.51722">
        <ele>368</ele>
        <time>2021-07-21T08:49:18Z</time>
      </trkpt>
      <trkpt lat="43.77162" lon="5.51756">
        <ele>368</ele>
        <time>2021-07-21T08:49:37Z</time>
      </trkpt>
      <trkpt lat="43.77196" lon="5.51822">
        <ele>368</ele>
        <time>2021-07-21T08:49:52Z</time>
      </trkpt>
      <trkpt lat="43.77221" lon="5.51903">
        <ele>368</ele>
        <time>2021-07-21T08:50:08Z</time>
      </trkpt>
      <trkpt lat="43.77242" lon="5.5199">
        <ele>370</ele>
        <time>2021-07-21T08:50:25Z</time>
      </trkpt>
      <trkpt lat="43.77249" lon="5.5206">
        <ele>372</ele>
        <time>2021-07-21T08:50:40Z</time>
      </trkpt>
      <trkpt lat="43.77258" lon="5.52134">
        <ele>378</ele>
        <time>2021-07-21T08:50:57Z</time>
      </trkpt>
      <trkpt lat="43.77262" lon="5.52144">
        <ele>378</ele>
        <time>2021-07-21T08:50:59Z</time>
      </trkpt>
      <trkpt lat="43.77268" lon="5.52156">
        <ele>379</ele>
        <time>2021-07-21T08:51:01Z</time>
      </trkpt>
      <trkpt lat="43.77272" lon="5.52162">
        <ele>379</ele>
        <time>2021-07-21T08:51:02Z</time>
      </trkpt>
      <trkpt lat="43.77277" lon="5.52168">
        <ele>380</ele>
        <time>2021-07-21T08:51:03Z</time>
      </trkpt>
      <trkpt lat="43.77282" lon="5.52173">
        <ele>380</ele>
        <time>2021-07-21T08:51:04Z</time>
      </trkpt>
      <trkpt lat="43.77288" lon="5.52177">
        <ele>380</ele>
        <time>2021-07-21T08:51:05Z</time>
      </trkpt>
      <trkpt lat="43.77294" lon="5.52179">
        <ele>380</ele>
        <time>2021-07-21T08:51:06Z</time>
      </trkpt>
      <trkpt lat="43.773" lon="5.52179">
        <ele>379</ele>
        <time>2021-07-21T08:51:07Z</time>
      </trkpt>
      <trkpt lat="43.77306" lon="5.52179">
        <ele>378</ele>
        <time>2021-07-21T08:51:08Z</time>
      </trkpt>
      <trkpt lat="43.77313" lon="5.52177">
        <ele>378</ele>
        <time>2021-07-21T08:51:09Z</time>
      </trkpt>
      <trkpt lat="43.77319" lon="5.52176">
        <ele>377</ele>
        <time>2021-07-21T08:51:10Z</time>
      </trkpt>
      <trkpt lat="43.77325" lon="5.52175">
        <ele>377</ele>
        <time>2021-07-21T08:51:11Z</time>
      </trkpt>
      <trkpt lat="43.77331" lon="5.52176">
        <ele>377</ele>
        <time>2021-07-21T08:51:12Z</time>
      </trkpt>
      <trkpt lat="43.77338" lon="5.52178">
        <ele>377</ele>
        <time>2021-07-21T08:51:13Z</time>
      </trkpt>
      <trkpt lat="43.77345" lon="5.52181">
        <ele>377</ele>
        <time>2021-07-21T08:51:14Z</time>
      </trkpt>
      <trkpt lat="43.7735" lon="5.52187">
        <ele>377</ele>
        <time>2021-07-21T08:51:15Z</time>
      </trkpt>
      <trkpt lat="43.77354" lon="5.52196">
        <ele>377</ele>
        <time>2021-07-21T08:51:16Z</time>
      </trkpt>
      <trkpt lat="43.77356" lon="5.52206">
        <ele>376</ele>
        <time>2021-07-21T08:51:17Z</time>
      </trkpt>
      <trkpt lat="43.77358" lon="5.52215">
        <ele>376</ele>
        <time>2021-07-21T08:51:18Z</time>
      </trkpt>
      <trkpt lat="43.77359" lon="5.52224">
        <ele>376</ele>
        <time>2021-07-21T08:51:19Z</time>
      </trkpt>
      <trkpt lat="43.7736" lon="5.52233">
        <ele>375</ele>
        <time>2021-07-21T08:51:20Z</time>
      </trkpt>
      <trkpt lat="43.7736" lon="5.52242">
        <ele>374</ele>
        <time>2021-07-21T08:51:21Z</time>
      </trkpt>
      <trkpt lat="43.77359" lon="5.52251">
        <ele>373</ele>
        <time>2021-07-21T08:51:22Z</time>
      </trkpt>
      <trkpt lat="43.77356" lon="5.52259">
        <ele>373</ele>
        <time>2021-07-21T08:51:23Z</time>
      </trkpt>
      <trkpt lat="43.77352" lon="5.52266">
        <ele>372</ele>
        <time>2021-07-21T08:51:24Z</time>
      </trkpt>
      <trkpt lat="43.77348" lon="5.52273">
        <ele>372</ele>
        <time>2021-07-21T08:51:25Z</time>
      </trkpt>
      <trkpt lat="43.77305" lon="5.52352">
        <ele>367</ele>
        <time>2021-07-21T08:51:35Z</time>
      </trkpt>
      <trkpt lat="43.77303" lon="5.52361">
        <ele>367</ele>
        <time>2021-07-21T08:51:36Z</time>
      </trkpt>
      <trkpt lat="43.77301" lon="5.52371">
        <ele>366</ele>
        <time>2021-07-21T08:51:37Z</time>
      </trkpt>
      <trkpt lat="43.77301" lon="5.5238">
        <ele>366</ele>
        <time>2021-07-21T08:51:38Z</time>
      </trkpt>
      <trkpt lat="43.77301" lon="5.5239">
        <ele>366</ele>
        <time>2021-07-21T08:51:39Z</time>
      </trkpt>
      <trkpt lat="43.77301" lon="5.52399">
        <ele>366</ele>
        <time>2021-07-21T08:51:40Z</time>
      </trkpt>
      <trkpt lat="43.77302" lon="5.5251">
        <ele>364</ele>
        <time>2021-07-21T08:51:54Z</time>
      </trkpt>
      <trkpt lat="43.77301" lon="5.52523">
        <ele>364</ele>
        <time>2021-07-21T08:51:56Z</time>
      </trkpt>
      <trkpt lat="43.77267" lon="5.52631">
        <ele>363</ele>
        <time>2021-07-21T08:52:15Z</time>
      </trkpt>
      <trkpt lat="43.7721" lon="5.52709">
        <ele>363</ele>
        <time>2021-07-21T08:52:33Z</time>
      </trkpt>
      <trkpt lat="43.7716" lon="5.52772">
        <ele>364</ele>
        <time>2021-07-21T08:52:49Z</time>
      </trkpt>
      <trkpt lat="43.77111" lon="5.52848">
        <ele>367</ele>
        <time>2021-07-21T08:53:08Z</time>
      </trkpt>
      <trkpt lat="43.77081" lon="5.52945">
        <ele>369</ele>
        <time>2021-07-21T08:53:25Z</time>
      </trkpt>
      <trkpt lat="43.77078" lon="5.53062">
        <ele>364</ele>
        <time>2021-07-21T08:53:37Z</time>
      </trkpt>
      <trkpt lat="43.77078" lon="5.53146">
        <ele>365</ele>
        <time>2021-07-21T08:53:48Z</time>
      </trkpt>
      <trkpt lat="43.77074" lon="5.53242">
        <ele>368</ele>
        <time>2021-07-21T08:54:07Z</time>
      </trkpt>
      <trkpt lat="43.77071" lon="5.53348">
        <ele>368</ele>
        <time>2021-07-21T08:54:26Z</time>
      </trkpt>
      <trkpt lat="43.77097" lon="5.53427">
        <ele>369</ele>
        <time>2021-07-21T08:54:42Z</time>
      </trkpt>
      <trkpt lat="43.77147" lon="5.53503">
        <ele>370</ele>
        <time>2021-07-21T08:55:01Z</time>
      </trkpt>
      <trkpt lat="43.77193" lon="5.5357">
        <ele>371</ele>
        <time>2021-07-21T08:55:18Z</time>
      </trkpt>
      <trkpt lat="43.77233" lon="5.53629">
        <ele>372</ele>
        <time>2021-07-21T08:55:33Z</time>
      </trkpt>
      <trkpt lat="43.77277" lon="5.53699">
        <ele>374</ele>
        <time>2021-07-21T08:55:50Z</time>
      </trkpt>
      <trkpt lat="43.77309" lon="5.53773">
        <ele>375</ele>
        <time>2021-07-21T08:56:06Z</time>
      </trkpt>
      <trkpt lat="43.77332" lon="5.53857">
        <ele>377</ele>
        <time>2021-07-21T08:56:25Z</time>
      </trkpt>
      <trkpt lat="43.77349" lon="5.5392">
        <ele>379</ele>
        <time>2021-07-21T08:56:40Z</time>
      </trkpt>
      <trkpt lat="43.77377" lon="5.54015">
        <ele>383</ele>
        <time>2021-07-21T08:57:03Z</time>
      </trkpt>
      <trkpt lat="43.77402" lon="5.54068">
        <ele>385</ele>
        <time>2021-07-21T08:57:18Z</time>
      </trkpt>
      <trkpt lat="43.7745" lon="5.54082">
        <ele>388</ele>
        <time>2021-07-21T08:57:33Z</time>
      </trkpt>
      <trkpt lat="43.77488" lon="5.54113">
        <ele>391</ele>
        <time>2021-07-21T08:57:47Z</time>
      </trkpt>
      <trkpt lat="43.77524" lon="5.54165">
        <ele>394</ele>
        <time>2021-07-21T08:58:03Z</time>
      </trkpt>
      <trkpt lat="43.77578" lon="5.54237">
        <ele>395</ele>
        <time>2021-07-21T08:58:25Z</time>
      </trkpt>
      <trkpt lat="43.77625" lon="5.54301">
        <ele>396</ele>
        <time>2021-07-21T08:58:44Z</time>
      </trkpt>
      <trkpt lat="43.77669" lon="5.54364">
        <ele>395</ele>
        <time>2021-07-21T08:59:00Z</time>
      </trkpt>
      <trkpt lat="43.7769" lon="5.54398">
        <ele>395</ele>
        <time>2021-07-21T08:59:07Z</time>
      </trkpt>
      <trkpt lat="43.77732" lon="5.54514">
        <ele>394</ele>
        <time>2021-07-21T08:59:27Z</time>
      </trkpt>
      <trkpt lat="43.77755" lon="5.54613">
        <ele>396</ele>
        <time>2021-07-21T08:59:44Z</time>
      </trkpt>
      <trkpt lat="43.77766" lon="5.54683">
        <ele>397</ele>
        <time>2021-07-21T08:59:56Z</time>
      </trkpt>
      <trkpt lat="43.7778" lon="5.54778">
        <ele>398</ele>
        <time>2021-07-21T09:00:13Z</time>
      </trkpt>
      <trkpt lat="43.778" lon="5.54851">
        <ele>401</ele>
        <time>2021-07-21T09:00:29Z</time>
      </trkpt>
      <trkpt lat="43.7782" lon="5.54917">
        <ele>399</ele>
        <time>2021-07-21T09:00:41Z</time>
      </trkpt>
      <trkpt lat="43.77822" lon="5.54923">
        <ele>399</ele>
        <time>2021-07-21T09:00:42Z</time>
      </trkpt>
      <trkpt lat="43.77846" lon="5.5503">
        <ele>398</ele>
        <time>2021-07-21T09:01:00Z</time>
      </trkpt>
      <trkpt lat="43.77852" lon="5.55087">
        <ele>398</ele>
        <time>2021-07-21T09:01:12Z</time>
      </trkpt>
      <trkpt lat="43.77861" lon="5.55181">
        <ele>403</ele>
        <time>2021-07-21T09:01:31Z</time>
      </trkpt>
      <trkpt lat="43.77875" lon="5.55275">
        <ele>407</ele>
        <time>2021-07-21T09:01:51Z</time>
      </trkpt>
      <trkpt lat="43.77893" lon="5.55357">
        <ele>412</ele>
        <time>2021-07-21T09:02:09Z</time>
      </trkpt>
      <trkpt lat="43.77915" lon="5.55414">
        <ele>412</ele>
        <time>2021-07-21T09:02:21Z</time>
      </trkpt>
      <trkpt lat="43.77959" lon="5.55485">
        <ele>408</ele>
        <time>2021-07-21T09:02:33Z</time>
      </trkpt>
      <trkpt lat="43.78034" lon="5.55604">
        <ele>404</ele>
        <time>2021-07-21T09:02:48Z</time>
      </trkpt>
      <trkpt lat="43.78056" lon="5.55702">
        <ele>403</ele>
        <time>2021-07-21T09:02:59Z</time>
      </trkpt>
      <trkpt lat="43.78058" lon="5.55709">
        <ele>403</ele>
        <time>2021-07-21T09:03:00Z</time>
      </trkpt>
      <trkpt lat="43.78062" lon="5.55715">
        <ele>403</ele>
        <time>2021-07-21T09:03:01Z</time>
      </trkpt>
      <trkpt lat="43.78065" lon="5.55721">
        <ele>403</ele>
        <time>2021-07-21T09:03:02Z</time>
      </trkpt>
      <trkpt lat="43.78119" lon="5.55791">
        <ele>403</ele>
        <time>2021-07-21T09:03:16Z</time>
      </trkpt>
      <trkpt lat="43.78162" lon="5.55854">
        <ele>404</ele>
        <time>2021-07-21T09:03:28Z</time>
      </trkpt>
      <trkpt lat="43.78164" lon="5.5586">
        <ele>404</ele>
        <time>2021-07-21T09:03:29Z</time>
      </trkpt>
      <trkpt lat="43.78166" lon="5.55867">
        <ele>404</ele>
        <time>2021-07-21T09:03:30Z</time>
      </trkpt>
      <trkpt lat="43.78167" lon="5.55874">
        <ele>404</ele>
        <time>2021-07-21T09:03:31Z</time>
      </trkpt>
      <trkpt lat="43.78167" lon="5.55881">
        <ele>404</ele>
        <time>2021-07-21T09:03:32Z</time>
      </trkpt>
      <trkpt lat="43.78169" lon="5.55984">
        <ele>406</ele>
        <time>2021-07-21T09:03:49Z</time>
      </trkpt>
      <trkpt lat="43.7817" lon="5.56081">
        <ele>409</ele>
        <time>2021-07-21T09:04:06Z</time>
      </trkpt>
      <trkpt lat="43.78183" lon="5.56126">
        <ele>412</ele>
        <time>2021-07-21T09:04:17Z</time>
      </trkpt>
      <trkpt lat="43.78221" lon="5.5615">
        <ele>417</ele>
        <time>2021-07-21T09:04:30Z</time>
      </trkpt>
      <trkpt lat="43.78278" lon="5.56129">
        <ele>419</ele>
        <time>2021-07-21T09:04:46Z</time>
      </trkpt>
      <trkpt lat="43.78332" lon="5.56067">
        <ele>420</ele>
        <time>2021-07-21T09:05:04Z</time>
      </trkpt>
      <trkpt lat="43.7836" lon="5.55978">
        <ele>419</ele>
        <time>2021-07-21T09:05:21Z</time>
      </trkpt>
      <trkpt lat="43.78382" lon="5.55873">
        <ele>416</ele>
        <time>2021-07-21T09:05:34Z</time>
      </trkpt>
      <trkpt lat="43.78401" lon="5.55807">
        <ele>414</ele>
        <time>2021-07-21T09:05:41Z</time>
      </trkpt>
      <trkpt lat="43.78405" lon="5.55798">
        <ele>414</ele>
        <time>2021-07-21T09:05:42Z</time>
      </trkpt>
      <trkpt lat="43.78411" lon="5.55791">
        <ele>413</ele>
        <time>2021-07-21T09:05:43Z</time>
      </trkpt>
      <trkpt lat="43.78417" lon="5.55785">
        <ele>413</ele>
        <time>2021-07-21T09:05:44Z</time>
      </trkpt>
      <trkpt lat="43.78424" lon="5.55781">
        <ele>412</ele>
        <time>2021-07-21T09:05:45Z</time>
      </trkpt>
      <trkpt lat="43.78432" lon="5.55778">
        <ele>412</ele>
        <time>2021-07-21T09:05:46Z</time>
      </trkpt>
      <trkpt lat="43.78439" lon="5.55778">
        <ele>411</ele>
        <time>2021-07-21T09:05:47Z</time>
      </trkpt>
      <trkpt lat="43.78447" lon="5.55778">
        <ele>411</ele>
        <time>2021-07-21T09:05:48Z</time>
      </trkpt>
      <trkpt lat="43.78454" lon="5.55779">
        <ele>411</ele>
        <time>2021-07-21T09:05:49Z</time>
      </trkpt>
      <trkpt lat="43.78461" lon="5.55782">
        <ele>411</ele>
        <time>2021-07-21T09:05:50Z</time>
      </trkpt>
      <trkpt lat="43.78469" lon="5.55785">
        <ele>411</ele>
        <time>2021-07-21T09:05:51Z</time>
      </trkpt>
      <trkpt lat="43.78507" lon="5.55805">
        <ele>410</ele>
        <time>2021-07-21T09:05:57Z</time>
      </trkpt>
      <trkpt lat="43.78538" lon="5.55849">
        <ele>410</ele>
        <time>2021-07-21T09:06:04Z</time>
      </trkpt>
      <trkpt lat="43.78541" lon="5.55857">
        <ele>410</ele>
        <time>2021-07-21T09:06:05Z</time>
      </trkpt>
      <trkpt lat="43.78566" lon="5.55986">
        <ele>408</ele>
        <time>2021-07-21T09:06:22Z</time>
      </trkpt>
      <trkpt lat="43.78589" lon="5.56111">
        <ele>408</ele>
        <time>2021-07-21T09:06:39Z</time>
      </trkpt>
      <trkpt lat="43.78602" lon="5.56174">
        <ele>408</ele>
        <time>2021-07-21T09:06:48Z</time>
      </trkpt>
      <trkpt lat="43.78605" lon="5.5618">
        <ele>408</ele>
        <time>2021-07-21T09:06:49Z</time>
      </trkpt>
      <trkpt lat="43.78611" lon="5.56192">
        <ele>408</ele>
        <time>2021-07-21T09:06:51Z</time>
      </trkpt>
      <trkpt lat="43.78614" lon="5.56198">
        <ele>408</ele>
        <time>2021-07-21T09:06:52Z</time>
      </trkpt>
      <trkpt lat="43.78619" lon="5.56203">
        <ele>408</ele>
        <time>2021-07-21T09:06:53Z</time>
      </trkpt>
      <trkpt lat="43.78623" lon="5.56207">
        <ele>408</ele>
        <time>2021-07-21T09:06:54Z</time>
      </trkpt>
      <trkpt lat="43.78628" lon="5.56211">
        <ele>408</ele>
        <time>2021-07-21T09:06:55Z</time>
      </trkpt>
      <trkpt lat="43.78633" lon="5.56215">
        <ele>408</ele>
        <time>2021-07-21T09:06:56Z</time>
      </trkpt>
      <trkpt lat="43.78638" lon="5.56218">
        <ele>409</ele>
        <time>2021-07-21T09:06:57Z</time>
      </trkpt>
      <trkpt lat="43.7866" lon="5.56236">
        <ele>408</ele>
        <time>2021-07-21T09:07:01Z</time>
      </trkpt>
      <trkpt lat="43.78665" lon="5.56242">
        <ele>408</ele>
        <time>2021-07-21T09:07:02Z</time>
      </trkpt>
      <trkpt lat="43.7867" lon="5.56249">
        <ele>408</ele>
        <time>2021-07-21T09:07:03Z</time>
      </trkpt>
      <trkpt lat="43.78673" lon="5.56257">
        <ele>407</ele>
        <time>2021-07-21T09:07:04Z</time>
      </trkpt>
      <trkpt lat="43.78676" lon="5.56266">
        <ele>406</ele>
        <time>2021-07-21T09:07:05Z</time>
      </trkpt>
      <trkpt lat="43.78678" lon="5.56277">
        <ele>406</ele>
        <time>2021-07-21T09:07:06Z</time>
      </trkpt>
      <trkpt lat="43.7868" lon="5.56287">
        <ele>405</ele>
        <time>2021-07-21T09:07:07Z</time>
      </trkpt>
      <trkpt lat="43.78681" lon="5.56296">
        <ele>405</ele>
        <time>2021-07-21T09:07:08Z</time>
      </trkpt>
      <trkpt lat="43.787" lon="5.56508">
        <ele>400</ele>
        <time>2021-07-21T09:07:29Z</time>
      </trkpt>
      <trkpt lat="43.78712" lon="5.56659">
        <ele>396</ele>
        <time>2021-07-21T09:07:44Z</time>
      </trkpt>
      <trkpt lat="43.78714" lon="5.5668">
        <ele>395</ele>
        <time>2021-07-21T09:07:47Z</time>
      </trkpt>
      <trkpt lat="43.78716" lon="5.56699">
        <ele>394</ele>
        <time>2021-07-21T09:07:50Z</time>
      </trkpt>
      <trkpt lat="43.78721" lon="5.56753">
        <ele>394</ele>
        <time>2021-07-21T09:07:58Z</time>
      </trkpt>
      <trkpt lat="43.78722" lon="5.5676">
        <ele>394</ele>
        <time>2021-07-21T09:07:59Z</time>
      </trkpt>
      <trkpt lat="43.78723" lon="5.56767">
        <ele>394</ele>
        <time>2021-07-21T09:08:00Z</time>
      </trkpt>
      <trkpt lat="43.78729" lon="5.56852">
        <ele>398</ele>
        <time>2021-07-21T09:08:16Z</time>
      </trkpt>
      <trkpt lat="43.78737" lon="5.569">
        <ele>403</ele>
        <time>2021-07-21T09:08:28Z</time>
      </trkpt>
      <trkpt lat="43.78753" lon="5.56957">
        <ele>408</ele>
        <time>2021-07-21T09:08:42Z</time>
      </trkpt>
      <trkpt lat="43.78761" lon="5.56984">
        <ele>408</ele>
        <time>2021-07-21T09:08:49Z</time>
      </trkpt>
      <trkpt lat="43.78784" lon="5.5704">
        <ele>407</ele>
        <time>2021-07-21T09:09:02Z</time>
      </trkpt>
      <trkpt lat="43.78792" lon="5.57046">
        <ele>406</ele>
        <time>2021-07-21T09:09:04Z</time>
      </trkpt>
      <trkpt lat="43.78826" lon="5.57069">
        <ele>405</ele>
        <time>2021-07-21T09:09:12Z</time>
      </trkpt>
      <trkpt lat="43.78831" lon="5.57072">
        <ele>405</ele>
        <time>2021-07-21T09:09:13Z</time>
      </trkpt>
      <trkpt lat="43.78835" lon="5.57077">
        <ele>404</ele>
        <time>2021-07-21T09:09:14Z</time>
      </trkpt>
      <trkpt lat="43.78839" lon="5.57082">
        <ele>404</ele>
        <time>2021-07-21T09:09:15Z</time>
      </trkpt>
      <trkpt lat="43.78843" lon="5.57087">
        <ele>404</ele>
        <time>2021-07-21T09:09:16Z</time>
      </trkpt>
      <trkpt lat="43.78847" lon="5.57092">
        <ele>404</ele>
        <time>2021-07-21T09:09:17Z</time>
      </trkpt>
      <trkpt lat="43.78851" lon="5.57098">
        <ele>404</ele>
        <time>2021-07-21T09:09:18Z</time>
      </trkpt>
      <trkpt lat="43.78854" lon="5.57105">
        <ele>404</ele>
        <time>2021-07-21T09:09:19Z</time>
      </trkpt>
      <trkpt lat="43.78892" lon="5.57218">
        <ele>401</ele>
        <time>2021-07-21T09:09:35Z</time>
      </trkpt>
      <trkpt lat="43.78929" lon="5.57371">
        <ele>399</ele>
        <time>2021-07-21T09:09:55Z</time>
      </trkpt>
      <trkpt lat="43.78964" lon="5.57513">
        <ele>397</ele>
        <time>2021-07-21T09:10:15Z</time>
      </trkpt>
      <trkpt lat="43.78999" lon="5.57635">
        <ele>397</ele>
        <time>2021-07-21T09:10:33Z</time>
      </trkpt>
      <trkpt lat="43.79031" lon="5.5774">
        <ele>398</ele>
        <time>2021-07-21T09:10:51Z</time>
      </trkpt>
      <trkpt lat="43.79049" lon="5.57802">
        <ele>399</ele>
        <time>2021-07-21T09:11:02Z</time>
      </trkpt>
      <trkpt lat="43.79066" lon="5.57902">
        <ele>398</ele>
        <time>2021-07-21T09:11:19Z</time>
      </trkpt>
      <trkpt lat="43.79071" lon="5.57944">
        <ele>398</ele>
        <time>2021-07-21T09:11:26Z</time>
      </trkpt>
      <trkpt lat="43.79078" lon="5.58002">
        <ele>397</ele>
        <time>2021-07-21T09:11:36Z</time>
      </trkpt>
      <trkpt lat="43.79084" lon="5.58062">
        <ele>397</ele>
        <time>2021-07-21T09:11:47Z</time>
      </trkpt>
      <trkpt lat="43.79094" lon="5.58136">
        <ele>396</ele>
        <time>2021-07-21T09:12:00Z</time>
      </trkpt>
      <trkpt lat="43.79095" lon="5.58142">
        <ele>396</ele>
        <time>2021-07-21T09:12:01Z</time>
      </trkpt>
      <trkpt lat="43.79097" lon="5.58148">
        <ele>397</ele>
        <time>2021-07-21T09:12:02Z</time>
      </trkpt>
      <trkpt lat="43.791" lon="5.58154">
        <ele>397</ele>
        <time>2021-07-21T09:12:03Z</time>
      </trkpt>
      <trkpt lat="43.79102" lon="5.58159">
        <ele>397</ele>
        <time>2021-07-21T09:12:04Z</time>
      </trkpt>
      <trkpt lat="43.79123" lon="5.582">
        <ele>396</ele>
        <time>2021-07-21T09:12:11Z</time>
      </trkpt>
      <trkpt lat="43.79125" lon="5.58207">
        <ele>396</ele>
        <time>2021-07-21T09:12:12Z</time>
      </trkpt>
      <trkpt lat="43.79126" lon="5.58213">
        <ele>395</ele>
        <time>2021-07-21T09:12:13Z</time>
      </trkpt>
      <trkpt lat="43.7914" lon="5.58312">
        <ele>398</ele>
        <time>2021-07-21T09:12:29Z</time>
      </trkpt>
      <trkpt lat="43.7916" lon="5.58408">
        <ele>401</ele>
        <time>2021-07-21T09:12:47Z</time>
      </trkpt>
      <trkpt lat="43.79166" lon="5.58429">
        <ele>401</ele>
        <time>2021-07-21T09:12:51Z</time>
      </trkpt>
      <trkpt lat="43.79175" lon="5.58465">
        <ele>401</ele>
        <time>2021-07-21T09:12:57Z</time>
      </trkpt>
      <trkpt lat="43.79193" lon="5.58575">
        <ele>398</ele>
        <time>2021-07-21T09:13:10Z</time>
      </trkpt>
      <trkpt lat="43.79186" lon="5.58642">
        <ele>396</ele>
        <time>2021-07-21T09:13:16Z</time>
      </trkpt>
      <trkpt lat="43.79183" lon="5.58654">
        <ele>395</ele>
        <time>2021-07-21T09:13:17Z</time>
      </trkpt>
      <trkpt lat="43.7918" lon="5.58665">
        <ele>395</ele>
        <time>2021-07-21T09:13:18Z</time>
      </trkpt>
      <trkpt lat="43.79175" lon="5.58675">
        <ele>394</ele>
        <time>2021-07-21T09:13:19Z</time>
      </trkpt>
      <trkpt lat="43.7917" lon="5.58685">
        <ele>393</ele>
        <time>2021-07-21T09:13:20Z</time>
      </trkpt>
      <trkpt lat="43.79165" lon="5.58695">
        <ele>393</ele>
        <time>2021-07-21T09:13:21Z</time>
      </trkpt>
      <trkpt lat="43.79131" lon="5.58765">
        <ele>389</ele>
        <time>2021-07-21T09:13:28Z</time>
      </trkpt>
      <trkpt lat="43.79128" lon="5.58775">
        <ele>389</ele>
        <time>2021-07-21T09:13:29Z</time>
      </trkpt>
      <trkpt lat="43.79124" lon="5.58799">
        <ele>387</ele>
        <time>2021-07-21T09:13:31Z</time>
      </trkpt>
      <trkpt lat="43.79123" lon="5.58812">
        <ele>386</ele>
        <time>2021-07-21T09:13:32Z</time>
      </trkpt>
      <trkpt lat="43.79123" lon="5.58824">
        <ele>385</ele>
        <time>2021-07-21T09:13:33Z</time>
      </trkpt>
      <trkpt lat="43.79124" lon="5.58837">
        <ele>385</ele>
        <time>2021-07-21T09:13:34Z</time>
      </trkpt>
      <trkpt lat="43.79125" lon="5.58851">
        <ele>384</ele>
        <time>2021-07-21T09:13:35Z</time>
      </trkpt>
      <trkpt lat="43.79144" lon="5.59028">
        <ele>377</ele>
        <time>2021-07-21T09:13:49Z</time>
      </trkpt>
      <trkpt lat="43.7916" lon="5.5919">
        <ele>371</ele>
        <time>2021-07-21T09:14:02Z</time>
      </trkpt>
      <trkpt lat="43.7916" lon="5.59204">
        <ele>371</ele>
        <time>2021-07-21T09:14:03Z</time>
      </trkpt>
      <trkpt lat="43.79159" lon="5.59217">
        <ele>370</ele>
        <time>2021-07-21T09:14:04Z</time>
      </trkpt>
      <trkpt lat="43.79157" lon="5.5923">
        <ele>370</ele>
        <time>2021-07-21T09:14:05Z</time>
      </trkpt>
      <trkpt lat="43.79155" lon="5.59243">
        <ele>370</ele>
        <time>2021-07-21T09:14:06Z</time>
      </trkpt>
      <trkpt lat="43.79145" lon="5.59309">
        <ele>371</ele>
        <time>2021-07-21T09:14:14Z</time>
      </trkpt>
      <trkpt lat="43.79154" lon="5.59371">
        <ele>376</ele>
        <time>2021-07-21T09:14:26Z</time>
      </trkpt>
      <trkpt lat="43.79181" lon="5.59453">
        <ele>380</ele>
        <time>2021-07-21T09:14:42Z</time>
      </trkpt>
      <trkpt lat="43.79184" lon="5.59465">
        <ele>381</ele>
        <time>2021-07-21T09:14:44Z</time>
      </trkpt>
      <trkpt lat="43.79204" lon="5.59581">
        <ele>382</ele>
        <time>2021-07-21T09:15:03Z</time>
      </trkpt>
      <trkpt lat="43.79225" lon="5.59724">
        <ele>384</ele>
        <time>2021-07-21T09:15:26Z</time>
      </trkpt>
      <trkpt lat="43.79222" lon="5.59782">
        <ele>384</ele>
        <time>2021-07-21T09:15:36Z</time>
      </trkpt>
      <trkpt lat="43.79193" lon="5.59903">
        <ele>384</ele>
        <time>2021-07-21T09:15:56Z</time>
      </trkpt>
      <trkpt lat="43.79192" lon="5.59909">
        <ele>384</ele>
        <time>2021-07-21T09:15:57Z</time>
      </trkpt>
      <trkpt lat="43.79191" lon="5.59915">
        <ele>383</ele>
        <time>2021-07-21T09:15:58Z</time>
      </trkpt>
      <trkpt lat="43.79168" lon="5.60011">
        <ele>383</ele>
        <time>2021-07-21T09:16:14Z</time>
      </trkpt>
      <trkpt lat="43.79148" lon="5.60091">
        <ele>384</ele>
        <time>2021-07-21T09:16:28Z</time>
      </trkpt>
      <trkpt lat="43.79146" lon="5.60097">
        <ele>384</ele>
        <time>2021-07-21T09:16:29Z</time>
      </trkpt>
      <trkpt lat="43.79128" lon="5.60181">
        <ele>382</ele>
        <time>2021-07-21T09:16:43Z</time>
      </trkpt>
      <trkpt lat="43.79104" lon="5.60276">
        <ele>380</ele>
        <time>2021-07-21T09:16:58Z</time>
      </trkpt>
      <trkpt lat="43.79075" lon="5.60399">
        <ele>377</ele>
        <time>2021-07-21T09:17:17Z</time>
      </trkpt>
      <trkpt lat="43.79046" lon="5.6051">
        <ele>376</ele>
        <time>2021-07-21T09:17:35Z</time>
      </trkpt>
      <trkpt lat="43.79037" lon="5.60531">
        <ele>377</ele>
        <time>2021-07-21T09:17:39Z</time>
      </trkpt>
      <trkpt lat="43.79034" lon="5.60535">
        <ele>377</ele>
        <time>2021-07-21T09:17:40Z</time>
      </trkpt>
      <trkpt lat="43.79016" lon="5.60554">
        <ele>377</ele>
        <time>2021-07-21T09:17:45Z</time>
      </trkpt>
      <trkpt lat="43.79012" lon="5.60556">
        <ele>377</ele>
        <time>2021-07-21T09:17:46Z</time>
      </trkpt>
      <trkpt lat="43.79008" lon="5.60558">
        <ele>378</ele>
        <time>2021-07-21T09:17:47Z</time>
      </trkpt>
      <trkpt lat="43.78971" lon="5.60571">
        <ele>379</ele>
        <time>2021-07-21T09:17:56Z</time>
      </trkpt>
      <trkpt lat="43.78915" lon="5.60591">
        <ele>381</ele>
        <time>2021-07-21T09:18:11Z</time>
      </trkpt>
      <trkpt lat="43.78858" lon="5.60628">
        <ele>384</ele>
        <time>2021-07-21T09:18:28Z</time>
      </trkpt>
      <trkpt lat="43.78827" lon="5.60701">
        <ele>385</ele>
        <time>2021-07-21T09:18:45Z</time>
      </trkpt>
      <trkpt lat="43.78818" lon="5.60754">
        <ele>387</ele>
        <time>2021-07-21T09:19:00Z</time>
      </trkpt>
      <trkpt lat="43.78818" lon="5.60755">
        <ele>385</ele>
        <time>2021-07-21T09:19:24Z</time>
      </trkpt>
      <trkpt lat="43.78818" lon="5.60754">
        <ele>385</ele>
        <time>2021-07-21T09:19:50Z</time>
      </trkpt>
      <trkpt lat="43.78819" lon="5.60755">
        <ele>387</ele>
        <time>2021-07-21T09:20:05Z</time>
      </trkpt>
      <trkpt lat="43.78819" lon="5.60757">
        <ele>387</ele>
        <time>2021-07-21T09:20:07Z</time>
      </trkpt>
      <trkpt lat="43.78818" lon="5.6076">
        <ele>387</ele>
        <time>2021-07-21T09:20:08Z</time>
      </trkpt>
      <trkpt lat="43.7882" lon="5.60824">
        <ele>387</ele>
        <time>2021-07-21T09:20:20Z</time>
      </trkpt>
      <trkpt lat="43.78823" lon="5.60894">
        <ele>388</ele>
        <time>2021-07-21T09:20:31Z</time>
      </trkpt>
      <trkpt lat="43.78824" lon="5.609">
        <ele>388</ele>
        <time>2021-07-21T09:20:32Z</time>
      </trkpt>
      <trkpt lat="43.78825" lon="5.60955">
        <ele>386</ele>
        <time>2021-07-21T09:20:41Z</time>
      </trkpt>
      <trkpt lat="43.78812" lon="5.61032">
        <ele>389</ele>
        <time>2021-07-21T09:20:56Z</time>
      </trkpt>
      <trkpt lat="43.78777" lon="5.61143">
        <ele>391</ele>
        <time>2021-07-21T09:21:19Z</time>
      </trkpt>
      <trkpt lat="43.7874" lon="5.61255">
        <ele>390</ele>
        <time>2021-07-21T09:21:40Z</time>
      </trkpt>
      <trkpt lat="43.78727" lon="5.61342">
        <ele>389</ele>
        <time>2021-07-21T09:21:54Z</time>
      </trkpt>
      <trkpt lat="43.78719" lon="5.61455">
        <ele>388</ele>
        <time>2021-07-21T09:22:12Z</time>
      </trkpt>
      <trkpt lat="43.78711" lon="5.61586">
        <ele>387</ele>
        <time>2021-07-21T09:22:32Z</time>
      </trkpt>
      <trkpt lat="43.78717" lon="5.61712">
        <ele>385</ele>
        <time>2021-07-21T09:22:50Z</time>
      </trkpt>
      <trkpt lat="43.7873" lon="5.61844">
        <ele>385</ele>
        <time>2021-07-21T09:23:09Z</time>
      </trkpt>
      <trkpt lat="43.78739" lon="5.61953">
        <ele>386</ele>
        <time>2021-07-21T09:23:27Z</time>
      </trkpt>
      <trkpt lat="43.7874" lon="5.62049">
        <ele>388</ele>
        <time>2021-07-21T09:23:44Z</time>
      </trkpt>
      <trkpt lat="43.78724" lon="5.62135">
        <ele>389</ele>
        <time>2021-07-21T09:24:00Z</time>
      </trkpt>
      <trkpt lat="43.78707" lon="5.6224">
        <ele>390</ele>
        <time>2021-07-21T09:24:19Z</time>
      </trkpt>
      <trkpt lat="43.78705" lon="5.62246">
        <ele>390</ele>
        <time>2021-07-21T09:24:20Z</time>
      </trkpt>
      <trkpt lat="43.7867" lon="5.62337">
        <ele>391</ele>
        <time>2021-07-21T09:24:37Z</time>
      </trkpt>
      <trkpt lat="43.78652" lon="5.62384">
        <ele>391</ele>
        <time>2021-07-21T09:24:46Z</time>
      </trkpt>
      <trkpt lat="43.78643" lon="5.62405">
        <ele>391</ele>
        <time>2021-07-21T09:24:50Z</time>
      </trkpt>
      <trkpt lat="43.78599" lon="5.62495">
        <ele>391</ele>
        <time>2021-07-21T09:25:08Z</time>
      </trkpt>
      <trkpt lat="43.78545" lon="5.62564">
        <ele>392</ele>
        <time>2021-07-21T09:25:26Z</time>
      </trkpt>
      <trkpt lat="43.78499" lon="5.62591">
        <ele>390</ele>
        <time>2021-07-21T09:25:41Z</time>
      </trkpt>
      <trkpt lat="43.78501" lon="5.62622">
        <ele>391</ele>
        <time>2021-07-21T09:25:48Z</time>
      </trkpt>
      <trkpt lat="43.78491" lon="5.62708">
        <ele>392</ele>
        <time>2021-07-21T09:26:04Z</time>
      </trkpt>
      <trkpt lat="43.78465" lon="5.62807">
        <ele>395</ele>
        <time>2021-07-21T09:26:22Z</time>
      </trkpt>
      <trkpt lat="43.78437" lon="5.62898">
        <ele>397</ele>
        <time>2021-07-21T09:26:38Z</time>
      </trkpt>
      <trkpt lat="43.7842" lon="5.62995">
        <ele>400</ele>
        <time>2021-07-21T09:26:56Z</time>
      </trkpt>
      <trkpt lat="43.78405" lon="5.63094">
        <ele>403</ele>
        <time>2021-07-21T09:27:16Z</time>
      </trkpt>
      <trkpt lat="43.78394" lon="5.63173">
        <ele>406</ele>
        <time>2021-07-21T09:27:32Z</time>
      </trkpt>
      <trkpt lat="43.78415" lon="5.63228">
        <ele>409</ele>
        <time>2021-07-21T09:27:45Z</time>
      </trkpt>
      <trkpt lat="43.78452" lon="5.63292">
        <ele>410</ele>
        <time>2021-07-21T09:28:03Z</time>
      </trkpt>
      <trkpt lat="43.78479" lon="5.63332">
        <ele>411</ele>
        <time>2021-07-21T09:28:16Z</time>
      </trkpt>
      <trkpt lat="43.78518" lon="5.63373">
        <ele>415</ele>
        <time>2021-07-21T09:28:32Z</time>
      </trkpt>
      <trkpt lat="43.78552" lon="5.63414">
        <ele>420</ele>
        <time>2021-07-21T09:28:46Z</time>
      </trkpt>
      <trkpt lat="43.78575" lon="5.63456">
        <ele>420</ele>
        <time>2021-07-21T09:29:00Z</time>
      </trkpt>
      <trkpt lat="43.78572" lon="5.63472">
        <ele>420</ele>
        <time>2021-07-21T09:29:05Z</time>
      </trkpt>
      <trkpt lat="43.7857" lon="5.63472">
        <ele>419</ele>
        <time>2021-07-21T09:29:06Z</time>
      </trkpt>
      <trkpt lat="43.78569" lon="5.63472">
        <ele>419</ele>
        <time>2021-07-21T09:29:07Z</time>
      </trkpt>
      <trkpt lat="43.78567" lon="5.63471">
        <ele>419</ele>
        <time>2021-07-21T09:29:08Z</time>
      </trkpt>
      <trkpt lat="43.78566" lon="5.6347">
        <ele>419</ele>
        <time>2021-07-21T09:29:09Z</time>
      </trkpt>
      <trkpt lat="43.78565" lon="5.6347">
        <ele>419</ele>
        <time>2021-07-21T09:29:10Z</time>
      </trkpt>
      <trkpt lat="43.78563" lon="5.63469">
        <ele>419</ele>
        <time>2021-07-21T09:29:11Z</time>
      </trkpt>
      <trkpt lat="43.7854" lon="5.63455">
        <ele>420</ele>
        <time>2021-07-21T09:29:22Z</time>
      </trkpt>
      <trkpt lat="43.78521" lon="5.63446">
        <ele>421</ele>
        <time>2021-07-21T09:29:32Z</time>
      </trkpt>
      <trkpt lat="43.78518" lon="5.63446">
        <ele>421</ele>
        <time>2021-07-21T09:29:34Z</time>
      </trkpt>
      <trkpt lat="43.78502" lon="5.63463">
        <ele>416</ele>
        <time>2021-07-21T09:29:42Z</time>
      </trkpt>
      <trkpt lat="43.78474" lon="5.63465">
        <ele>404</ele>
        <time>2021-07-21T09:29:54Z</time>
      </trkpt>
      <trkpt lat="43.7846" lon="5.63479">
        <ele>400</ele>
        <time>2021-07-21T09:30:03Z</time>
      </trkpt>
      <trkpt lat="43.78459" lon="5.63481">
        <ele>400</ele>
        <time>2021-07-21T09:30:04Z</time>
      </trkpt>
      <trkpt lat="43.7846" lon="5.63483">
        <ele>400</ele>
        <time>2021-07-21T09:30:05Z</time>
      </trkpt>
      <trkpt lat="43.78461" lon="5.63486">
        <ele>401</ele>
        <time>2021-07-21T09:30:06Z</time>
      </trkpt>
      <trkpt lat="43.78462" lon="5.63489">
        <ele>401</ele>
        <time>2021-07-21T09:30:07Z</time>
      </trkpt>
      <trkpt lat="43.78464" lon="5.63506">
        <ele>406</ele>
        <time>2021-07-21T09:30:12Z</time>
      </trkpt>
      <trkpt lat="43.78463" lon="5.63508">
        <ele>408</ele>
        <time>2021-07-21T09:30:13Z</time>
      </trkpt>
      <trkpt lat="43.7846" lon="5.63513">
        <ele>411</ele>
        <time>2021-07-21T09:30:15Z</time>
      </trkpt>
      <trkpt lat="43.78459" lon="5.63516">
        <ele>413</ele>
        <time>2021-07-21T09:30:16Z</time>
      </trkpt>
      <trkpt lat="43.78457" lon="5.63518">
        <ele>414</ele>
        <time>2021-07-21T09:30:17Z</time>
      </trkpt>
      <trkpt lat="43.78456" lon="5.63521">
        <ele>414</ele>
        <time>2021-07-21T09:30:18Z</time>
      </trkpt>
      <trkpt lat="43.78453" lon="5.63523">
        <ele>415</ele>
        <time>2021-07-21T09:30:19Z</time>
      </trkpt>
      <trkpt lat="43.78451" lon="5.63524">
        <ele>416</ele>
        <time>2021-07-21T09:30:20Z</time>
      </trkpt>
      <trkpt lat="43.78449" lon="5.63525">
        <ele>417</ele>
        <time>2021-07-21T09:30:21Z</time>
      </trkpt>
      <trkpt lat="43.78448" lon="5.63526">
        <ele>417</ele>
        <time>2021-07-21T09:30:22Z</time>
      </trkpt>
      <trkpt lat="43.78428" lon="5.63539">
        <ele>422</ele>
        <time>2021-07-21T09:30:34Z</time>
      </trkpt>
      <trkpt lat="43.78427" lon="5.63541">
        <ele>422</ele>
        <time>2021-07-21T09:30:35Z</time>
      </trkpt>
      <trkpt lat="43.78426" lon="5.63543">
        <ele>422</ele>
        <time>2021-07-21T09:30:36Z</time>
      </trkpt>
      <trkpt lat="43.78426" lon="5.63546">
        <ele>423</ele>
        <time>2021-07-21T09:30:37Z</time>
      </trkpt>
      <trkpt lat="43.78425" lon="5.63548">
        <ele>423</ele>
        <time>2021-07-21T09:30:38Z</time>
      </trkpt>
      <trkpt lat="43.78424" lon="5.6355">
        <ele>424</ele>
        <time>2021-07-21T09:30:39Z</time>
      </trkpt>
      <trkpt lat="43.78423" lon="5.63553">
        <ele>424</ele>
        <time>2021-07-21T09:30:40Z</time>
      </trkpt>
      <trkpt lat="43.7841" lon="5.63604">
        <ele>424</ele>
        <time>2021-07-21T09:30:56Z</time>
      </trkpt>
      <trkpt lat="43.78405" lon="5.63653">
        <ele>425</ele>
        <time>2021-07-21T09:31:11Z</time>
      </trkpt>
      <trkpt lat="43.78403" lon="5.63667">
        <ele>426</ele>
        <time>2021-07-21T09:31:16Z</time>
      </trkpt>
      <trkpt lat="43.78403" lon="5.63669">
        <ele>426</ele>
        <time>2021-07-21T09:31:17Z</time>
      </trkpt>
      <trkpt lat="43.78402" lon="5.63671">
        <ele>426</ele>
        <time>2021-07-21T09:31:18Z</time>
      </trkpt>
      <trkpt lat="43.78402" lon="5.63672">
        <ele>426</ele>
        <time>2021-07-21T09:31:19Z</time>
      </trkpt>
      <trkpt lat="43.78401" lon="5.63675">
        <ele>426</ele>
        <time>2021-07-21T09:31:20Z</time>
      </trkpt>
      <trkpt lat="43.78401" lon="5.63677">
        <ele>426</ele>
        <time>2021-07-21T09:31:21Z</time>
      </trkpt>
      <trkpt lat="43.78401" lon="5.63681">
        <ele>426</ele>
        <time>2021-07-21T09:31:23Z</time>
      </trkpt>
      <trkpt lat="43.78402" lon="5.63683">
        <ele>426</ele>
        <time>2021-07-21T09:31:24Z</time>
      </trkpt>
      <trkpt lat="43.78403" lon="5.63683">
        <ele>426</ele>
        <time>2021-07-21T09:31:25Z</time>
      </trkpt>
      <trkpt lat="43.78404" lon="5.63669">
        <ele>425</ele>
        <time>2021-07-21T09:31:34Z</time>
      </trkpt>
      <trkpt lat="43.78404" lon="5.63658">
        <ele>424</ele>
        <time>2021-07-21T09:31:39Z</time>
      </trkpt>
      <trkpt lat="43.78406" lon="5.63654">
        <ele>423</ele>
        <time>2021-07-21T09:31:42Z</time>
      </trkpt>
      <trkpt lat="43.7841" lon="5.63662">
        <ele>422</ele>
        <time>2021-07-21T09:31:48Z</time>
      </trkpt>
      <trkpt lat="43.7841" lon="5.63665">
        <ele>422</ele>
        <time>2021-07-21T09:31:49Z</time>
      </trkpt>
      <trkpt lat="43.78428" lon="5.63711">
        <ele>420</ele>
        <time>2021-07-21T09:32:04Z</time>
      </trkpt>
      <trkpt lat="43.78453" lon="5.63736">
        <ele>417</ele>
        <time>2021-07-21T09:32:16Z</time>
      </trkpt>
      <trkpt lat="43.7847" lon="5.63743">
        <ele>419</ele>
        <time>2021-07-21T09:32:24Z</time>
      </trkpt>
      <trkpt lat="43.78472" lon="5.6374">
        <ele>419</ele>
        <time>2021-07-21T09:32:26Z</time>
      </trkpt>
      <trkpt lat="43.7847" lon="5.63725">
        <ele>419</ele>
        <time>2021-07-21T09:32:33Z</time>
      </trkpt>
      <trkpt lat="43.78454" lon="5.63692">
        <ele>418</ele>
        <time>2021-07-21T09:32:46Z</time>
      </trkpt>
      <trkpt lat="43.78434" lon="5.63674">
        <ele>421</ele>
        <time>2021-07-21T09:32:57Z</time>
      </trkpt>
      <trkpt lat="43.7843" lon="5.63669">
        <ele>421</ele>
        <time>2021-07-21T09:33:08Z</time>
      </trkpt>
      <trkpt lat="43.78427" lon="5.63665">
        <ele>422</ele>
        <time>2021-07-21T09:33:22Z</time>
      </trkpt>
      <trkpt lat="43.78426" lon="5.63664">
        <ele>420</ele>
        <time>2021-07-21T09:33:37Z</time>
      </trkpt>
      <trkpt lat="43.78427" lon="5.63662">
        <ele>421</ele>
        <time>2021-07-21T09:33:55Z</time>
      </trkpt>
      <trkpt lat="43.78425" lon="5.63663">
        <ele>423</ele>
        <time>2021-07-21T09:34:26Z</time>
      </trkpt>
      <trkpt lat="43.78426" lon="5.63668">
        <ele>420</ele>
        <time>2021-07-21T09:34:55Z</time>
      </trkpt>
      <trkpt lat="43.78425" lon="5.63661">
        <ele>419</ele>
        <time>2021-07-21T09:35:35Z</time>
      </trkpt>
      <trkpt lat="43.78426" lon="5.63659">
        <ele>416</ele>
        <time>2021-07-21T09:36:03Z</time>
      </trkpt>
      <trkpt lat="43.78423" lon="5.63658">
        <ele>416</ele>
        <time>2021-07-21T09:36:30Z</time>
      </trkpt>
      <trkpt lat="43.78426" lon="5.63667">
        <ele>417</ele>
        <time>2021-07-21T09:36:55Z</time>
      </trkpt>
      <trkpt lat="43.78424" lon="5.63663">
        <ele>413</ele>
        <time>2021-07-21T09:37:28Z</time>
      </trkpt>
      <trkpt lat="43.78426" lon="5.63656">
        <ele>413</ele>
        <time>2021-07-21T09:38:03Z</time>
      </trkpt>
      <trkpt lat="43.78428" lon="5.63659">
        <ele>416</ele>
        <time>2021-07-21T09:38:41Z</time>
      </trkpt>
      <trkpt lat="43.78429" lon="5.63666">
        <ele>417</ele>
        <time>2021-07-21T09:39:09Z</time>
      </trkpt>
      <trkpt lat="43.78428" lon="5.6367">
        <ele>413</ele>
        <time>2021-07-21T09:39:37Z</time>
      </trkpt>
      <trkpt lat="43.78428" lon="5.63669">
        <ele>415</ele>
        <time>2021-07-21T09:40:04Z</time>
      </trkpt>
      <trkpt lat="43.78424" lon="5.6366">
        <ele>415</ele>
        <time>2021-07-21T09:40:25Z</time>
      </trkpt>
      <trkpt lat="43.78426" lon="5.6366">
        <ele>414</ele>
        <time>2021-07-21T09:40:43Z</time>
      </trkpt>
      <trkpt lat="43.78427" lon="5.63663">
        <ele>419</ele>
        <time>2021-07-21T09:41:04Z</time>
      </trkpt>
      <trkpt lat="43.78429" lon="5.63666">
        <ele>421</ele>
        <time>2021-07-21T09:41:24Z</time>
      </trkpt>
      <trkpt lat="43.78426" lon="5.63661">
        <ele>414</ele>
        <time>2021-07-21T09:41:42Z</time>
      </trkpt>
      <trkpt lat="43.78425" lon="5.63656">
        <ele>417</ele>
        <time>2021-07-21T09:42:05Z</time>
      </trkpt>
      <trkpt lat="43.78426" lon="5.6366">
        <ele>416</ele>
        <time>2021-07-21T09:42:30Z</time>
      </trkpt>
      <trkpt lat="43.78426" lon="5.6366">
        <ele>414</ele>
        <time>2021-07-21T09:42:49Z</time>
      </trkpt>
      <trkpt lat="43.78423" lon="5.63658">
        <ele>416</ele>
        <time>2021-07-21T09:43:12Z</time>
      </trkpt>
      <trkpt lat="43.78427" lon="5.63657">
        <ele>420</ele>
        <time>2021-07-21T09:43:32Z</time>
      </trkpt>
      <trkpt lat="43.78428" lon="5.63661">
        <ele>418</ele>
        <time>2021-07-21T09:43:56Z</time>
      </trkpt>
      <trkpt lat="43.78427" lon="5.63662">
        <ele>421</ele>
        <time>2021-07-21T09:44:23Z</time>
      </trkpt>
      <trkpt lat="43.78429" lon="5.63661">
        <ele>420</ele>
        <time>2021-07-21T09:44:44Z</time>
      </trkpt>
      <trkpt lat="43.7843" lon="5.63666">
        <ele>418</ele>
        <time>2021-07-21T09:45:12Z</time>
      </trkpt>
      <trkpt lat="43.78427" lon="5.63663">
        <ele>418</ele>
        <time>2021-07-21T09:45:39Z</time>
      </trkpt>
      <trkpt lat="43.78425" lon="5.63655">
        <ele>415</ele>
        <time>2021-07-21T09:46:05Z</time>
      </trkpt>
      <trkpt lat="43.78426" lon="5.63663">
        <ele>415</ele>
        <time>2021-07-21T09:46:28Z</time>
      </trkpt>
      <trkpt lat="43.78429" lon="5.63667">
        <ele>416</ele>
        <time>2021-07-21T09:46:52Z</time>
      </trkpt>
      <trkpt lat="43.78429" lon="5.63666">
        <ele>414</ele>
        <time>2021-07-21T09:47:20Z</time>
      </trkpt>
      <trkpt lat="43.78427" lon="5.63666">
        <ele>414</ele>
        <time>2021-07-21T09:47:49Z</time>
      </trkpt>
      <trkpt lat="43.78427" lon="5.63662">
        <ele>414</ele>
        <time>2021-07-21T09:48:21Z</time>
      </trkpt>
      <trkpt lat="43.78427" lon="5.63663">
        <ele>421</ele>
        <time>2021-07-21T09:48:46Z</time>
      </trkpt>
      <trkpt lat="43.78429" lon="5.63666">
        <ele>420</ele>
        <time>2021-07-21T09:49:08Z</time>
      </trkpt>
      <trkpt lat="43.7843" lon="5.63673">
        <ele>421</ele>
        <time>2021-07-21T09:49:35Z</time>
      </trkpt>
      <trkpt lat="43.7843" lon="5.63673">
        <ele>418</ele>
        <time>2021-07-21T09:49:59Z</time>
      </trkpt>
      <trkpt lat="43.78433" lon="5.63673">
        <ele>417</ele>
        <time>2021-07-21T09:50:17Z</time>
      </trkpt>
      <trkpt lat="43.78432" lon="5.63667">
        <ele>420</ele>
        <time>2021-07-21T09:50:33Z</time>
      </trkpt>
      <trkpt lat="43.7843" lon="5.6367">
        <ele>419</ele>
        <time>2021-07-21T09:50:54Z</time>
      </trkpt>
      <trkpt lat="43.78429" lon="5.63669">
        <ele>417</ele>
        <time>2021-07-21T09:51:15Z</time>
      </trkpt>
      <trkpt lat="43.78428" lon="5.63667">
        <ele>415</ele>
        <time>2021-07-21T09:51:42Z</time>
      </trkpt>
      <trkpt lat="43.78426" lon="5.6367">
        <ele>414</ele>
        <time>2021-07-21T09:51:59Z</time>
      </trkpt>
      <trkpt lat="43.78428" lon="5.63673">
        <ele>410</ele>
        <time>2021-07-21T09:52:19Z</time>
      </trkpt>
      <trkpt lat="43.78426" lon="5.63671">
        <ele>408</ele>
        <time>2021-07-21T09:52:41Z</time>
      </trkpt>
      <trkpt lat="43.78426" lon="5.63671">
        <ele>409</ele>
        <time>2021-07-21T09:52:57Z</time>
      </trkpt>
      <trkpt lat="43.78428" lon="5.63672">
        <ele>411</ele>
        <time>2021-07-21T09:53:15Z</time>
      </trkpt>
      <trkpt lat="43.78423" lon="5.63671">
        <ele>411</ele>
        <time>2021-07-21T09:53:33Z</time>
      </trkpt>
      <trkpt lat="43.78425" lon="5.63663">
        <ele>411</ele>
        <time>2021-07-21T09:53:53Z</time>
      </trkpt>
      <trkpt lat="43.78427" lon="5.63666">
        <ele>414</ele>
        <time>2021-07-21T09:54:25Z</time>
      </trkpt>
      <trkpt lat="43.78425" lon="5.63664">
        <ele>413</ele>
        <time>2021-07-21T09:54:53Z</time>
      </trkpt>
      <trkpt lat="43.78425" lon="5.63664">
        <ele>416</ele>
        <time>2021-07-21T09:55:25Z</time>
      </trkpt>
      <trkpt lat="43.78426" lon="5.63667">
        <ele>417</ele>
        <time>2021-07-21T09:55:48Z</time>
      </trkpt>
      <trkpt lat="43.7843" lon="5.6367">
        <ele>415</ele>
        <time>2021-07-21T09:56:13Z</time>
      </trkpt>
      <trkpt lat="43.78432" lon="5.63673">
        <ele>414</ele>
        <time>2021-07-21T09:56:33Z</time>
      </trkpt>
      <trkpt lat="43.7843" lon="5.63669">
        <ele>416</ele>
        <time>2021-07-21T09:56:53Z</time>
      </trkpt>
      <trkpt lat="43.78426" lon="5.63663">
        <ele>414</ele>
        <time>2021-07-21T09:57:25Z</time>
      </trkpt>
      <trkpt lat="43.78427" lon="5.63665">
        <ele>413</ele>
        <time>2021-07-21T09:57:58Z</time>
      </trkpt>
      <trkpt lat="43.78428" lon="5.6367">
        <ele>411</ele>
        <time>2021-07-21T09:58:27Z</time>
      </trkpt>
      <trkpt lat="43.78428" lon="5.6367">
        <ele>411</ele>
        <time>2021-07-21T09:58:54Z</time>
      </trkpt>
      <trkpt lat="43.78426" lon="5.63667">
        <ele>414</ele>
        <time>2021-07-21T09:59:16Z</time>
      </trkpt>
      <trkpt lat="43.78429" lon="5.63666">
        <ele>413</ele>
        <time>2021-07-21T09:59:47Z</time>
      </trkpt>
      <trkpt lat="43.78427" lon="5.63665">
        <ele>409</ele>
        <time>2021-07-21T10:00:08Z</time>
      </trkpt>
      <trkpt lat="43.78425" lon="5.63663">
        <ele>409</ele>
        <time>2021-07-21T10:00:36Z</time>
      </trkpt>
      <trkpt lat="43.78424" lon="5.63662">
        <ele>410</ele>
        <time>2021-07-21T10:00:57Z</time>
      </trkpt>
      <trkpt lat="43.78424" lon="5.63663">
        <ele>414</ele>
        <time>2021-07-21T10:01:27Z</time>
      </trkpt>
      <trkpt lat="43.78424" lon="5.63661">
        <ele>418</ele>
        <time>2021-07-21T10:01:52Z</time>
      </trkpt>
      <trkpt lat="43.78426" lon="5.63666">
        <ele>416</ele>
        <time>2021-07-21T10:02:19Z</time>
      </trkpt>
      <trkpt lat="43.78429" lon="5.63661">
        <ele>416</ele>
        <time>2021-07-21T10:02:49Z</time>
      </trkpt>
      <trkpt lat="43.78424" lon="5.63658">
        <ele>418</ele>
        <time>2021-07-21T10:03:23Z</time>
      </trkpt>
      <trkpt lat="43.78425" lon="5.6366">
        <ele>418</ele>
        <time>2021-07-21T10:03:56Z</time>
      </trkpt>
      <trkpt lat="43.78421" lon="5.63652">
        <ele>421</ele>
        <time>2021-07-21T10:04:23Z</time>
      </trkpt>
      <trkpt lat="43.78423" lon="5.63657">
        <ele>419</ele>
        <time>2021-07-21T10:04:57Z</time>
      </trkpt>
      <trkpt lat="43.78427" lon="5.6366">
        <ele>419</ele>
        <time>2021-07-21T10:05:28Z</time>
      </trkpt>
      <trkpt lat="43.78427" lon="5.63662">
        <ele>415</ele>
        <time>2021-07-21T10:05:53Z</time>
      </trkpt>
      <trkpt lat="43.78425" lon="5.6366">
        <ele>415</ele>
        <time>2021-07-21T10:06:32Z</time>
      </trkpt>
      <trkpt lat="43.78421" lon="5.63658">
        <ele>418</ele>
        <time>2021-07-21T10:07:03Z</time>
      </trkpt>
      <trkpt lat="43.78424" lon="5.63662">
        <ele>417</ele>
        <time>2021-07-21T10:07:41Z</time>
      </trkpt>
      <trkpt lat="43.78425" lon="5.63663">
        <ele>417</ele>
        <time>2021-07-21T10:08:10Z</time>
      </trkpt>
      <trkpt lat="43.78426" lon="5.63664">
        <ele>419</ele>
        <time>2021-07-21T10:08:31Z</time>
      </trkpt>
      <trkpt lat="43.78428" lon="5.63669">
        <ele>413</ele>
        <time>2021-07-21T10:09:09Z</time>
      </trkpt>
      <trkpt lat="43.78426" lon="5.63669">
        <ele>418</ele>
        <time>2021-07-21T10:09:47Z</time>
      </trkpt>
      <trkpt lat="43.78426" lon="5.63663">
        <ele>420</ele>
        <time>2021-07-21T10:10:22Z</time>
      </trkpt>
      <trkpt lat="43.78427" lon="5.63663">
        <ele>421</ele>
        <time>2021-07-21T10:10:46Z</time>
      </trkpt>
      <trkpt lat="43.78429" lon="5.63663">
        <ele>418</ele>
        <time>2021-07-21T10:11:14Z</time>
      </trkpt>
      <trkpt lat="43.78421" lon="5.63662">
        <ele>413</ele>
        <time>2021-07-21T10:11:51Z</time>
      </trkpt>
      <trkpt lat="43.78424" lon="5.63664">
        <ele>412</ele>
        <time>2021-07-21T10:12:19Z</time>
      </trkpt>
      <trkpt lat="43.78426" lon="5.63665">
        <ele>419</ele>
        <time>2021-07-21T10:12:57Z</time>
      </trkpt>
      <trkpt lat="43.78428" lon="5.63665">
        <ele>420</ele>
        <time>2021-07-21T10:13:26Z</time>
      </trkpt>
      <trkpt lat="43.78426" lon="5.63664">
        <ele>416</ele>
        <time>2021-07-21T10:13:57Z</time>
      </trkpt>
      <trkpt lat="43.78425" lon="5.63664">
        <ele>417</ele>
        <time>2021-07-21T10:14:27Z</time>
      </trkpt>
      <trkpt lat="43.78423" lon="5.63663">
        <ele>416</ele>
        <time>2021-07-21T10:14:54Z</time>
      </trkpt>
      <trkpt lat="43.78422" lon="5.63662">
        <ele>422</ele>
        <time>2021-07-21T10:15:30Z</time>
      </trkpt>
      <trkpt lat="43.78423" lon="5.63664">
        <ele>422</ele>
        <time>2021-07-21T10:15:56Z</time>
      </trkpt>
      <trkpt lat="43.78426" lon="5.63664">
        <ele>426</ele>
        <time>2021-07-21T10:16:37Z</time>
      </trkpt>
      <trkpt lat="43.78423" lon="5.63661">
        <ele>423</ele>
        <time>2021-07-21T10:17:11Z</time>
      </trkpt>
      <trkpt lat="43.78422" lon="5.6366">
        <ele>420</ele>
        <time>2021-07-21T10:17:45Z</time>
      </trkpt>
      <trkpt lat="43.78424" lon="5.6366">
        <ele>420</ele>
        <time>2021-07-21T10:18:23Z</time>
      </trkpt>
      <trkpt lat="43.78424" lon="5.63661">
        <ele>420</ele>
        <time>2021-07-21T10:18:54Z</time>
      </trkpt>
      <trkpt lat="43.78425" lon="5.63661">
        <ele>420</ele>
        <time>2021-07-21T10:19:31Z</time>
      </trkpt>
      <trkpt lat="43.78425" lon="5.63656">
        <ele>423</ele>
        <time>2021-07-21T10:20:02Z</time>
      </trkpt>
      <trkpt lat="43.78421" lon="5.63664">
        <ele>423</ele>
        <time>2021-07-21T10:20:42Z</time>
      </trkpt>
      <trkpt lat="43.78426" lon="5.63663">
        <ele>422</ele>
        <time>2021-07-21T10:21:30Z</time>
      </trkpt>
      <trkpt lat="43.78424" lon="5.63665">
        <ele>418</ele>
        <time>2021-07-21T10:22:10Z</time>
      </trkpt>
      <trkpt lat="43.78428" lon="5.63668">
        <ele>419</ele>
        <time>2021-07-21T10:22:38Z</time>
      </trkpt>
      <trkpt lat="43.78428" lon="5.63659">
        <ele>418</ele>
        <time>2021-07-21T10:23:13Z</time>
      </trkpt>
      <trkpt lat="43.78424" lon="5.63661">
        <ele>420</ele>
        <time>2021-07-21T10:23:45Z</time>
      </trkpt>
      <trkpt lat="43.78422" lon="5.63663">
        <ele>425</ele>
        <time>2021-07-21T10:24:27Z</time>
      </trkpt>
      <trkpt lat="43.78421" lon="5.63662">
        <ele>425</ele>
        <time>2021-07-21T10:25:01Z</time>
      </trkpt>
      <trkpt lat="43.78422" lon="5.63664">
        <ele>426</ele>
        <time>2021-07-21T10:25:28Z</time>
      </trkpt>
      <trkpt lat="43.78427" lon="5.63657">
        <ele>423</ele>
        <time>2021-07-21T10:25:55Z</time>
      </trkpt>
      <trkpt lat="43.78422" lon="5.63656">
        <ele>423</ele>
        <time>2021-07-21T10:26:23Z</time>
      </trkpt>
      <trkpt lat="43.78425" lon="5.63662">
        <ele>430</ele>
        <time>2021-07-21T10:26:51Z</time>
      </trkpt>
      <trkpt lat="43.78424" lon="5.63661">
        <ele>428</ele>
        <time>2021-07-21T10:27:21Z</time>
      </trkpt>
      <trkpt lat="43.78429" lon="5.63664">
        <ele>421</ele>
        <time>2021-07-21T10:27:54Z</time>
      </trkpt>
      <trkpt lat="43.78425" lon="5.63659">
        <ele>426</ele>
        <time>2021-07-21T10:28:24Z</time>
      </trkpt>
      <trkpt lat="43.78421" lon="5.63661">
        <ele>431</ele>
        <time>2021-07-21T10:28:53Z</time>
      </trkpt>
      <trkpt lat="43.78422" lon="5.63662">
        <ele>430</ele>
        <time>2021-07-21T10:29:20Z</time>
      </trkpt>
      <trkpt lat="43.78417" lon="5.63663">
        <ele>423</ele>
        <time>2021-07-21T10:29:49Z</time>
      </trkpt>
      <trkpt lat="43.78419" lon="5.63657">
        <ele>422</ele>
        <time>2021-07-21T10:30:17Z</time>
      </trkpt>
      <trkpt lat="43.78418" lon="5.63661">
        <ele>426</ele>
        <time>2021-07-21T10:30:45Z</time>
      </trkpt>
      <trkpt lat="43.78418" lon="5.63662">
        <ele>427</ele>
        <time>2021-07-21T10:31:13Z</time>
      </trkpt>
      <trkpt lat="43.78418" lon="5.63663">
        <ele>426</ele>
        <time>2021-07-21T10:31:48Z</time>
      </trkpt>
      <trkpt lat="43.78421" lon="5.63662">
        <ele>425</ele>
        <time>2021-07-21T10:32:30Z</time>
      </trkpt>
      <trkpt lat="43.78423" lon="5.63662">
        <ele>427</ele>
        <time>2021-07-21T10:32:55Z</time>
      </trkpt>
      <trkpt lat="43.78424" lon="5.63663">
        <ele>431</ele>
        <time>2021-07-21T10:33:36Z</time>
      </trkpt>
      <trkpt lat="43.78428" lon="5.63669">
        <ele>425</ele>
        <time>2021-07-21T10:34:12Z</time>
      </trkpt>
      <trkpt lat="43.78428" lon="5.6367">
        <ele>428</ele>
        <time>2021-07-21T10:34:39Z</time>
      </trkpt>
      <trkpt lat="43.78423" lon="5.63664">
        <ele>426</ele>
        <time>2021-07-21T10:35:09Z</time>
      </trkpt>
      <trkpt lat="43.78421" lon="5.63666">
        <ele>427</ele>
        <time>2021-07-21T10:35:34Z</time>
      </trkpt>
      <trkpt lat="43.78421" lon="5.63665">
        <ele>425</ele>
        <time>2021-07-21T10:35:52Z</time>
      </trkpt>
      <trkpt lat="43.78423" lon="5.6366">
        <ele>423</ele>
        <time>2021-07-21T10:36:15Z</time>
      </trkpt>
      <trkpt lat="43.78423" lon="5.63659">
        <ele>425</ele>
        <time>2021-07-21T10:36:40Z</time>
      </trkpt>
      <trkpt lat="43.78422" lon="5.63663">
        <ele>426</ele>
        <time>2021-07-21T10:37:10Z</time>
      </trkpt>
      <trkpt lat="43.7842" lon="5.63663">
        <ele>424</ele>
        <time>2021-07-21T10:37:37Z</time>
      </trkpt>
      <trkpt lat="43.78422" lon="5.63662">
        <ele>424</ele>
        <time>2021-07-21T10:38:09Z</time>
      </trkpt>
      <trkpt lat="43.78423" lon="5.63663">
        <ele>425</ele>
        <time>2021-07-21T10:38:35Z</time>
      </trkpt>
      <trkpt lat="43.78424" lon="5.63661">
        <ele>419</ele>
        <time>2021-07-21T10:39:08Z</time>
      </trkpt>
      <trkpt lat="43.78422" lon="5.63661">
        <ele>419</ele>
        <time>2021-07-21T10:39:36Z</time>
      </trkpt>
      <trkpt lat="43.7842" lon="5.63662">
        <ele>424</ele>
        <time>2021-07-21T10:39:53Z</time>
      </trkpt>
      <trkpt lat="43.7842" lon="5.63663">
        <ele>426</ele>
        <time>2021-07-21T10:40:16Z</time>
      </trkpt>
      <trkpt lat="43.7842" lon="5.63658">
        <ele>427</ele>
        <time>2021-07-21T10:40:50Z</time>
      </trkpt>
      <trkpt lat="43.78421" lon="5.63662">
        <ele>431</ele>
        <time>2021-07-21T10:41:10Z</time>
      </trkpt>
      <trkpt lat="43.78423" lon="5.63663">
        <ele>429</ele>
        <time>2021-07-21T10:41:27Z</time>
      </trkpt>
      <trkpt lat="43.78428" lon="5.63667">
        <ele>424</ele>
        <time>2021-07-21T10:41:52Z</time>
      </trkpt>
      <trkpt lat="43.78434" lon="5.6367">
        <ele>424</ele>
        <time>2021-07-21T10:41:56Z</time>
      </trkpt>
      <trkpt lat="43.78446" lon="5.63682">
        <ele>425</ele>
        <time>2021-07-21T10:42:05Z</time>
      </trkpt>
      <trkpt lat="43.78471" lon="5.63696">
        <ele>425</ele>
        <time>2021-07-21T10:42:19Z</time>
      </trkpt>
      <trkpt lat="43.78473" lon="5.63706">
        <ele>426</ele>
        <time>2021-07-21T10:42:24Z</time>
      </trkpt>
      <trkpt lat="43.78474" lon="5.6372">
        <ele>426</ele>
        <time>2021-07-21T10:42:30Z</time>
      </trkpt>
      <trkpt lat="43.78477" lon="5.63741">
        <ele>426</ele>
        <time>2021-07-21T10:42:38Z</time>
      </trkpt>
      <trkpt lat="43.78475" lon="5.63749">
        <ele>426</ele>
        <time>2021-07-21T10:42:41Z</time>
      </trkpt>
      <trkpt lat="43.78479" lon="5.63756">
        <ele>426</ele>
        <time>2021-07-21T10:42:46Z</time>
      </trkpt>
      <trkpt lat="43.78506" lon="5.63778">
        <ele>428</ele>
        <time>2021-07-21T10:43:03Z</time>
      </trkpt>
      <trkpt lat="43.78535" lon="5.63802">
        <ele>430</ele>
        <time>2021-07-21T10:43:19Z</time>
      </trkpt>
      <trkpt lat="43.78558" lon="5.63832">
        <ele>430</ele>
        <time>2021-07-21T10:43:34Z</time>
      </trkpt>
      <trkpt lat="43.78577" lon="5.63864">
        <ele>432</ele>
        <time>2021-07-21T10:43:49Z</time>
      </trkpt>
      <trkpt lat="43.78588" lon="5.63879">
        <ele>433</ele>
        <time>2021-07-21T10:43:57Z</time>
      </trkpt>
      <trkpt lat="43.78589" lon="5.6388">
        <ele>433</ele>
        <time>2021-07-21T10:43:58Z</time>
      </trkpt>
      <trkpt lat="43.78591" lon="5.63881">
        <ele>432</ele>
        <time>2021-07-21T10:43:59Z</time>
      </trkpt>
      <trkpt lat="43.78594" lon="5.63882">
        <ele>432</ele>
        <time>2021-07-21T10:44:01Z</time>
      </trkpt>
      <trkpt lat="43.78599" lon="5.63881">
        <ele>433</ele>
        <time>2021-07-21T10:44:15Z</time>
      </trkpt>
      <trkpt lat="43.78601" lon="5.63885">
        <ele>434</ele>
        <time>2021-07-21T10:44:27Z</time>
      </trkpt>
      <trkpt lat="43.78601" lon="5.63887">
        <ele>434</ele>
        <time>2021-07-21T10:44:28Z</time>
      </trkpt>
      <trkpt lat="43.78601" lon="5.63889">
        <ele>434</ele>
        <time>2021-07-21T10:44:29Z</time>
      </trkpt>
      <trkpt lat="43.786" lon="5.63892">
        <ele>434</ele>
        <time>2021-07-21T10:44:30Z</time>
      </trkpt>
      <trkpt lat="43.78599" lon="5.63895">
        <ele>434</ele>
        <time>2021-07-21T10:44:31Z</time>
      </trkpt>
      <trkpt lat="43.78598" lon="5.63898">
        <ele>434</ele>
        <time>2021-07-21T10:44:32Z</time>
      </trkpt>
      <trkpt lat="43.786" lon="5.63956">
        <ele>437</ele>
        <time>2021-07-21T10:44:51Z</time>
      </trkpt>
      <trkpt lat="43.78607" lon="5.64">
        <ele>438</ele>
        <time>2021-07-21T10:45:05Z</time>
      </trkpt>
      <trkpt lat="43.78613" lon="5.64042">
        <ele>441</ele>
        <time>2021-07-21T10:45:18Z</time>
      </trkpt>
      <trkpt lat="43.78625" lon="5.64102">
        <ele>441</ele>
        <time>2021-07-21T10:45:35Z</time>
      </trkpt>
      <trkpt lat="43.78633" lon="5.64158">
        <ele>443</ele>
        <time>2021-07-21T10:45:50Z</time>
      </trkpt>
      <trkpt lat="43.78642" lon="5.64232">
        <ele>444</ele>
        <time>2021-07-21T10:46:08Z</time>
      </trkpt>
      <trkpt lat="43.78644" lon="5.64291">
        <ele>445</ele>
        <time>2021-07-21T10:46:22Z</time>
      </trkpt>
      <trkpt lat="43.78647" lon="5.64383">
        <ele>446</ele>
        <time>2021-07-21T10:46:41Z</time>
      </trkpt>
      <trkpt lat="43.7865" lon="5.64482">
        <ele>447</ele>
        <time>2021-07-21T10:47:01Z</time>
      </trkpt>
      <trkpt lat="43.78665" lon="5.6455">
        <ele>448</ele>
        <time>2021-07-21T10:47:16Z</time>
      </trkpt>
      <trkpt lat="43.7868" lon="5.64635">
        <ele>449</ele>
        <time>2021-07-21T10:47:35Z</time>
      </trkpt>
      <trkpt lat="43.78685" lon="5.64729">
        <ele>452</ele>
        <time>2021-07-21T10:47:55Z</time>
      </trkpt>
      <trkpt lat="43.7869" lon="5.64806">
        <ele>452</ele>
        <time>2021-07-21T10:48:12Z</time>
      </trkpt>
      <trkpt lat="43.78681" lon="5.64896">
        <ele>455</ele>
        <time>2021-07-21T10:48:31Z</time>
      </trkpt>
      <trkpt lat="43.78669" lon="5.64985">
        <ele>457</ele>
        <time>2021-07-21T10:48:51Z</time>
      </trkpt>
      <trkpt lat="43.78658" lon="5.65058">
        <ele>460</ele>
        <time>2021-07-21T10:49:08Z</time>
      </trkpt>
      <trkpt lat="43.78658" lon="5.65141">
        <ele>463</ele>
        <time>2021-07-21T10:49:26Z</time>
      </trkpt>
      <trkpt lat="43.78676" lon="5.65214">
        <ele>464</ele>
        <time>2021-07-21T10:49:43Z</time>
      </trkpt>
      <trkpt lat="43.78679" lon="5.65292">
        <ele>467</ele>
        <time>2021-07-21T10:50:00Z</time>
      </trkpt>
      <trkpt lat="43.78664" lon="5.65371">
        <ele>469</ele>
        <time>2021-07-21T10:50:17Z</time>
      </trkpt>
      <trkpt lat="43.78656" lon="5.65459">
        <ele>472</ele>
        <time>2021-07-21T10:50:36Z</time>
      </trkpt>
      <trkpt lat="43.78663" lon="5.65542">
        <ele>475</ele>
        <time>2021-07-21T10:50:53Z</time>
      </trkpt>
      <trkpt lat="43.78671" lon="5.65629">
        <ele>477</ele>
        <time>2021-07-21T10:51:11Z</time>
      </trkpt>
      <trkpt lat="43.78676" lon="5.65731">
        <ele>476</ele>
        <time>2021-07-21T10:51:32Z</time>
      </trkpt>
      <trkpt lat="43.78677" lon="5.65818">
        <ele>477</ele>
        <time>2021-07-21T10:51:50Z</time>
      </trkpt>
      <trkpt lat="43.78682" lon="5.65918">
        <ele>478</ele>
        <time>2021-07-21T10:52:11Z</time>
      </trkpt>
      <trkpt lat="43.78701" lon="5.6597">
        <ele>477</ele>
        <time>2021-07-21T10:52:21Z</time>
      </trkpt>
      <trkpt lat="43.78704" lon="5.65975">
        <ele>477</ele>
        <time>2021-07-21T10:52:22Z</time>
      </trkpt>
      <trkpt lat="43.78747" lon="5.66036">
        <ele>476</ele>
        <time>2021-07-21T10:52:32Z</time>
      </trkpt>
      <trkpt lat="43.78772" lon="5.66108">
        <ele>473</ele>
        <time>2021-07-21T10:52:40Z</time>
      </trkpt>
      <trkpt lat="43.78774" lon="5.66118">
        <ele>473</ele>
        <time>2021-07-21T10:52:41Z</time>
      </trkpt>
      <trkpt lat="43.78766" lon="5.66249">
        <ele>470</ele>
        <time>2021-07-21T10:52:54Z</time>
      </trkpt>
      <trkpt lat="43.78741" lon="5.66424">
        <ele>466</ele>
        <time>2021-07-21T10:53:11Z</time>
      </trkpt>
      <trkpt lat="43.78709" lon="5.66621">
        <ele>461</ele>
        <time>2021-07-21T10:53:30Z</time>
      </trkpt>
      <trkpt lat="43.78683" lon="5.66785">
        <ele>460</ele>
        <time>2021-07-21T10:53:46Z</time>
      </trkpt>
      <trkpt lat="43.78664" lon="5.66975">
        <ele>456</ele>
        <time>2021-07-21T10:54:03Z</time>
      </trkpt>
      <trkpt lat="43.78654" lon="5.67155">
        <ele>451</ele>
        <time>2021-07-21T10:54:19Z</time>
      </trkpt>
      <trkpt lat="43.7868" lon="5.67387">
        <ele>443</ele>
        <time>2021-07-21T10:54:37Z</time>
      </trkpt>
      <trkpt lat="43.78709" lon="5.67643">
        <ele>434</ele>
        <time>2021-07-21T10:54:56Z</time>
      </trkpt>
      <trkpt lat="43.78732" lon="5.67847">
        <ele>426</ele>
        <time>2021-07-21T10:55:11Z</time>
      </trkpt>
      <trkpt lat="43.78783" lon="5.67996">
        <ele>420</ele>
        <time>2021-07-21T10:55:23Z</time>
      </trkpt>
      <trkpt lat="43.78856" lon="5.68188">
        <ele>412</ele>
        <time>2021-07-21T10:55:38Z</time>
      </trkpt>
      <trkpt lat="43.78903" lon="5.68306">
        <ele>406</ele>
        <time>2021-07-21T10:55:48Z</time>
      </trkpt>
      <trkpt lat="43.78909" lon="5.68315">
        <ele>406</ele>
        <time>2021-07-21T10:55:49Z</time>
      </trkpt>
      <trkpt lat="43.78916" lon="5.68323">
        <ele>405</ele>
        <time>2021-07-21T10:55:50Z</time>
      </trkpt>
      <trkpt lat="43.78925" lon="5.68329">
        <ele>405</ele>
        <time>2021-07-21T10:55:51Z</time>
      </trkpt>
      <trkpt lat="43.78934" lon="5.68335">
        <ele>404</ele>
        <time>2021-07-21T10:55:52Z</time>
      </trkpt>
      <trkpt lat="43.78943" lon="5.68338">
        <ele>404</ele>
        <time>2021-07-21T10:55:53Z</time>
      </trkpt>
      <trkpt lat="43.78952" lon="5.68342">
        <ele>404</ele>
        <time>2021-07-21T10:55:54Z</time>
      </trkpt>
      <trkpt lat="43.7898" lon="5.68351">
        <ele>403</ele>
        <time>2021-07-21T10:55:57Z</time>
      </trkpt>
      <trkpt lat="43.78988" lon="5.68356">
        <ele>403</ele>
        <time>2021-07-21T10:55:58Z</time>
      </trkpt>
      <trkpt lat="43.78996" lon="5.68362">
        <ele>403</ele>
        <time>2021-07-21T10:55:59Z</time>
      </trkpt>
      <trkpt lat="43.79003" lon="5.68369">
        <ele>403</ele>
        <time>2021-07-21T10:56:00Z</time>
      </trkpt>
      <trkpt lat="43.79008" lon="5.68377">
        <ele>403</ele>
        <time>2021-07-21T10:56:01Z</time>
      </trkpt>
      <trkpt lat="43.79012" lon="5.68385">
        <ele>403</ele>
        <time>2021-07-21T10:56:02Z</time>
      </trkpt>
      <trkpt lat="43.79015" lon="5.68392">
        <ele>403</ele>
        <time>2021-07-21T10:56:03Z</time>
      </trkpt>
      <trkpt lat="43.79017" lon="5.684">
        <ele>403</ele>
        <time>2021-07-21T10:56:04Z</time>
      </trkpt>
      <trkpt lat="43.79018" lon="5.68407">
        <ele>404</ele>
        <time>2021-07-21T10:56:05Z</time>
      </trkpt>
      <trkpt lat="43.79019" lon="5.68413">
        <ele>404</ele>
        <time>2021-07-21T10:56:06Z</time>
      </trkpt>
      <trkpt lat="43.79019" lon="5.68419">
        <ele>404</ele>
        <time>2021-07-21T10:56:07Z</time>
      </trkpt>
      <trkpt lat="43.79019" lon="5.68425">
        <ele>405</ele>
        <time>2021-07-21T10:56:08Z</time>
      </trkpt>
      <trkpt lat="43.79013" lon="5.68477">
        <ele>410</ele>
        <time>2021-07-21T10:56:20Z</time>
      </trkpt>
      <trkpt lat="43.79031" lon="5.68529">
        <ele>413</ele>
        <time>2021-07-21T10:56:33Z</time>
      </trkpt>
      <trkpt lat="43.79048" lon="5.68576">
        <ele>416</ele>
        <time>2021-07-21T10:56:46Z</time>
      </trkpt>
      <trkpt lat="43.79075" lon="5.68651">
        <ele>414</ele>
        <time>2021-07-21T10:57:01Z</time>
      </trkpt>
      <trkpt lat="43.79104" lon="5.68748">
        <ele>411</ele>
        <time>2021-07-21T10:57:11Z</time>
      </trkpt>
      <trkpt lat="43.79126" lon="5.68898">
        <ele>406</ele>
        <time>2021-07-21T10:57:23Z</time>
      </trkpt>
      <trkpt lat="43.79124" lon="5.68949">
        <ele>406</ele>
        <time>2021-07-21T10:57:28Z</time>
      </trkpt>
      <trkpt lat="43.79127" lon="5.68971">
        <ele>407</ele>
        <time>2021-07-21T10:57:31Z</time>
      </trkpt>
      <trkpt lat="43.7913" lon="5.68984">
        <ele>408</ele>
        <time>2021-07-21T10:57:33Z</time>
      </trkpt>
      <trkpt lat="43.79161" lon="5.69052">
        <ele>412</ele>
        <time>2021-07-21T10:57:47Z</time>
      </trkpt>
      <trkpt lat="43.79203" lon="5.69112">
        <ele>410</ele>
        <time>2021-07-21T10:58:01Z</time>
      </trkpt>
      <trkpt lat="43.79288" lon="5.69174">
        <ele>402</ele>
        <time>2021-07-21T10:58:13Z</time>
      </trkpt>
      <trkpt lat="43.79296" lon="5.69184">
        <ele>402</ele>
        <time>2021-07-21T10:58:14Z</time>
      </trkpt>
      <trkpt lat="43.79348" lon="5.69269">
        <ele>399</ele>
        <time>2021-07-21T10:58:22Z</time>
      </trkpt>
      <trkpt lat="43.79356" lon="5.69278">
        <ele>398</ele>
        <time>2021-07-21T10:58:23Z</time>
      </trkpt>
      <trkpt lat="43.79365" lon="5.69286">
        <ele>397</ele>
        <time>2021-07-21T10:58:24Z</time>
      </trkpt>
      <trkpt lat="43.79376" lon="5.69293">
        <ele>396</ele>
        <time>2021-07-21T10:58:25Z</time>
      </trkpt>
      <trkpt lat="43.79387" lon="5.693">
        <ele>395</ele>
        <time>2021-07-21T10:58:26Z</time>
      </trkpt>
      <trkpt lat="43.79398" lon="5.69305">
        <ele>393</ele>
        <time>2021-07-21T10:58:27Z</time>
      </trkpt>
      <trkpt lat="43.7941" lon="5.69309">
        <ele>392</ele>
        <time>2021-07-21T10:58:28Z</time>
      </trkpt>
      <trkpt lat="43.79422" lon="5.69315">
        <ele>391</ele>
        <time>2021-07-21T10:58:29Z</time>
      </trkpt>
      <trkpt lat="43.79433" lon="5.69323">
        <ele>390</ele>
        <time>2021-07-21T10:58:30Z</time>
      </trkpt>
      <trkpt lat="43.79444" lon="5.69333">
        <ele>389</ele>
        <time>2021-07-21T10:58:31Z</time>
      </trkpt>
      <trkpt lat="43.79455" lon="5.69344">
        <ele>388</ele>
        <time>2021-07-21T10:58:32Z</time>
      </trkpt>
      <trkpt lat="43.79465" lon="5.69356">
        <ele>387</ele>
        <time>2021-07-21T10:58:33Z</time>
      </trkpt>
      <trkpt lat="43.79474" lon="5.69369">
        <ele>386</ele>
        <time>2021-07-21T10:58:34Z</time>
      </trkpt>
      <trkpt lat="43.79511" lon="5.69426">
        <ele>386</ele>
        <time>2021-07-21T10:58:39Z</time>
      </trkpt>
      <trkpt lat="43.79516" lon="5.69436">
        <ele>387</ele>
        <time>2021-07-21T10:58:40Z</time>
      </trkpt>
      <trkpt lat="43.79528" lon="5.69483">
        <ele>392</ele>
        <time>2021-07-21T10:58:48Z</time>
      </trkpt>
      <trkpt lat="43.79536" lon="5.69558">
        <ele>397</ele>
        <time>2021-07-21T10:59:05Z</time>
      </trkpt>
      <trkpt lat="43.79559" lon="5.69632">
        <ele>397</ele>
        <time>2021-07-21T10:59:20Z</time>
      </trkpt>
      <trkpt lat="43.79568" lon="5.69648">
        <ele>397</ele>
        <time>2021-07-21T10:59:23Z</time>
      </trkpt>
      <trkpt lat="43.79609" lon="5.69703">
        <ele>395</ele>
        <time>2021-07-21T10:59:34Z</time>
      </trkpt>
      <trkpt lat="43.79612" lon="5.69708">
        <ele>395</ele>
        <time>2021-07-21T10:59:35Z</time>
      </trkpt>
      <trkpt lat="43.7963" lon="5.69731">
        <ele>395</ele>
        <time>2021-07-21T10:59:40Z</time>
      </trkpt>
      <trkpt lat="43.79633" lon="5.69736">
        <ele>395</ele>
        <time>2021-07-21T10:59:41Z</time>
      </trkpt>
      <trkpt lat="43.79679" lon="5.69846">
        <ele>397</ele>
        <time>2021-07-21T11:00:01Z</time>
      </trkpt>
      <trkpt lat="43.79713" lon="5.69919">
        <ele>401</ele>
        <time>2021-07-21T11:00:17Z</time>
      </trkpt>
      <trkpt lat="43.79733" lon="5.69945">
        <ele>402</ele>
        <time>2021-07-21T11:00:24Z</time>
      </trkpt>
      <trkpt lat="43.79736" lon="5.69948">
        <ele>402</ele>
        <time>2021-07-21T11:00:25Z</time>
      </trkpt>
      <trkpt lat="43.7974" lon="5.69951">
        <ele>402</ele>
        <time>2021-07-21T11:00:26Z</time>
      </trkpt>
      <trkpt lat="43.79752" lon="5.69961">
        <ele>401</ele>
        <time>2021-07-21T11:00:29Z</time>
      </trkpt>
      <trkpt lat="43.79757" lon="5.69963">
        <ele>401</ele>
        <time>2021-07-21T11:00:30Z</time>
      </trkpt>
      <trkpt lat="43.79761" lon="5.69966">
        <ele>401</ele>
        <time>2021-07-21T11:00:31Z</time>
      </trkpt>
      <trkpt lat="43.79765" lon="5.69967">
        <ele>401</ele>
        <time>2021-07-21T11:00:32Z</time>
      </trkpt>
      <trkpt lat="43.79769" lon="5.69969">
        <ele>401</ele>
        <time>2021-07-21T11:00:33Z</time>
      </trkpt>
      <trkpt lat="43.79773" lon="5.69971">
        <ele>401</ele>
        <time>2021-07-21T11:00:34Z</time>
      </trkpt>
      <trkpt lat="43.79792" lon="5.69978">
        <ele>401</ele>
        <time>2021-07-21T11:00:38Z</time>
      </trkpt>
      <trkpt lat="43.79797" lon="5.6998">
        <ele>401</ele>
        <time>2021-07-21T11:00:39Z</time>
      </trkpt>
      <trkpt lat="43.79836" lon="5.70014">
        <ele>399</ele>
        <time>2021-07-21T11:00:47Z</time>
      </trkpt>
      <trkpt lat="43.7984" lon="5.70019">
        <ele>399</ele>
        <time>2021-07-21T11:00:48Z</time>
      </trkpt>
      <trkpt lat="43.79887" lon="5.70101">
        <ele>401</ele>
        <time>2021-07-21T11:01:04Z</time>
      </trkpt>
      <trkpt lat="43.79915" lon="5.70149">
        <ele>404</ele>
        <time>2021-07-21T11:01:15Z</time>
      </trkpt>
      <trkpt lat="43.79918" lon="5.70153">
        <ele>404</ele>
        <time>2021-07-21T11:01:16Z</time>
      </trkpt>
      <trkpt lat="43.79938" lon="5.70185">
        <ele>404</ele>
        <time>2021-07-21T11:01:23Z</time>
      </trkpt>
      <trkpt lat="43.7998" lon="5.70238">
        <ele>403</ele>
        <time>2021-07-21T11:01:36Z</time>
      </trkpt>
      <trkpt lat="43.79984" lon="5.70241">
        <ele>404</ele>
        <time>2021-07-21T11:01:37Z</time>
      </trkpt>
      <trkpt lat="43.79988" lon="5.70243">
        <ele>404</ele>
        <time>2021-07-21T11:01:38Z</time>
      </trkpt>
      <trkpt lat="43.80059" lon="5.70266">
        <ele>405</ele>
        <time>2021-07-21T11:01:55Z</time>
      </trkpt>
      <trkpt lat="43.80131" lon="5.70287">
        <ele>407</ele>
        <time>2021-07-21T11:02:14Z</time>
      </trkpt>
      <trkpt lat="43.80192" lon="5.70303">
        <ele>410</ele>
        <time>2021-07-21T11:02:32Z</time>
      </trkpt>
      <trkpt lat="43.80254" lon="5.70321">
        <ele>413</ele>
        <time>2021-07-21T11:02:50Z</time>
      </trkpt>
      <trkpt lat="43.80304" lon="5.70333">
        <ele>414</ele>
        <time>2021-07-21T11:03:07Z</time>
      </trkpt>
      <trkpt lat="43.80334" lon="5.70343">
        <ele>415</ele>
        <time>2021-07-21T11:03:19Z</time>
      </trkpt>
      <trkpt lat="43.8038" lon="5.70379">
        <ele>417</ele>
        <time>2021-07-21T11:03:35Z</time>
      </trkpt>
      <trkpt lat="43.80415" lon="5.7044">
        <ele>420</ele>
        <time>2021-07-21T11:03:52Z</time>
      </trkpt>
      <trkpt lat="43.8045" lon="5.70499">
        <ele>418</ele>
        <time>2021-07-21T11:04:05Z</time>
      </trkpt>
      <trkpt lat="43.80452" lon="5.70506">
        <ele>418</ele>
        <time>2021-07-21T11:04:06Z</time>
      </trkpt>
      <trkpt lat="43.80464" lon="5.70549">
        <ele>416</ele>
        <time>2021-07-21T11:04:11Z</time>
      </trkpt>
      <trkpt lat="43.80469" lon="5.7059">
        <ele>415</ele>
        <time>2021-07-21T11:04:15Z</time>
      </trkpt>
      <trkpt lat="43.80473" lon="5.70632">
        <ele>414</ele>
        <time>2021-07-21T11:04:19Z</time>
      </trkpt>
      <trkpt lat="43.80476" lon="5.70642">
        <ele>414</ele>
        <time>2021-07-21T11:04:20Z</time>
      </trkpt>
      <trkpt lat="43.8048" lon="5.70651">
        <ele>414</ele>
        <time>2021-07-21T11:04:21Z</time>
      </trkpt>
      <trkpt lat="43.80485" lon="5.70659">
        <ele>413</ele>
        <time>2021-07-21T11:04:22Z</time>
      </trkpt>
      <trkpt lat="43.80491" lon="5.70666">
        <ele>413</ele>
        <time>2021-07-21T11:04:23Z</time>
      </trkpt>
      <trkpt lat="43.80499" lon="5.70671">
        <ele>412</ele>
        <time>2021-07-21T11:04:24Z</time>
      </trkpt>
      <trkpt lat="43.80507" lon="5.70672">
        <ele>412</ele>
        <time>2021-07-21T11:04:25Z</time>
      </trkpt>
      <trkpt lat="43.80516" lon="5.70672">
        <ele>412</ele>
        <time>2021-07-21T11:04:26Z</time>
      </trkpt>
      <trkpt lat="43.80524" lon="5.70669">
        <ele>412</ele>
        <time>2021-07-21T11:04:27Z</time>
      </trkpt>
      <trkpt lat="43.80532" lon="5.70665">
        <ele>411</ele>
        <time>2021-07-21T11:04:28Z</time>
      </trkpt>
      <trkpt lat="43.8054" lon="5.7066">
        <ele>411</ele>
        <time>2021-07-21T11:04:29Z</time>
      </trkpt>
      <trkpt lat="43.80549" lon="5.70658">
        <ele>410</ele>
        <time>2021-07-21T11:04:30Z</time>
      </trkpt>
      <trkpt lat="43.80558" lon="5.70658">
        <ele>409</ele>
        <time>2021-07-21T11:04:31Z</time>
      </trkpt>
      <trkpt lat="43.80566" lon="5.70662">
        <ele>408</ele>
        <time>2021-07-21T11:04:32Z</time>
      </trkpt>
      <trkpt lat="43.80574" lon="5.70668">
        <ele>408</ele>
        <time>2021-07-21T11:04:33Z</time>
      </trkpt>
      <trkpt lat="43.8058" lon="5.70677">
        <ele>407</ele>
        <time>2021-07-21T11:04:34Z</time>
      </trkpt>
      <trkpt lat="43.80585" lon="5.70689">
        <ele>407</ele>
        <time>2021-07-21T11:04:35Z</time>
      </trkpt>
      <trkpt lat="43.80588" lon="5.70701">
        <ele>406</ele>
        <time>2021-07-21T11:04:36Z</time>
      </trkpt>
      <trkpt lat="43.8059" lon="5.70714">
        <ele>406</ele>
        <time>2021-07-21T11:04:37Z</time>
      </trkpt>
      <trkpt lat="43.80609" lon="5.70912">
        <ele>399</ele>
        <time>2021-07-21T11:04:51Z</time>
      </trkpt>
      <trkpt lat="43.8061" lon="5.71046">
        <ele>394</ele>
        <time>2021-07-21T11:05:00Z</time>
      </trkpt>
      <trkpt lat="43.80612" lon="5.7106">
        <ele>393</ele>
        <time>2021-07-21T11:05:01Z</time>
      </trkpt>
      <trkpt lat="43.80614" lon="5.71075">
        <ele>392</ele>
        <time>2021-07-21T11:05:02Z</time>
      </trkpt>
      <trkpt lat="43.80618" lon="5.71089">
        <ele>392</ele>
        <time>2021-07-21T11:05:03Z</time>
      </trkpt>
      <trkpt lat="43.80623" lon="5.71102">
        <ele>391</ele>
        <time>2021-07-21T11:05:04Z</time>
      </trkpt>
      <trkpt lat="43.80628" lon="5.71115">
        <ele>391</ele>
        <time>2021-07-21T11:05:05Z</time>
      </trkpt>
      <trkpt lat="43.80634" lon="5.71128">
        <ele>390</ele>
        <time>2021-07-21T11:05:06Z</time>
      </trkpt>
      <trkpt lat="43.80639" lon="5.71141">
        <ele>390</ele>
        <time>2021-07-21T11:05:07Z</time>
      </trkpt>
      <trkpt lat="43.80662" lon="5.71242">
        <ele>387</ele>
        <time>2021-07-21T11:05:14Z</time>
      </trkpt>
      <trkpt lat="43.80662" lon="5.71259">
        <ele>386</ele>
        <time>2021-07-21T11:05:15Z</time>
      </trkpt>
      <trkpt lat="43.80661" lon="5.71274">
        <ele>385</ele>
        <time>2021-07-21T11:05:16Z</time>
      </trkpt>
      <trkpt lat="43.80649" lon="5.71382">
        <ele>381</ele>
        <time>2021-07-21T11:05:23Z</time>
      </trkpt>
      <trkpt lat="43.8065" lon="5.71397">
        <ele>380</ele>
        <time>2021-07-21T11:05:24Z</time>
      </trkpt>
      <trkpt lat="43.80652" lon="5.71413">
        <ele>380</ele>
        <time>2021-07-21T11:05:25Z</time>
      </trkpt>
      <trkpt lat="43.80656" lon="5.71426">
        <ele>379</ele>
        <time>2021-07-21T11:05:26Z</time>
      </trkpt>
      <trkpt lat="43.80661" lon="5.71441">
        <ele>378</ele>
        <time>2021-07-21T11:05:27Z</time>
      </trkpt>
      <trkpt lat="43.80664" lon="5.71454">
        <ele>378</ele>
        <time>2021-07-21T11:05:28Z</time>
      </trkpt>
      <trkpt lat="43.80667" lon="5.71469">
        <ele>377</ele>
        <time>2021-07-21T11:05:29Z</time>
      </trkpt>
      <trkpt lat="43.80667" lon="5.71484">
        <ele>376</ele>
        <time>2021-07-21T11:05:30Z</time>
      </trkpt>
      <trkpt lat="43.80666" lon="5.71499">
        <ele>376</ele>
        <time>2021-07-21T11:05:31Z</time>
      </trkpt>
      <trkpt lat="43.80664" lon="5.71515">
        <ele>375</ele>
        <time>2021-07-21T11:05:32Z</time>
      </trkpt>
      <trkpt lat="43.80662" lon="5.7153">
        <ele>375</ele>
        <time>2021-07-21T11:05:33Z</time>
      </trkpt>
      <trkpt lat="43.80621" lon="5.7177">
        <ele>368</ele>
        <time>2021-07-21T11:05:50Z</time>
      </trkpt>
      <trkpt lat="43.80607" lon="5.71881">
        <ele>364</ele>
        <time>2021-07-21T11:05:58Z</time>
      </trkpt>
      <trkpt lat="43.80607" lon="5.71892">
        <ele>364</ele>
        <time>2021-07-21T11:05:59Z</time>
      </trkpt>
      <trkpt lat="43.80608" lon="5.71903">
        <ele>364</ele>
        <time>2021-07-21T11:06:00Z</time>
      </trkpt>
      <trkpt lat="43.80612" lon="5.71913">
        <ele>363</ele>
        <time>2021-07-21T11:06:01Z</time>
      </trkpt>
      <trkpt lat="43.80617" lon="5.71921">
        <ele>363</ele>
        <time>2021-07-21T11:06:02Z</time>
      </trkpt>
      <trkpt lat="43.80625" lon="5.71926">
        <ele>362</ele>
        <time>2021-07-21T11:06:03Z</time>
      </trkpt>
      <trkpt lat="43.80633" lon="5.7193">
        <ele>361</ele>
        <time>2021-07-21T11:06:04Z</time>
      </trkpt>
      <trkpt lat="43.8064" lon="5.71936">
        <ele>360</ele>
        <time>2021-07-21T11:06:05Z</time>
      </trkpt>
      <trkpt lat="43.80644" lon="5.71945">
        <ele>360</ele>
        <time>2021-07-21T11:06:06Z</time>
      </trkpt>
      <trkpt lat="43.80645" lon="5.71957">
        <ele>359</ele>
        <time>2021-07-21T11:06:07Z</time>
      </trkpt>
      <trkpt lat="43.80643" lon="5.71969">
        <ele>358</ele>
        <time>2021-07-21T11:06:08Z</time>
      </trkpt>
      <trkpt lat="43.80638" lon="5.71979">
        <ele>357</ele>
        <time>2021-07-21T11:06:09Z</time>
      </trkpt>
      <trkpt lat="43.80633" lon="5.71987">
        <ele>357</ele>
        <time>2021-07-21T11:06:10Z</time>
      </trkpt>
      <trkpt lat="43.80627" lon="5.71995">
        <ele>356</ele>
        <time>2021-07-21T11:06:11Z</time>
      </trkpt>
      <trkpt lat="43.80623" lon="5.72004">
        <ele>355</ele>
        <time>2021-07-21T11:06:12Z</time>
      </trkpt>
      <trkpt lat="43.80621" lon="5.72014">
        <ele>355</ele>
        <time>2021-07-21T11:06:13Z</time>
      </trkpt>
      <trkpt lat="43.80624" lon="5.72024">
        <ele>354</ele>
        <time>2021-07-21T11:06:14Z</time>
      </trkpt>
      <trkpt lat="43.80629" lon="5.72032">
        <ele>353</ele>
        <time>2021-07-21T11:06:15Z</time>
      </trkpt>
      <trkpt lat="43.80637" lon="5.72035">
        <ele>352</ele>
        <time>2021-07-21T11:06:16Z</time>
      </trkpt>
      <trkpt lat="43.80645" lon="5.72034">
        <ele>352</ele>
        <time>2021-07-21T11:06:17Z</time>
      </trkpt>
      <trkpt lat="43.80652" lon="5.72028">
        <ele>351</ele>
        <time>2021-07-21T11:06:18Z</time>
      </trkpt>
      <trkpt lat="43.80659" lon="5.72019">
        <ele>350</ele>
        <time>2021-07-21T11:06:19Z</time>
      </trkpt>
      <trkpt lat="43.80665" lon="5.72011">
        <ele>349</ele>
        <time>2021-07-21T11:06:20Z</time>
      </trkpt>
      <trkpt lat="43.80672" lon="5.72006">
        <ele>348</ele>
        <time>2021-07-21T11:06:21Z</time>
      </trkpt>
      <trkpt lat="43.8068" lon="5.72005">
        <ele>348</ele>
        <time>2021-07-21T11:06:22Z</time>
      </trkpt>
      <trkpt lat="43.80688" lon="5.72006">
        <ele>347</ele>
        <time>2021-07-21T11:06:23Z</time>
      </trkpt>
      <trkpt lat="43.80764" lon="5.72029">
        <ele>343</ele>
        <time>2021-07-21T11:06:32Z</time>
      </trkpt>
      <trkpt lat="43.80771" lon="5.72033">
        <ele>343</ele>
        <time>2021-07-21T11:06:33Z</time>
      </trkpt>
      <trkpt lat="43.80777" lon="5.72039">
        <ele>343</ele>
        <time>2021-07-21T11:06:34Z</time>
      </trkpt>
      <trkpt lat="43.8078" lon="5.72048">
        <ele>343</ele>
        <time>2021-07-21T11:06:35Z</time>
      </trkpt>
      <trkpt lat="43.8078" lon="5.72058">
        <ele>344</ele>
        <time>2021-07-21T11:06:36Z</time>
      </trkpt>
      <trkpt lat="43.80777" lon="5.72066">
        <ele>344</ele>
        <time>2021-07-21T11:06:37Z</time>
      </trkpt>
      <trkpt lat="43.80773" lon="5.72073">
        <ele>344</ele>
        <time>2021-07-21T11:06:38Z</time>
      </trkpt>
      <trkpt lat="43.80769" lon="5.72079">
        <ele>344</ele>
        <time>2021-07-21T11:06:39Z</time>
      </trkpt>
      <trkpt lat="43.80736" lon="5.7213">
        <ele>344</ele>
        <time>2021-07-21T11:06:47Z</time>
      </trkpt>
      <trkpt lat="43.80734" lon="5.72138">
        <ele>344</ele>
        <time>2021-07-21T11:06:48Z</time>
      </trkpt>
      <trkpt lat="43.80732" lon="5.72145">
        <ele>344</ele>
        <time>2021-07-21T11:06:49Z</time>
      </trkpt>
      <trkpt lat="43.80732" lon="5.72153">
        <ele>344</ele>
        <time>2021-07-21T11:06:50Z</time>
      </trkpt>
      <trkpt lat="43.80732" lon="5.72161">
        <ele>344</ele>
        <time>2021-07-21T11:06:51Z</time>
      </trkpt>
      <trkpt lat="43.80733" lon="5.72169">
        <ele>343</ele>
        <time>2021-07-21T11:06:52Z</time>
      </trkpt>
      <trkpt lat="43.80734" lon="5.72176">
        <ele>343</ele>
        <time>2021-07-21T11:06:53Z</time>
      </trkpt>
      <trkpt lat="43.80734" lon="5.72248">
        <ele>342</ele>
        <time>2021-07-21T11:07:02Z</time>
      </trkpt>
      <trkpt lat="43.80715" lon="5.72377">
        <ele>340</ele>
        <time>2021-07-21T11:07:17Z</time>
      </trkpt>
      <trkpt lat="43.80708" lon="5.72478">
        <ele>341</ele>
        <time>2021-07-21T11:07:30Z</time>
      </trkpt>
      <trkpt lat="43.80698" lon="5.72583">
        <ele>343</ele>
        <time>2021-07-21T11:07:48Z</time>
      </trkpt>
      <trkpt lat="43.80706" lon="5.72647">
        <ele>344</ele>
        <time>2021-07-21T11:08:02Z</time>
      </trkpt>
      <trkpt lat="43.8074" lon="5.72714">
        <ele>342</ele>
        <time>2021-07-21T11:08:14Z</time>
      </trkpt>
      <trkpt lat="43.80742" lon="5.72721">
        <ele>341</ele>
        <time>2021-07-21T11:08:15Z</time>
      </trkpt>
      <trkpt lat="43.80744" lon="5.72737">
        <ele>342</ele>
        <time>2021-07-21T11:08:18Z</time>
      </trkpt>
      <trkpt lat="43.80747" lon="5.7282">
        <ele>345</ele>
        <time>2021-07-21T11:08:34Z</time>
      </trkpt>
      <trkpt lat="43.80751" lon="5.72902">
        <ele>348</ele>
        <time>2021-07-21T11:08:51Z</time>
      </trkpt>
      <trkpt lat="43.8073" lon="5.72962">
        <ele>352</ele>
        <time>2021-07-21T11:09:06Z</time>
      </trkpt>
      <trkpt lat="43.80677" lon="5.73002">
        <ele>358</ele>
        <time>2021-07-21T11:09:23Z</time>
      </trkpt>
      <trkpt lat="43.80642" lon="5.73034">
        <ele>361</ele>
        <time>2021-07-21T11:09:36Z</time>
      </trkpt>
      <trkpt lat="43.80636" lon="5.7309">
        <ele>364</ele>
        <time>2021-07-21T11:09:48Z</time>
      </trkpt>
      <trkpt lat="43.80651" lon="5.73188">
        <ele>368</ele>
        <time>2021-07-21T11:10:09Z</time>
      </trkpt>
      <trkpt lat="43.80658" lon="5.7324">
        <ele>369</ele>
        <time>2021-07-21T11:10:21Z</time>
      </trkpt>
      <trkpt lat="43.80684" lon="5.73282">
        <ele>372</ele>
        <time>2021-07-21T11:10:34Z</time>
      </trkpt>
      <trkpt lat="43.80716" lon="5.73291">
        <ele>375</ele>
        <time>2021-07-21T11:10:45Z</time>
      </trkpt>
      <trkpt lat="43.80769" lon="5.7329">
        <ele>380</ele>
        <time>2021-07-21T11:11:01Z</time>
      </trkpt>
      <trkpt lat="43.80817" lon="5.73288">
        <ele>382</ele>
        <time>2021-07-21T11:11:16Z</time>
      </trkpt>
      <trkpt lat="43.80858" lon="5.73292">
        <ele>385</ele>
        <time>2021-07-21T11:11:29Z</time>
      </trkpt>
      <trkpt lat="43.80894" lon="5.73314">
        <ele>387</ele>
        <time>2021-07-21T11:11:42Z</time>
      </trkpt>
      <trkpt lat="43.80927" lon="5.73355">
        <ele>390</ele>
        <time>2021-07-21T11:11:56Z</time>
      </trkpt>
      <trkpt lat="43.80958" lon="5.73408">
        <ele>392</ele>
        <time>2021-07-21T11:12:11Z</time>
      </trkpt>
      <trkpt lat="43.80988" lon="5.73456">
        <ele>391</ele>
        <time>2021-07-21T11:12:24Z</time>
      </trkpt>
      <trkpt lat="43.81014" lon="5.73511">
        <ele>391</ele>
        <time>2021-07-21T11:12:37Z</time>
      </trkpt>
      <trkpt lat="43.81024" lon="5.73582">
        <ele>394</ele>
        <time>2021-07-21T11:12:52Z</time>
      </trkpt>
      <trkpt lat="43.81041" lon="5.73659">
        <ele>396</ele>
        <time>2021-07-21T11:13:08Z</time>
      </trkpt>
      <trkpt lat="43.81071" lon="5.73721">
        <ele>397</ele>
        <time>2021-07-21T11:13:23Z</time>
      </trkpt>
      <trkpt lat="43.81104" lon="5.73764">
        <ele>401</ele>
        <time>2021-07-21T11:13:36Z</time>
      </trkpt>
      <trkpt lat="43.81162" lon="5.73797">
        <ele>403</ele>
        <time>2021-07-21T11:13:54Z</time>
      </trkpt>
      <trkpt lat="43.81203" lon="5.73807">
        <ele>404</ele>
        <time>2021-07-21T11:14:06Z</time>
      </trkpt>
      <trkpt lat="43.81239" lon="5.73787">
        <ele>405</ele>
        <time>2021-07-21T11:14:19Z</time>
      </trkpt>
      <trkpt lat="43.81283" lon="5.73755">
        <ele>406</ele>
        <time>2021-07-21T11:14:33Z</time>
      </trkpt>
      <trkpt lat="43.81332" lon="5.73743">
        <ele>407</ele>
        <time>2021-07-21T11:14:47Z</time>
      </trkpt>
      <trkpt lat="43.81398" lon="5.73745">
        <ele>409</ele>
        <time>2021-07-21T11:15:05Z</time>
      </trkpt>
      <trkpt lat="43.81447" lon="5.73784">
        <ele>410</ele>
        <time>2021-07-21T11:15:21Z</time>
      </trkpt>
      <trkpt lat="43.81477" lon="5.73862">
        <ele>409</ele>
        <time>2021-07-21T11:15:37Z</time>
      </trkpt>
      <trkpt lat="43.81495" lon="5.73946">
        <ele>409</ele>
        <time>2021-07-21T11:15:51Z</time>
      </trkpt>
      <trkpt lat="43.81518" lon="5.74072">
        <ele>407</ele>
        <time>2021-07-21T11:16:08Z</time>
      </trkpt>
      <trkpt lat="43.81536" lon="5.74224">
        <ele>405</ele>
        <time>2021-07-21T11:16:24Z</time>
      </trkpt>
      <trkpt lat="43.81563" lon="5.74329">
        <ele>407</ele>
        <time>2021-07-21T11:16:38Z</time>
      </trkpt>
      <trkpt lat="43.81569" lon="5.74393">
        <ele>409</ele>
        <time>2021-07-21T11:16:51Z</time>
      </trkpt>
      <trkpt lat="43.8156" lon="5.74421">
        <ele>408</ele>
        <time>2021-07-21T11:16:58Z</time>
      </trkpt>
      <trkpt lat="43.81561" lon="5.74426">
        <ele>408</ele>
        <time>2021-07-21T11:16:59Z</time>
      </trkpt>
      <trkpt lat="43.81564" lon="5.7443">
        <ele>408</ele>
        <time>2021-07-21T11:17:00Z</time>
      </trkpt>
      <trkpt lat="43.81567" lon="5.74433">
        <ele>408</ele>
        <time>2021-07-21T11:17:01Z</time>
      </trkpt>
      <trkpt lat="43.81571" lon="5.74435">
        <ele>408</ele>
        <time>2021-07-21T11:17:02Z</time>
      </trkpt>
      <trkpt lat="43.81575" lon="5.74436">
        <ele>408</ele>
        <time>2021-07-21T11:17:03Z</time>
      </trkpt>
      <trkpt lat="43.81579" lon="5.74436">
        <ele>408</ele>
        <time>2021-07-21T11:17:04Z</time>
      </trkpt>
      <trkpt lat="43.81583" lon="5.74435">
        <ele>408</ele>
        <time>2021-07-21T11:17:05Z</time>
      </trkpt>
      <trkpt lat="43.81586" lon="5.74433">
        <ele>408</ele>
        <time>2021-07-21T11:17:06Z</time>
      </trkpt>
      <trkpt lat="43.81588" lon="5.74432">
        <ele>408</ele>
        <time>2021-07-21T11:17:07Z</time>
      </trkpt>
      <trkpt lat="43.81592" lon="5.74432">
        <ele>408</ele>
        <time>2021-07-21T11:17:08Z</time>
      </trkpt>
      <trkpt lat="43.81595" lon="5.74433">
        <ele>408</ele>
        <time>2021-07-21T11:17:09Z</time>
      </trkpt>
      <trkpt lat="43.81599" lon="5.74436">
        <ele>408</ele>
        <time>2021-07-21T11:17:10Z</time>
      </trkpt>
      <trkpt lat="43.81604" lon="5.74438">
        <ele>408</ele>
        <time>2021-07-21T11:17:11Z</time>
      </trkpt>
      <trkpt lat="43.8165" lon="5.74471">
        <ele>409</ele>
        <time>2021-07-21T11:17:23Z</time>
      </trkpt>
      <trkpt lat="43.81678" lon="5.74498">
        <ele>409</ele>
        <time>2021-07-21T11:17:31Z</time>
      </trkpt>
      <trkpt lat="43.81682" lon="5.74502">
        <ele>408</ele>
        <time>2021-07-21T11:17:32Z</time>
      </trkpt>
      <trkpt lat="43.81707" lon="5.74527">
        <ele>407</ele>
        <time>2021-07-21T11:17:38Z</time>
      </trkpt>
      <trkpt lat="43.81716" lon="5.74537">
        <ele>407</ele>
        <time>2021-07-21T11:17:40Z</time>
      </trkpt>
      <trkpt lat="43.81721" lon="5.74542">
        <ele>407</ele>
        <time>2021-07-21T11:17:41Z</time>
      </trkpt>
      <trkpt lat="43.81738" lon="5.74564">
        <ele>406</ele>
        <time>2021-07-21T11:17:45Z</time>
      </trkpt>
      <trkpt lat="43.81808" lon="5.7467">
        <ele>402</ele>
        <time>2021-07-21T11:18:00Z</time>
      </trkpt>
      <trkpt lat="43.81915" lon="5.74777">
        <ele>397</ele>
        <time>2021-07-21T11:18:16Z</time>
      </trkpt>
      <trkpt lat="43.81987" lon="5.74873">
        <ele>394</ele>
        <time>2021-07-21T11:18:29Z</time>
      </trkpt>
      <trkpt lat="43.82043" lon="5.75007">
        <ele>393</ele>
        <time>2021-07-21T11:18:44Z</time>
      </trkpt>
      <trkpt lat="43.82125" lon="5.75149">
        <ele>391</ele>
        <time>2021-07-21T11:19:02Z</time>
      </trkpt>
      <trkpt lat="43.82172" lon="5.75214">
        <ele>390</ele>
        <time>2021-07-21T11:19:12Z</time>
      </trkpt>
      <trkpt lat="43.82178" lon="5.75218">
        <ele>390</ele>
        <time>2021-07-21T11:19:13Z</time>
      </trkpt>
      <trkpt lat="43.82233" lon="5.75242">
        <ele>389</ele>
        <time>2021-07-21T11:19:22Z</time>
      </trkpt>
      <trkpt lat="43.82329" lon="5.75241">
        <ele>392</ele>
        <time>2021-07-21T11:19:40Z</time>
      </trkpt>
      <trkpt lat="43.82389" lon="5.75246">
        <ele>395</ele>
        <time>2021-07-21T11:19:53Z</time>
      </trkpt>
      <trkpt lat="43.82439" lon="5.75271">
        <ele>400</ele>
        <time>2021-07-21T11:20:07Z</time>
      </trkpt>
      <trkpt lat="43.825" lon="5.75308">
        <ele>403</ele>
        <time>2021-07-21T11:20:23Z</time>
      </trkpt>
      <trkpt lat="43.82566" lon="5.75357">
        <ele>403</ele>
        <time>2021-07-21T11:20:40Z</time>
      </trkpt>
      <trkpt lat="43.82609" lon="5.75404">
        <ele>405</ele>
        <time>2021-07-21T11:20:53Z</time>
      </trkpt>
      <trkpt lat="43.82663" lon="5.75471">
        <ele>408</ele>
        <time>2021-07-21T11:21:11Z</time>
      </trkpt>
      <trkpt lat="43.82669" lon="5.75478">
        <ele>408</ele>
        <time>2021-07-21T11:21:13Z</time>
      </trkpt>
      <trkpt lat="43.82729" lon="5.75529">
        <ele>408</ele>
        <time>2021-07-21T11:21:29Z</time>
      </trkpt>
      <trkpt lat="43.82795" lon="5.75578">
        <ele>408</ele>
        <time>2021-07-21T11:21:46Z</time>
      </trkpt>
      <trkpt lat="43.82816" lon="5.75598">
        <ele>409</ele>
        <time>2021-07-21T11:21:52Z</time>
      </trkpt>
      <trkpt lat="43.82861" lon="5.75668">
        <ele>413</ele>
        <time>2021-07-21T11:22:09Z</time>
      </trkpt>
      <trkpt lat="43.82906" lon="5.75754">
        <ele>415</ele>
        <time>2021-07-21T11:22:27Z</time>
      </trkpt>
      <trkpt lat="43.82941" lon="5.75827">
        <ele>413</ele>
        <time>2021-07-21T11:22:40Z</time>
      </trkpt>
      <trkpt lat="43.82944" lon="5.75832">
        <ele>412</ele>
        <time>2021-07-21T11:22:41Z</time>
      </trkpt>
      <trkpt lat="43.82947" lon="5.75837">
        <ele>412</ele>
        <time>2021-07-21T11:22:42Z</time>
      </trkpt>
      <trkpt lat="43.8295" lon="5.75842">
        <ele>412</ele>
        <time>2021-07-21T11:22:43Z</time>
      </trkpt>
      <trkpt lat="43.82953" lon="5.75848">
        <ele>412</ele>
        <time>2021-07-21T11:22:44Z</time>
      </trkpt>
      <trkpt lat="43.83004" lon="5.75941">
        <ele>410</ele>
        <time>2021-07-21T11:22:59Z</time>
      </trkpt>
      <trkpt lat="43.83062" lon="5.76072">
        <ele>409</ele>
        <time>2021-07-21T11:23:18Z</time>
      </trkpt>
      <trkpt lat="43.83111" lon="5.76164">
        <ele>406</ele>
        <time>2021-07-21T11:23:31Z</time>
      </trkpt>
      <trkpt lat="43.83186" lon="5.7622">
        <ele>398</ele>
        <time>2021-07-21T11:23:42Z</time>
      </trkpt>
      <trkpt lat="43.83229" lon="5.76255">
        <ele>394</ele>
        <time>2021-07-21T11:23:50Z</time>
      </trkpt>
      <trkpt lat="43.83234" lon="5.76261">
        <ele>393</ele>
        <time>2021-07-21T11:23:51Z</time>
      </trkpt>
      <trkpt lat="43.83238" lon="5.76271">
        <ele>393</ele>
        <time>2021-07-21T11:23:52Z</time>
      </trkpt>
      <trkpt lat="43.8324" lon="5.76279">
        <ele>392</ele>
        <time>2021-07-21T11:23:53Z</time>
      </trkpt>
      <trkpt lat="43.83241" lon="5.76288">
        <ele>392</ele>
        <time>2021-07-21T11:23:54Z</time>
      </trkpt>
      <trkpt lat="43.83243" lon="5.76298">
        <ele>391</ele>
        <time>2021-07-21T11:23:55Z</time>
      </trkpt>
      <trkpt lat="43.83267" lon="5.76465">
        <ele>388</ele>
        <time>2021-07-21T11:24:10Z</time>
      </trkpt>
      <trkpt lat="43.83294" lon="5.76679">
        <ele>379</ele>
        <time>2021-07-21T11:24:26Z</time>
      </trkpt>
      <trkpt lat="43.83318" lon="5.76883">
        <ele>371</ele>
        <time>2021-07-21T11:24:42Z</time>
      </trkpt>
      <trkpt lat="43.83317" lon="5.76891">
        <ele>371</ele>
        <time>2021-07-21T11:24:43Z</time>
      </trkpt>
      <trkpt lat="43.83316" lon="5.76898">
        <ele>371</ele>
        <time>2021-07-21T11:24:44Z</time>
      </trkpt>
      <trkpt lat="43.83314" lon="5.76905">
        <ele>370</ele>
        <time>2021-07-21T11:24:45Z</time>
      </trkpt>
      <trkpt lat="43.83313" lon="5.76911">
        <ele>370</ele>
        <time>2021-07-21T11:24:46Z</time>
      </trkpt>
      <trkpt lat="43.83312" lon="5.76917">
        <ele>370</ele>
        <time>2021-07-21T11:24:47Z</time>
      </trkpt>
      <trkpt lat="43.83312" lon="5.76923">
        <ele>370</ele>
        <time>2021-07-21T11:24:48Z</time>
      </trkpt>
      <trkpt lat="43.83313" lon="5.7693">
        <ele>370</ele>
        <time>2021-07-21T11:24:49Z</time>
      </trkpt>
      <trkpt lat="43.83314" lon="5.76943">
        <ele>370</ele>
        <time>2021-07-21T11:24:51Z</time>
      </trkpt>
      <trkpt lat="43.83313" lon="5.76947">
        <ele>370</ele>
        <time>2021-07-21T11:24:52Z</time>
      </trkpt>
      <trkpt lat="43.83312" lon="5.76951">
        <ele>370</ele>
        <time>2021-07-21T11:24:53Z</time>
      </trkpt>
      <trkpt lat="43.83311" lon="5.76954">
        <ele>370</ele>
        <time>2021-07-21T11:24:54Z</time>
      </trkpt>
      <trkpt lat="43.83313" lon="5.76959">
        <ele>374</ele>
        <time>2021-07-21T11:25:06Z</time>
      </trkpt>
      <trkpt lat="43.83311" lon="5.7696">
        <ele>377</ele>
        <time>2021-07-21T11:25:37Z</time>
      </trkpt>
      <trkpt lat="43.8331" lon="5.76963">
        <ele>380</ele>
        <time>2021-07-21T11:26:02Z</time>
      </trkpt>
      <trkpt lat="43.8331" lon="5.76965">
        <ele>380</ele>
        <time>2021-07-21T11:26:03Z</time>
      </trkpt>
      <trkpt lat="43.83311" lon="5.76966">
        <ele>380</ele>
        <time>2021-07-21T11:26:04Z</time>
      </trkpt>
      <trkpt lat="43.8331" lon="5.76968">
        <ele>379</ele>
        <time>2021-07-21T11:26:05Z</time>
      </trkpt>
      <trkpt lat="43.8331" lon="5.7697">
        <ele>379</ele>
        <time>2021-07-21T11:26:06Z</time>
      </trkpt>
      <trkpt lat="43.83309" lon="5.76974">
        <ele>379</ele>
        <time>2021-07-21T11:26:07Z</time>
      </trkpt>
      <trkpt lat="43.83295" lon="5.77035">
        <ele>376</ele>
        <time>2021-07-21T11:26:18Z</time>
      </trkpt>
      <trkpt lat="43.83263" lon="5.77128">
        <ele>372</ele>
        <time>2021-07-21T11:26:32Z</time>
      </trkpt>
      <trkpt lat="43.83225" lon="5.77242">
        <ele>368</ele>
        <time>2021-07-21T11:26:47Z</time>
      </trkpt>
      <trkpt lat="43.83187" lon="5.77353">
        <ele>365</ele>
        <time>2021-07-21T11:27:02Z</time>
      </trkpt>
      <trkpt lat="43.83166" lon="5.77475">
        <ele>362</ele>
        <time>2021-07-21T11:27:15Z</time>
      </trkpt>
      <trkpt lat="43.83137" lon="5.77619">
        <ele>359</ele>
        <time>2021-07-21T11:27:30Z</time>
      </trkpt>
      <trkpt lat="43.8311" lon="5.77721">
        <ele>356</ele>
        <time>2021-07-21T11:27:44Z</time>
      </trkpt>
      <trkpt lat="43.83102" lon="5.77746">
        <ele>354</ele>
        <time>2021-07-21T11:27:48Z</time>
      </trkpt>
      <trkpt lat="43.83099" lon="5.7775">
        <ele>354</ele>
        <time>2021-07-21T11:27:49Z</time>
      </trkpt>
      <trkpt lat="43.83094" lon="5.77753">
        <ele>354</ele>
        <time>2021-07-21T11:27:50Z</time>
      </trkpt>
      <trkpt lat="43.8309" lon="5.77754">
        <ele>354</ele>
        <time>2021-07-21T11:27:51Z</time>
      </trkpt>
      <trkpt lat="43.83085" lon="5.77753">
        <ele>354</ele>
        <time>2021-07-21T11:27:52Z</time>
      </trkpt>
      <trkpt lat="43.83081" lon="5.77752">
        <ele>353</ele>
        <time>2021-07-21T11:27:53Z</time>
      </trkpt>
      <trkpt lat="43.83076" lon="5.7775">
        <ele>353</ele>
        <time>2021-07-21T11:27:54Z</time>
      </trkpt>
      <trkpt lat="43.83072" lon="5.77749">
        <ele>353</ele>
        <time>2021-07-21T11:27:55Z</time>
      </trkpt>
      <trkpt lat="43.83068" lon="5.7775">
        <ele>353</ele>
        <time>2021-07-21T11:27:56Z</time>
      </trkpt>
      <trkpt lat="43.83063" lon="5.77752">
        <ele>353</ele>
        <time>2021-07-21T11:27:57Z</time>
      </trkpt>
      <trkpt lat="43.83061" lon="5.77755">
        <ele>353</ele>
        <time>2021-07-21T11:27:58Z</time>
      </trkpt>
      <trkpt lat="43.83058" lon="5.77759">
        <ele>353</ele>
        <time>2021-07-21T11:27:59Z</time>
      </trkpt>
      <trkpt lat="43.83057" lon="5.77764">
        <ele>353</ele>
        <time>2021-07-21T11:28:00Z</time>
      </trkpt>
      <trkpt lat="43.83057" lon="5.7777">
        <ele>353</ele>
        <time>2021-07-21T11:28:01Z</time>
      </trkpt>
      <trkpt lat="43.83058" lon="5.77775">
        <ele>353</ele>
        <time>2021-07-21T11:28:02Z</time>
      </trkpt>
      <trkpt lat="43.83061" lon="5.77781">
        <ele>353</ele>
        <time>2021-07-21T11:28:03Z</time>
      </trkpt>
      <trkpt lat="43.83064" lon="5.77786">
        <ele>353</ele>
        <time>2021-07-21T11:28:04Z</time>
      </trkpt>
      <trkpt lat="43.83067" lon="5.77788">
        <ele>353</ele>
        <time>2021-07-21T11:28:05Z</time>
      </trkpt>
      <trkpt lat="43.83071" lon="5.7779">
        <ele>353</ele>
        <time>2021-07-21T11:28:06Z</time>
      </trkpt>
      <trkpt lat="43.83074" lon="5.77792">
        <ele>353</ele>
        <time>2021-07-21T11:28:07Z</time>
      </trkpt>
      <trkpt lat="43.83108" lon="5.77833">
        <ele>355</ele>
        <time>2021-07-21T11:28:19Z</time>
      </trkpt>
      <trkpt lat="43.83105" lon="5.77893">
        <ele>357</ele>
        <time>2021-07-21T11:28:31Z</time>
      </trkpt>
      <trkpt lat="43.83085" lon="5.77965">
        <ele>360</ele>
        <time>2021-07-21T11:28:47Z</time>
      </trkpt>
      <trkpt lat="43.83069" lon="5.78055">
        <ele>362</ele>
        <time>2021-07-21T11:29:05Z</time>
      </trkpt>
      <trkpt lat="43.83064" lon="5.78137">
        <ele>362</ele>
        <time>2021-07-21T11:29:21Z</time>
      </trkpt>
      <trkpt lat="43.8305" lon="5.78225">
        <ele>364</ele>
        <time>2021-07-21T11:29:39Z</time>
      </trkpt>
      <trkpt lat="43.83029" lon="5.78267">
        <ele>366</ele>
        <time>2021-07-21T11:29:51Z</time>
      </trkpt>
      <trkpt lat="43.83025" lon="5.78303">
        <ele>365</ele>
        <time>2021-07-21T11:30:01Z</time>
      </trkpt>
      <trkpt lat="43.83038" lon="5.78373">
        <ele>369</ele>
        <time>2021-07-21T11:30:16Z</time>
      </trkpt>
      <trkpt lat="43.83048" lon="5.78431">
        <ele>373</ele>
        <time>2021-07-21T11:30:29Z</time>
      </trkpt>
      <trkpt lat="43.83055" lon="5.78464">
        <ele>374</ele>
        <time>2021-07-21T11:30:38Z</time>
      </trkpt>
      <trkpt lat="43.83055" lon="5.78466">
        <ele>374</ele>
        <time>2021-07-21T11:30:39Z</time>
      </trkpt>
      <trkpt lat="43.83055" lon="5.78468">
        <ele>374</ele>
        <time>2021-07-21T11:30:40Z</time>
      </trkpt>
      <trkpt lat="43.83053" lon="5.7847">
        <ele>374</ele>
        <time>2021-07-21T11:30:41Z</time>
      </trkpt>
      <trkpt lat="43.83051" lon="5.78472">
        <ele>374</ele>
        <time>2021-07-21T11:30:42Z</time>
      </trkpt>
      <trkpt lat="43.8305" lon="5.78473">
        <ele>374</ele>
        <time>2021-07-21T11:30:43Z</time>
      </trkpt>
      <trkpt lat="43.83048" lon="5.78475">
        <ele>373</ele>
        <time>2021-07-21T11:30:44Z</time>
      </trkpt>
      <trkpt lat="43.83046" lon="5.78476">
        <ele>373</ele>
        <time>2021-07-21T11:30:45Z</time>
      </trkpt>
      <trkpt lat="43.83043" lon="5.78478">
        <ele>375</ele>
        <time>2021-07-21T11:30:53Z</time>
      </trkpt>
      <trkpt lat="43.83042" lon="5.78478">
        <ele>376</ele>
        <time>2021-07-21T11:31:17Z</time>
      </trkpt>
      <trkpt lat="43.83041" lon="5.78484">
        <ele>380</ele>
        <time>2021-07-21T11:31:28Z</time>
      </trkpt>
      <trkpt lat="43.83043" lon="5.78487">
        <ele>380</ele>
        <time>2021-07-21T11:31:32Z</time>
      </trkpt>
      <trkpt lat="43.83044" lon="5.78486">
        <ele>380</ele>
        <time>2021-07-21T11:31:33Z</time>
      </trkpt>
      <trkpt lat="43.83054" lon="5.78472">
        <ele>385</ele>
        <time>2021-07-21T11:31:47Z</time>
      </trkpt>
      <trkpt lat="43.83066" lon="5.78462">
        <ele>390</ele>
        <time>2021-07-21T11:32:01Z</time>
      </trkpt>
      <trkpt lat="43.83068" lon="5.78463">
        <ele>393</ele>
        <time>2021-07-21T11:32:15Z</time>
      </trkpt>
      <trkpt lat="43.8307" lon="5.78465">
        <ele>394</ele>
        <time>2021-07-21T11:32:44Z</time>
      </trkpt>
      <trkpt lat="43.83067" lon="5.78464">
        <ele>394</ele>
        <time>2021-07-21T11:33:22Z</time>
      </trkpt>
      <trkpt lat="43.83067" lon="5.78471">
        <ele>387</ele>
        <time>2021-07-21T11:33:52Z</time>
      </trkpt>
      <trkpt lat="43.83065" lon="5.78472">
        <ele>389</ele>
        <time>2021-07-21T11:34:18Z</time>
      </trkpt>
      <trkpt lat="43.83067" lon="5.78472">
        <ele>389</ele>
        <time>2021-07-21T11:34:43Z</time>
      </trkpt>
      <trkpt lat="43.83064" lon="5.78468">
        <ele>389</ele>
        <time>2021-07-21T11:35:17Z</time>
      </trkpt>
      <trkpt lat="43.83062" lon="5.78466">
        <ele>393</ele>
        <time>2021-07-21T11:35:54Z</time>
      </trkpt>
      <trkpt lat="43.83065" lon="5.78461">
        <ele>389</ele>
        <time>2021-07-21T11:36:25Z</time>
      </trkpt>
      <trkpt lat="43.83067" lon="5.78463">
        <ele>387</ele>
        <time>2021-07-21T11:36:58Z</time>
      </trkpt>
      <trkpt lat="43.83069" lon="5.78462">
        <ele>386</ele>
        <time>2021-07-21T11:37:32Z</time>
      </trkpt>
      <trkpt lat="43.83068" lon="5.78462">
        <ele>383</ele>
        <time>2021-07-21T11:38:16Z</time>
      </trkpt>
      <trkpt lat="43.83066" lon="5.78458">
        <ele>385</ele>
        <time>2021-07-21T11:38:54Z</time>
      </trkpt>
      <trkpt lat="43.83065" lon="5.7846">
        <ele>392</ele>
        <time>2021-07-21T11:39:28Z</time>
      </trkpt>
      <trkpt lat="43.83065" lon="5.78462">
        <ele>399</ele>
        <time>2021-07-21T11:40:00Z</time>
      </trkpt>
      <trkpt lat="43.83064" lon="5.78461">
        <ele>401</ele>
        <time>2021-07-21T11:40:33Z</time>
      </trkpt>
      <trkpt lat="43.83064" lon="5.7846">
        <ele>399</ele>
        <time>2021-07-21T11:41:08Z</time>
      </trkpt>
      <trkpt lat="43.83062" lon="5.78465">
        <ele>398</ele>
        <time>2021-07-21T11:41:43Z</time>
      </trkpt>
      <trkpt lat="43.83061" lon="5.78463">
        <ele>401</ele>
        <time>2021-07-21T11:42:18Z</time>
      </trkpt>
      <trkpt lat="43.83065" lon="5.78461">
        <ele>398</ele>
        <time>2021-07-21T11:42:48Z</time>
      </trkpt>
      <trkpt lat="43.83066" lon="5.78462">
        <ele>398</ele>
        <time>2021-07-21T11:43:21Z</time>
      </trkpt>
      <trkpt lat="43.83064" lon="5.78466">
        <ele>399</ele>
        <time>2021-07-21T11:43:48Z</time>
      </trkpt>
      <trkpt lat="43.83061" lon="5.78461">
        <ele>400</ele>
        <time>2021-07-21T11:44:16Z</time>
      </trkpt>
      <trkpt lat="43.83059" lon="5.78458">
        <ele>402</ele>
        <time>2021-07-21T11:44:51Z</time>
      </trkpt>
      <trkpt lat="43.83063" lon="5.78461">
        <ele>396</ele>
        <time>2021-07-21T11:45:25Z</time>
      </trkpt>
      <trkpt lat="43.83068" lon="5.78466">
        <ele>390</ele>
        <time>2021-07-21T11:45:54Z</time>
      </trkpt>
      <trkpt lat="43.83065" lon="5.78472">
        <ele>387</ele>
        <time>2021-07-21T11:46:23Z</time>
      </trkpt>
      <trkpt lat="43.83065" lon="5.7847">
        <ele>387</ele>
        <time>2021-07-21T11:46:49Z</time>
      </trkpt>
      <trkpt lat="43.83067" lon="5.78465">
        <ele>386</ele>
        <time>2021-07-21T11:47:14Z</time>
      </trkpt>
      <trkpt lat="43.83069" lon="5.78464">
        <ele>386</ele>
        <time>2021-07-21T11:47:35Z</time>
      </trkpt>
      <trkpt lat="43.83069" lon="5.78458">
        <ele>391</ele>
        <time>2021-07-21T11:48:08Z</time>
      </trkpt>
      <trkpt lat="43.83065" lon="5.78463">
        <ele>392</ele>
        <time>2021-07-21T11:48:32Z</time>
      </trkpt>
      <trkpt lat="43.83064" lon="5.7846">
        <ele>395</ele>
        <time>2021-07-21T11:48:56Z</time>
      </trkpt>
      <trkpt lat="43.83064" lon="5.78462">
        <ele>396</ele>
        <time>2021-07-21T11:49:25Z</time>
      </trkpt>
      <trkpt lat="43.83063" lon="5.78463">
        <ele>394</ele>
        <time>2021-07-21T11:50:00Z</time>
      </trkpt>
      <trkpt lat="43.83061" lon="5.78462">
        <ele>399</ele>
        <time>2021-07-21T11:50:31Z</time>
      </trkpt>
      <trkpt lat="43.83062" lon="5.7846">
        <ele>398</ele>
        <time>2021-07-21T11:50:52Z</time>
      </trkpt>
      <trkpt lat="43.83065" lon="5.78466">
        <ele>394</ele>
        <time>2021-07-21T11:51:27Z</time>
      </trkpt>
      <trkpt lat="43.83068" lon="5.78466">
        <ele>389</ele>
        <time>2021-07-21T11:52:01Z</time>
      </trkpt>
      <trkpt lat="43.8307" lon="5.78464">
        <ele>388</ele>
        <time>2021-07-21T11:52:34Z</time>
      </trkpt>
      <trkpt lat="43.8307" lon="5.78467">
        <ele>391</ele>
        <time>2021-07-21T11:53:08Z</time>
      </trkpt>
      <trkpt lat="43.83071" lon="5.78461">
        <ele>392</ele>
        <time>2021-07-21T11:53:40Z</time>
      </trkpt>
      <trkpt lat="43.83069" lon="5.78461">
        <ele>395</ele>
        <time>2021-07-21T11:54:09Z</time>
      </trkpt>
      <trkpt lat="43.8307" lon="5.78461">
        <ele>393</ele>
        <time>2021-07-21T11:54:35Z</time>
      </trkpt>
      <trkpt lat="43.83071" lon="5.7846">
        <ele>394</ele>
        <time>2021-07-21T11:55:06Z</time>
      </trkpt>
      <trkpt lat="43.83068" lon="5.78463">
        <ele>394</ele>
        <time>2021-07-21T11:55:38Z</time>
      </trkpt>
      <trkpt lat="43.83067" lon="5.78461">
        <ele>399</ele>
        <time>2021-07-21T11:56:12Z</time>
      </trkpt>
      <trkpt lat="43.83069" lon="5.78465">
        <ele>399</ele>
        <time>2021-07-21T11:56:50Z</time>
      </trkpt>
      <trkpt lat="43.8307" lon="5.78459">
        <ele>402</ele>
        <time>2021-07-21T11:57:20Z</time>
      </trkpt>
      <trkpt lat="43.83068" lon="5.78462">
        <ele>398</ele>
        <time>2021-07-21T11:57:50Z</time>
      </trkpt>
      <trkpt lat="43.83068" lon="5.78462">
        <ele>394</ele>
        <time>2021-07-21T11:58:24Z</time>
      </trkpt>
      <trkpt lat="43.83071" lon="5.7846">
        <ele>389</ele>
        <time>2021-07-21T11:58:54Z</time>
      </trkpt>
      <trkpt lat="43.83068" lon="5.78459">
        <ele>389</ele>
        <time>2021-07-21T11:59:28Z</time>
      </trkpt>
      <trkpt lat="43.8307" lon="5.78464">
        <ele>389</ele>
        <time>2021-07-21T12:00:03Z</time>
      </trkpt>
      <trkpt lat="43.83068" lon="5.78464">
        <ele>390</ele>
        <time>2021-07-21T12:00:33Z</time>
      </trkpt>
      <trkpt lat="43.83069" lon="5.78466">
        <ele>389</ele>
        <time>2021-07-21T12:01:03Z</time>
      </trkpt>
      <trkpt lat="43.83072" lon="5.78467">
        <ele>382</ele>
        <time>2021-07-21T12:01:42Z</time>
      </trkpt>
      <trkpt lat="43.83071" lon="5.78465">
        <ele>388</ele>
        <time>2021-07-21T12:02:18Z</time>
      </trkpt>
      <trkpt lat="43.83068" lon="5.78463">
        <ele>389</ele>
        <time>2021-07-21T12:02:48Z</time>
      </trkpt>
      <trkpt lat="43.83067" lon="5.78465">
        <ele>388</ele>
        <time>2021-07-21T12:03:21Z</time>
      </trkpt>
      <trkpt lat="43.8307" lon="5.78462">
        <ele>391</ele>
        <time>2021-07-21T12:04:01Z</time>
      </trkpt>
      <trkpt lat="43.83068" lon="5.78466">
        <ele>392</ele>
        <time>2021-07-21T12:04:33Z</time>
      </trkpt>
      <trkpt lat="43.83065" lon="5.78468">
        <ele>392</ele>
        <time>2021-07-21T12:05:07Z</time>
      </trkpt>
      <trkpt lat="43.83068" lon="5.78463">
        <ele>394</ele>
        <time>2021-07-21T12:05:47Z</time>
      </trkpt>
      <trkpt lat="43.8307" lon="5.78463">
        <ele>391</ele>
        <time>2021-07-21T12:06:21Z</time>
      </trkpt>
      <trkpt lat="43.83069" lon="5.7846">
        <ele>392</ele>
        <time>2021-07-21T12:06:49Z</time>
      </trkpt>
      <trkpt lat="43.83069" lon="5.78462">
        <ele>390</ele>
        <time>2021-07-21T12:07:24Z</time>
      </trkpt>
      <trkpt lat="43.83066" lon="5.78463">
        <ele>390</ele>
        <time>2021-07-21T12:08:01Z</time>
      </trkpt>
      <trkpt lat="43.83068" lon="5.78468">
        <ele>389</ele>
        <time>2021-07-21T12:08:28Z</time>
      </trkpt>
      <trkpt lat="43.83068" lon="5.78467">
        <ele>388</ele>
        <time>2021-07-21T12:08:53Z</time>
      </trkpt>
      <trkpt lat="43.83069" lon="5.78468">
        <ele>389</ele>
        <time>2021-07-21T12:09:29Z</time>
      </trkpt>
      <trkpt lat="43.83071" lon="5.78468">
        <ele>386</ele>
        <time>2021-07-21T12:10:01Z</time>
      </trkpt>
      <trkpt lat="43.83072" lon="5.78466">
        <ele>386</ele>
        <time>2021-07-21T12:10:30Z</time>
      </trkpt>
      <trkpt lat="43.8307" lon="5.78465">
        <ele>386</ele>
        <time>2021-07-21T12:10:57Z</time>
      </trkpt>
      <trkpt lat="43.83067" lon="5.78463">
        <ele>389</ele>
        <time>2021-07-21T12:11:31Z</time>
      </trkpt>
      <trkpt lat="43.83077" lon="5.78456">
        <ele>392</ele>
        <time>2021-07-21T12:11:49Z</time>
      </trkpt>
      <trkpt lat="43.83076" lon="5.78457">
        <ele>393</ele>
        <time>2021-07-21T12:11:56Z</time>
      </trkpt>
      <trkpt lat="43.83069" lon="5.7846">
        <ele>393</ele>
        <time>2021-07-21T12:12:08Z</time>
      </trkpt>
      <trkpt lat="43.83053" lon="5.7847">
        <ele>389</ele>
        <time>2021-07-21T12:12:18Z</time>
      </trkpt>
      <trkpt lat="43.83052" lon="5.78472">
        <ele>389</ele>
        <time>2021-07-21T12:12:19Z</time>
      </trkpt>
      <trkpt lat="43.8305" lon="5.78473">
        <ele>389</ele>
        <time>2021-07-21T12:12:20Z</time>
      </trkpt>
      <trkpt lat="43.83049" lon="5.78475">
        <ele>386</ele>
        <time>2021-07-21T12:12:32Z</time>
      </trkpt>
      <trkpt lat="43.83032" lon="5.78481">
        <ele>385</ele>
        <time>2021-07-21T12:12:44Z</time>
      </trkpt>
      <trkpt lat="43.82993" lon="5.78513">
        <ele>384</ele>
        <time>2021-07-21T12:12:58Z</time>
      </trkpt>
      <trkpt lat="43.82953" lon="5.78538">
        <ele>381</ele>
        <time>2021-07-21T12:13:10Z</time>
      </trkpt>
      <trkpt lat="43.82949" lon="5.78543">
        <ele>379</ele>
        <time>2021-07-21T12:13:20Z</time>
      </trkpt>
      <trkpt lat="43.8292" lon="5.78561">
        <ele>377</ele>
        <time>2021-07-21T12:13:31Z</time>
      </trkpt>
      <trkpt lat="43.8291" lon="5.78574">
        <ele>376</ele>
        <time>2021-07-21T12:13:37Z</time>
      </trkpt>
      <trkpt lat="43.82911" lon="5.78578">
        <ele>376</ele>
        <time>2021-07-21T12:13:38Z</time>
      </trkpt>
      <trkpt lat="43.82911" lon="5.78582">
        <ele>376</ele>
        <time>2021-07-21T12:13:39Z</time>
      </trkpt>
      <trkpt lat="43.82913" lon="5.78586">
        <ele>375</ele>
        <time>2021-07-21T12:13:40Z</time>
      </trkpt>
      <trkpt lat="43.82914" lon="5.78591">
        <ele>375</ele>
        <time>2021-07-21T12:13:41Z</time>
      </trkpt>
      <trkpt lat="43.82916" lon="5.78595">
        <ele>375</ele>
        <time>2021-07-21T12:13:42Z</time>
      </trkpt>
      <trkpt lat="43.82936" lon="5.78655">
        <ele>370</ele>
        <time>2021-07-21T12:13:56Z</time>
      </trkpt>
      <trkpt lat="43.82947" lon="5.78697">
        <ele>368</ele>
        <time>2021-07-21T12:14:07Z</time>
      </trkpt>
      <trkpt lat="43.8297" lon="5.78763">
        <ele>364</ele>
        <time>2021-07-21T12:14:19Z</time>
      </trkpt>
      <trkpt lat="43.83002" lon="5.78859">
        <ele>362</ele>
        <time>2021-07-21T12:14:34Z</time>
      </trkpt>
      <trkpt lat="43.83027" lon="5.78926">
        <ele>364</ele>
        <time>2021-07-21T12:14:52Z</time>
      </trkpt>
      <trkpt lat="43.8306" lon="5.7891">
        <ele>365</ele>
        <time>2021-07-21T12:15:03Z</time>
      </trkpt>
      <trkpt lat="43.83104" lon="5.7885">
        <ele>365</ele>
        <time>2021-07-21T12:15:19Z</time>
      </trkpt>
      <trkpt lat="43.83115" lon="5.7884">
        <ele>365</ele>
        <time>2021-07-21T12:15:23Z</time>
      </trkpt>
      <trkpt lat="43.83119" lon="5.78841">
        <ele>365</ele>
        <time>2021-07-21T12:15:24Z</time>
      </trkpt>
      <trkpt lat="43.83122" lon="5.78844">
        <ele>365</ele>
        <time>2021-07-21T12:15:25Z</time>
      </trkpt>
      <trkpt lat="43.83124" lon="5.78847">
        <ele>366</ele>
        <time>2021-07-21T12:15:26Z</time>
      </trkpt>
      <trkpt lat="43.83126" lon="5.78851">
        <ele>366</ele>
        <time>2021-07-21T12:15:27Z</time>
      </trkpt>
      <trkpt lat="43.83128" lon="5.78855">
        <ele>366</ele>
        <time>2021-07-21T12:15:28Z</time>
      </trkpt>
      <trkpt lat="43.8313" lon="5.78859">
        <ele>367</ele>
        <time>2021-07-21T12:15:29Z</time>
      </trkpt>
      <trkpt lat="43.83166" lon="5.78891">
        <ele>370</ele>
        <time>2021-07-21T12:15:42Z</time>
      </trkpt>
      <trkpt lat="43.83184" lon="5.78923">
        <ele>374</ele>
        <time>2021-07-21T12:15:53Z</time>
      </trkpt>
      <trkpt lat="43.83183" lon="5.78925">
        <ele>374</ele>
        <time>2021-07-21T12:15:54Z</time>
      </trkpt>
      <trkpt lat="43.83155" lon="5.78978">
        <ele>373</ele>
        <time>2021-07-21T12:16:08Z</time>
      </trkpt>
      <trkpt lat="43.83119" lon="5.79042">
        <ele>375</ele>
        <time>2021-07-21T12:16:25Z</time>
      </trkpt>
      <trkpt lat="43.831" lon="5.79076">
        <ele>375</ele>
        <time>2021-07-21T12:16:39Z</time>
      </trkpt>
      <trkpt lat="43.83092" lon="5.79094">
        <ele>374</ele>
        <time>2021-07-21T12:16:55Z</time>
      </trkpt>
      <trkpt lat="43.83075" lon="5.79108">
        <ele>372</ele>
        <time>2021-07-21T12:17:06Z</time>
      </trkpt>
      <trkpt lat="43.83073" lon="5.79107">
        <ele>372</ele>
        <time>2021-07-21T12:17:07Z</time>
      </trkpt>
      <trkpt lat="43.83059" lon="5.79103">
        <ele>371</ele>
        <time>2021-07-21T12:17:11Z</time>
      </trkpt>
      <trkpt lat="43.83055" lon="5.79105">
        <ele>371</ele>
        <time>2021-07-21T12:17:12Z</time>
      </trkpt>
      <trkpt lat="43.83052" lon="5.79108">
        <ele>371</ele>
        <time>2021-07-21T12:17:13Z</time>
      </trkpt>
      <trkpt lat="43.83049" lon="5.79112">
        <ele>371</ele>
        <time>2021-07-21T12:17:14Z</time>
      </trkpt>
      <trkpt lat="43.83047" lon="5.79117">
        <ele>371</ele>
        <time>2021-07-21T12:17:15Z</time>
      </trkpt>
      <trkpt lat="43.83045" lon="5.79123">
        <ele>371</ele>
        <time>2021-07-21T12:17:16Z</time>
      </trkpt>
      <trkpt lat="43.83045" lon="5.79128">
        <ele>371</ele>
        <time>2021-07-21T12:17:17Z</time>
      </trkpt>
      <trkpt lat="43.83045" lon="5.79134">
        <ele>371</ele>
        <time>2021-07-21T12:17:18Z</time>
      </trkpt>
      <trkpt lat="43.83046" lon="5.79138">
        <ele>371</ele>
        <time>2021-07-21T12:17:19Z</time>
      </trkpt>
      <trkpt lat="43.83046" lon="5.79142">
        <ele>370</ele>
        <time>2021-07-21T12:17:20Z</time>
      </trkpt>
      <trkpt lat="43.83046" lon="5.79146">
        <ele>370</ele>
        <time>2021-07-21T12:17:21Z</time>
      </trkpt>
      <trkpt lat="43.83045" lon="5.7915">
        <ele>370</ele>
        <time>2021-07-21T12:17:22Z</time>
      </trkpt>
      <trkpt lat="43.83044" lon="5.79151">
        <ele>370</ele>
        <time>2021-07-21T12:17:23Z</time>
      </trkpt>
      <trkpt lat="43.83043" lon="5.79152">
        <ele>370</ele>
        <time>2021-07-21T12:17:24Z</time>
      </trkpt>
      <trkpt lat="43.83036" lon="5.79168">
        <ele>369</ele>
        <time>2021-07-21T12:17:37Z</time>
      </trkpt>
      <trkpt lat="43.83037" lon="5.79165">
        <ele>368</ele>
        <time>2021-07-21T12:17:56Z</time>
      </trkpt>
      <trkpt lat="43.83038" lon="5.79162">
        <ele>368</ele>
        <time>2021-07-21T12:18:09Z</time>
      </trkpt>
      <trkpt lat="43.8304" lon="5.79154">
        <ele>368</ele>
        <time>2021-07-21T12:18:27Z</time>
      </trkpt>
      <trkpt lat="43.83043" lon="5.79152">
        <ele>368</ele>
        <time>2021-07-21T12:18:33Z</time>
      </trkpt>
      <trkpt lat="43.83055" lon="5.7916">
        <ele>367</ele>
        <time>2021-07-21T12:18:43Z</time>
      </trkpt>
      <trkpt lat="43.83056" lon="5.7916">
        <ele>368</ele>
        <time>2021-07-21T12:18:44Z</time>
      </trkpt>
      <trkpt lat="43.83057" lon="5.79161">
        <ele>368</ele>
        <time>2021-07-21T12:18:58Z</time>
      </trkpt>
      <trkpt lat="43.83061" lon="5.79162">
        <ele>368</ele>
        <time>2021-07-21T12:19:05Z</time>
      </trkpt>
      <trkpt lat="43.83063" lon="5.79161">
        <ele>368</ele>
        <time>2021-07-21T12:19:06Z</time>
      </trkpt>
      <trkpt lat="43.83066" lon="5.79159">
        <ele>368</ele>
        <time>2021-07-21T12:19:07Z</time>
      </trkpt>
      <trkpt lat="43.83071" lon="5.79157">
        <ele>368</ele>
        <time>2021-07-21T12:19:10Z</time>
      </trkpt>
      <trkpt lat="43.83073" lon="5.79159">
        <ele>368</ele>
        <time>2021-07-21T12:19:11Z</time>
      </trkpt>
      <trkpt lat="43.83074" lon="5.79162">
        <ele>368</ele>
        <time>2021-07-21T12:19:12Z</time>
      </trkpt>
      <trkpt lat="43.83075" lon="5.79165">
        <ele>368</ele>
        <time>2021-07-21T12:19:13Z</time>
      </trkpt>
      <trkpt lat="43.83076" lon="5.79168">
        <ele>369</ele>
        <time>2021-07-21T12:19:14Z</time>
      </trkpt>
      <trkpt lat="43.83078" lon="5.79171">
        <ele>369</ele>
        <time>2021-07-21T12:19:15Z</time>
      </trkpt>
      <trkpt lat="43.83081" lon="5.79174">
        <ele>369</ele>
        <time>2021-07-21T12:19:16Z</time>
      </trkpt>
      <trkpt lat="43.83084" lon="5.79175">
        <ele>369</ele>
        <time>2021-07-21T12:19:17Z</time>
      </trkpt>
      <trkpt lat="43.83086" lon="5.79176">
        <ele>370</ele>
        <time>2021-07-21T12:19:18Z</time>
      </trkpt>
      <trkpt lat="43.83089" lon="5.79177">
        <ele>370</ele>
        <time>2021-07-21T12:19:19Z</time>
      </trkpt>
      <trkpt lat="43.83092" lon="5.79177">
        <ele>370</ele>
        <time>2021-07-21T12:19:20Z</time>
      </trkpt>
      <trkpt lat="43.83095" lon="5.79177">
        <ele>370</ele>
        <time>2021-07-21T12:19:21Z</time>
      </trkpt>
      <trkpt lat="43.83122" lon="5.79184">
        <ele>373</ele>
        <time>2021-07-21T12:19:32Z</time>
      </trkpt>
      <trkpt lat="43.83122" lon="5.79185">
        <ele>373</ele>
        <time>2021-07-21T12:19:33Z</time>
      </trkpt>
      <trkpt lat="43.83122" lon="5.79187">
        <ele>373</ele>
        <time>2021-07-21T12:19:34Z</time>
      </trkpt>
      <trkpt lat="43.83125" lon="5.79233">
        <ele>375</ele>
        <time>2021-07-21T12:19:48Z</time>
      </trkpt>
      <trkpt lat="43.83124" lon="5.79273">
        <ele>376</ele>
        <time>2021-07-21T12:20:01Z</time>
      </trkpt>
      <trkpt lat="43.83122" lon="5.79274">
        <ele>376</ele>
        <time>2021-07-21T12:20:02Z</time>
      </trkpt>
      <trkpt lat="43.8312" lon="5.79274">
        <ele>376</ele>
        <time>2021-07-21T12:20:03Z</time>
      </trkpt>
      <trkpt lat="43.83117" lon="5.79274">
        <ele>375</ele>
        <time>2021-07-21T12:20:04Z</time>
      </trkpt>
      <trkpt lat="43.83114" lon="5.79274">
        <ele>375</ele>
        <time>2021-07-21T12:20:05Z</time>
      </trkpt>
      <trkpt lat="43.83073" lon="5.79282">
        <ele>372</ele>
        <time>2021-07-21T12:20:20Z</time>
      </trkpt>
      <trkpt lat="43.83064" lon="5.79299">
        <ele>372</ele>
        <time>2021-07-21T12:20:28Z</time>
      </trkpt>
      <trkpt lat="43.83063" lon="5.79301">
        <ele>373</ele>
        <time>2021-07-21T12:20:40Z</time>
      </trkpt>
      <trkpt lat="43.83063" lon="5.79303">
        <ele>373</ele>
        <time>2021-07-21T12:21:10Z</time>
      </trkpt>
      <trkpt lat="43.83063" lon="5.79299">
        <ele>375</ele>
        <time>2021-07-21T12:21:42Z</time>
      </trkpt>
      <trkpt lat="43.83062" lon="5.79298">
        <ele>374</ele>
        <time>2021-07-21T12:22:05Z</time>
      </trkpt>
      <trkpt lat="43.83065" lon="5.793">
        <ele>373</ele>
        <time>2021-07-21T12:22:36Z</time>
      </trkpt>
      <trkpt lat="43.83067" lon="5.79301">
        <ele>374</ele>
        <time>2021-07-21T12:23:11Z</time>
      </trkpt>
      <trkpt lat="43.83066" lon="5.79303">
        <ele>374</ele>
        <time>2021-07-21T12:23:51Z</time>
      </trkpt>
      <trkpt lat="43.83062" lon="5.79302">
        <ele>376</ele>
        <time>2021-07-21T12:24:31Z</time>
      </trkpt>
      <trkpt lat="43.83065" lon="5.79302">
        <ele>375</ele>
        <time>2021-07-21T12:25:14Z</time>
      </trkpt>
      <trkpt lat="43.83061" lon="5.79301">
        <ele>372</ele>
        <time>2021-07-21T12:25:53Z</time>
      </trkpt>
      <trkpt lat="43.83066" lon="5.79302">
        <ele>379</ele>
        <time>2021-07-21T12:26:33Z</time>
      </trkpt>
      <trkpt lat="43.83067" lon="5.79301">
        <ele>377</ele>
        <time>2021-07-21T12:27:18Z</time>
      </trkpt>
      <trkpt lat="43.83068" lon="5.79314">
        <ele>376</ele>
        <time>2021-07-21T12:27:31Z</time>
      </trkpt>
      <trkpt lat="43.83069" lon="5.7933">
        <ele>374</ele>
        <time>2021-07-21T12:27:51Z</time>
      </trkpt>
      <trkpt lat="43.83072" lon="5.79333">
        <ele>371</ele>
        <time>2021-07-21T12:28:05Z</time>
      </trkpt>
      <trkpt lat="43.83069" lon="5.7933">
        <ele>370</ele>
        <time>2021-07-21T12:28:35Z</time>
      </trkpt>
      <trkpt lat="43.83072" lon="5.79325">
        <ele>375</ele>
        <time>2021-07-21T12:29:18Z</time>
      </trkpt>
      <trkpt lat="43.83072" lon="5.79331">
        <ele>372</ele>
        <time>2021-07-21T12:29:56Z</time>
      </trkpt>
      <trkpt lat="43.83076" lon="5.7933">
        <ele>372</ele>
        <time>2021-07-21T12:30:34Z</time>
      </trkpt>
      <trkpt lat="43.83077" lon="5.79332">
        <ele>371</ele>
        <time>2021-07-21T12:31:12Z</time>
      </trkpt>
      <trkpt lat="43.83078" lon="5.79329">
        <ele>372</ele>
        <time>2021-07-21T12:31:48Z</time>
      </trkpt>
      <trkpt lat="43.83075" lon="5.79331">
        <ele>375</ele>
        <time>2021-07-21T12:32:18Z</time>
      </trkpt>
      <trkpt lat="43.83077" lon="5.79332">
        <ele>374</ele>
        <time>2021-07-21T12:32:51Z</time>
      </trkpt>
      <trkpt lat="43.83075" lon="5.79332">
        <ele>369</ele>
        <time>2021-07-21T12:33:35Z</time>
      </trkpt>
      <trkpt lat="43.83077" lon="5.79331">
        <ele>368</ele>
        <time>2021-07-21T12:34:08Z</time>
      </trkpt>
    </trkseg>
  </trk>
</gpx>